[[{"header":{"parameterUnit":"m.s-1","parameterCategory":1,"la1":30.6,"la2":28.766,"lo1":-90.7593,"lo2":-88.6598,"dy":0.0162,"dx":0.0183,"nx":116,"ny":114,"refTime":"2023-11-22T06:00:00:Z","depth":0,"parameterNumber":2,"parameterNumberName":"U-component_of_WINDS"},"data":[0.0,0.0,0.0,0.0,0.0,0.0,0.0,0.0,0.0,0.0,0.0,0.0,0.0,0.0,0.0,0.0,0.0,0.0,0.0,0.0,0.0,0.0,0.0,0.0,0.0,0.0,0.0,0.0,0.0,0.0,0.0,0.0,0.0,0.0,0.0,0.0,0.0,0.0,0.0,0.0,0.0,0.0,0.0,0.0,0.0,0.0,0.0,0.0,0.0,0.0,0.0,0.0,0.0,0.0,0.0,0.0,0.0,0.0,0.0,0.0,0.0,0.0,0.0,0.0,0.0,0.0,0.0,0.0,0.0,0.0,0.0,0.0,0.0,0.0,0.0,0.0,0.0,0.0,0.0,0.0,0.0,0.0,0.0,0.0,0.0,0.0,0.0,0.0,0.0,0.0,0.0,0.0,0.0,0.0,0.0,0.0,0.0,0.0,0.0,0.0,0.0,0.0,0.0,0.0,0.0,0.0,0.0,0.0,0.0,0.0,0.0,0.0,0.0,0.0,0.0,0.0,0.0,0.0,0.0,0.0,0.0,0.0,0.0,0.0,0.0,0.0,0.0,0.0,0.0,0.0,0.0,0.0,0.0,0.0,0.0,0.0,0.0,0.0,0.0,0.0,0.0,0.0,0.0,0.0,0.0,0.0,0.0,0.0,0.0,0.0,0.0,0.0,0.0,0.0,0.0,0.0,0.0,0.0,0.0,0.0,0.0,0.0,0.0,0.0,0.0,0.0,0.0,0.0,0.0,0.0,0.0,0.0,0.0,0.0,0.0,0.0,0.0,0.0,0.0,0.0,0.0,0.0,0.0,0.0,0.0,0.0,0.0,0.0,0.0,0.0,0.0,0.0,0.0,0.0,0.0,0.0,0.0,0.0,0.0,0.0,0.0,0.0,0.0,0.0,0.0,0.0,0.0,0.0,0.0,0.0,0.0,0.0,0.0,0.0,0.0,0.0,0.0,0.0,0.0,0.0,0.0,0.0,0.0,0.0,0.0,0.0,0.0,0.0,0.0,0.0,0.0,0.0,0.0,0.0,0.0,0.0,0.0,0.0,0.0,0.0,0.0,0.0,0.0,0.0,0.0,0.0,0.0,0.0,0.0,0.0,0.0,0.0,0.0,0.0,0.0,0.0,0.0,0.0,0.0,0.0,0.0,0.0,0.0,0.0,0.0,0.0,0.0,0.0,0.0,0.0,0.0,0.0,0.0,0.0,0.0,0.0,0.0,0.0,0.0,0.0,0.0,0.0,0.0,0.0,0.0,0.0,0.0,0.0,0.0,0.0,0.0,0.0,0.0,0.0,0.0,0.0,0.0,0.0,0.0,0.0,0.0,0.0,0.0,0.0,0.0,0.0,0.0,0.0,0.0,0.0,0.0,0.0,0.0,0.0,0.0,0.0,0.0,0.0,0.0,0.0,0.0,0.0,0.0,0.0,0.0,0.0,0.0,0.0,0.0,0.0,0.0,0.0,0.0,0.0,0.0,0.0,0.0,0.0,0.0,0.0,0.0,0.0,0.0,0.0,0.0,0.0,0.0,0.0,0.0,0.0,0.0,0.0,0.0,0.0,0.0,0.0,0.0,0.0,0.0,0.0,0.0,0.0,0.0,0.0,0.0,0.0,0.0,0.0,0.0,0.0,0.0,0.0,0.0,0.0,0.0,0.0,0.0,0.0,0.0,0.0,0.0,0.0,0.0,0.0,0.0,0.0,0.0,0.0,0.0,0.0,0.0,0.0,0.0,0.0,0.0,0.0,0.0,0.0,0.0,0.0,0.0,0.0,0.0,0.0,0.0,0.0,0.0,0.0,0.0,0.0,0.0,0.0,0.0,0.0,0.0,0.0,0.0,0.0,0.0,0.0,0.0,0.0,0.0,0.0,0.0,0.0,0.0,0.0,0.0,0.0,0.0,0.0,0.0,0.0,0.0,0.0,0.0,0.0,0.0,0.0,0.0,0.0,0.0,0.0,0.0,0.0,0.0,0.0,0.0,0.0,0.0,0.0,0.0,0.0,0.0,0.0,0.0,0.0,0.0,0.0,0.0,0.0,0.0,0.0,0.0,0.0,0.0,0.0,0.0,0.0,0.0,0.0,0.0,0.0,0.0,0.0,0.0,0.0,0.0,0.0,0.0,0.0,0.0,0.0,0.0,0.0,0.0,0.0,0.0,0.0,0.0,0.0,0.0,0.0,0.0,0.0,0.0,0.0,0.0,0.0,0.0,0.0,0.0,0.0,0.0,0.0,0.0,0.0,0.0,0.0,0.0,0.0,0.0,0.0,0.0,0.0,0.0,0.0,0.0,0.0,0.0,0.0,0.0,0.0,0.0,0.0,0.0,0.0,0.0,0.0,0.0,0.0,0.0,0.0,0.0,0.0,0.0,0.0,0.0,0.0,0.0,0.0,0.0,0.0,0.0,0.0,0.0,0.0,0.0,0.0,0.0,0.0,0.0,0.0,0.0,0.0,0.0,0.0,0.0,0.0,0.0,0.0,0.0,0.0,0.0,0.0,0.0,0.0,0.0,0.0,0.0,0.0,0.0,0.0,0.0,0.0,0.0,0.0,0.0,0.0,0.0,0.0,0.0,0.0,0.0,0.0,0.0,0.0,0.0,0.0,0.0,0.0,0.0,0.0,0.0,0.0,0.0,0.0,0.0,0.0,0.0,0.0,0.0,0.0,0.0,0.0,0.0,0.0,0.0,0.0,0.0,0.0,0.0,0.0,0.0,0.0,0.0,0.0,0.0,0.0,0.0,0.0,0.0,0.0,0.0,0.0,0.0,0.0,0.0,0.0,0.0,0.0,0.0,0.0,0.0,0.0,0.0,0.0,0.0,0.0,0.0,0.0,0.0,0.0,0.0,0.0,0.0,0.0,0.0,0.0,0.0,0.0,0.0,0.0,0.0,0.0,0.0,0.0,0.0,0.0,0.0,0.0,0.0,0.0,0.0,0.0,0.0,0.0,0.0,0.0,0.0,0.0,0.0,0.0,0.0,0.0,0.0,0.0,0.0,0.0,0.0,0.0,0.0,0.0,0.0,0.0,0.0,0.0,0.0,0.0,0.0,0.0,0.0,0.0,0.0,0.0,0.0,0.0,0.0,0.0,0.0,0.0,0.0,0.0,0.0,0.0,0.0,0.0,0.0,0.0,0.0,0.0,0.0,0.0,0.0,0.0,0.0,0.0,0.0,0.0,0.0,0.0,0.0,0.0,0.0,0.0,0.0,0.0,0.0,0.0,0.0,0.0,0.0,0.0,0.0,0.0,0.0,0.0,0.0,0.0,0.0,0.0,0.0,0.0,0.0,0.0,0.0,0.0,0.0,0.0,0.0,0.0,0.0,0.0,0.0,0.0,0.0,0.0,0.0,0.0,0.0,0.0,0.0,0.0,0.0,0.0,0.0,0.0,0.0,0.0,0.0,0.0,0.0,0.0,0.0,0.0,0.0,0.0,0.0,0.0,0.0,0.0,0.0,0.0,0.0,0.0,0.0,0.0,0.0,0.0,0.0,0.0,0.0,0.0,0.0,0.0,0.0,0.0,0.0,0.0,0.0,0.0,0.0,0.0,0.0,0.0,0.0,0.0,0.0,0.0,0.0,0.0,0.0,0.0,0.0,0.0,0.0,0.0,0.0,0.0,0.0,0.0,0.0,0.0,0.0,0.0,0.0,0.0,0.0,0.0,0.0,0.0,0.0,0.0,0.0,0.0,0.0,0.0,0.0,0.0,0.0,0.0,0.0,0.0,0.0,0.0,0.0,0.0,0.0,0.0,0.0,0.0,0.0,0.0,0.0,0.0,0.0,0.0,0.0,0.0,0.0,0.0,0.0,0.0,0.0,0.0,0.0,0.0,0.0,0.0,0.0,0.0,0.0,0.0,0.0,0.0,0.0,0.0,0.0,0.0,0.0,0.0,0.0,0.0,0.0,0.0,0.0,0.0,0.0,0.0,0.0,0.0,0.0,0.0,0.0,0.0,0.0,0.0,0.0,0.0,0.0,0.0,0.0,0.0,0.0,0.0,0.0,0.0,0.0,0.0,0.0,0.0,0.0,0.0,0.0,0.0,0.0,0.0,0.0,0.0,0.0,0.0,0.0,0.0,0.0,0.0,0.0,0.0,0.0,0.0,0.0,0.0,0.0,0.0,0.0,0.0,0.0,0.0,0.0,0.0,0.0,0.0,0.0,0.0,0.0,0.0,0.0,0.0,0.0,0.0,0.0,0.0,0.0,0.0,0.0,0.0,0.0,0.0,0.0,0.0,0.0,0.0,0.0,0.0,0.0,0.0,0.0,0.0,0.0,0.0,0.0,0.0,0.0,0.0,0.0,0.0,0.0,0.0,0.0,0.0,0.0,0.0,0.0,0.0,0.0,0.0,0.0,0.0,0.0,0.0,0.0,0.0,0.0,0.0,0.0,0.0,0.0,0.0,0.0,0.0,0.0,0.0,0.0,0.0,0.0,0.0,0.0,0.0,0.0,0.0,0.0,0.0,0.0,0.0,0.0,0.0,0.0,0.0,0.0,0.0,0.0,0.0,0.0,0.0,0.0,0.0,0.0,0.0,0.0,0.0,0.0,0.0,0.0,0.0,0.0,0.0,0.0,0.0,0.0,0.0,0.0,0.0,0.0,0.0,0.0,0.0,0.0,0.0,0.0,0.0,0.0,0.0,0.0,0.0,0.0,0.0,0.0,0.0,0.0,0.0,0.0,0.0,0.0,0.0,0.0,0.0,0.0,0.0,0.0,0.0,0.0,0.0,0.0,0.0,0.0,0.0,0.0,0.0,0.0,0.0,0.0,0.0,0.0,0.0,0.0,0.0,0.0,0.0,0.0,0.0,0.0,0.0,0.0,0.0,0.0,0.0,0.0,0.0,0.0,0.0,0.0,0.0,0.0,0.0,0.0,0.0,0.0,0.0,0.0,0.0,0.0,0.0,0.0,0.0,0.0,0.0,0.0,0.0,0.0,0.0,0.0,0.0,0.0,0.0,0.0,0.0,0.0,0.0,0.0,0.0,0.0,0.0,0.0,0.0,0.0,0.0,0.0,0.0,0.0,0.0,0.0,0.0,0.0,0.0,0.0,0.0,0.0,0.0,0.0,0.0,0.0,0.0,0.0,0.0,0.0,0.0,0.0,0.0,0.0,0.0,0.0,0.0,0.0,0.0,0.0,0.0,0.0,0.0,0.0,0.0,0.0,0.0,0.0,0.0,0.0,0.0,0.0,0.0,0.0,0.0,0.0,0.0,0.0,0.0,0.0,0.0,0.0,0.0,0.0,0.0,0.0,0.0,0.0,0.0,0.0,0.0,0.0,0.0,0.0,0.0,0.0,0.0,0.0,0.0,0.0,0.0,0.0,0.0,0.0,0.0,0.0,0.0,0.0,0.0,0.0,0.0,0.0,0.0,0.0,0.0,0.0,0.0,0.0,0.0,0.0,0.0,0.0,0.0,0.0,0.0,0.0,0.0,0.0,0.0,0.0,0.0,0.0,0.0,0.0,0.0,0.0,0.0,0.0,0.0,0.0,0.0,0.0,0.0,0.0,0.0,0.0,0.0,0.0,0.0,0.0,0.0,0.0,0.0,0.0,0.0,0.0,0.0,0.0,0.0,0.0,0.0,0.0,0.0,0.0,0.0,0.0,0.0,0.0,0.0,0.0,0.0,0.0,0.0,0.0,0.0,0.0,0.0,0.0,0.0,0.0,0.0,0.0,0.0,0.0,0.0,0.0,0.0,0.0,0.0,0.0,0.0,0.0,0.0,0.0,0.0,0.0,0.0,0.0,0.0,0.0,0.0,0.0,0.0,0.0,0.0,0.0,0.0,0.0,0.0,0.0,0.0,0.0,0.0,0.0,0.0,0.0,0.0,0.0,0.0,0.0,0.0,0.0,0.0,0.0,0.0,0.0,0.0,0.0,0.0,0.0,0.0,0.0,0.0,0.0,0.0,0.0,0.0,0.0,0.0,0.0,0.0,0.0,0.0,0.0,0.0,0.0,0.0,0.0,0.0,0.0,0.0,0.0,0.0,0.0,0.0,0.0,0.0,0.0,0.0,0.0,0.0,0.0,0.0,0.0,0.0,0.0,0.0,0.0,0.0,0.0,0.0,0.0,0.0,0.0,0.0,2.1888,0.0,0.0,0.0,0.0,0.0,0.0,0.0,0.0,0.0,0.0,0.0,0.0,0.0,0.0,0.0,0.0,0.0,0.0,0.0,0.0,0.0,0.0,0.0,0.0,0.0,0.0,0.0,0.0,0.0,0.0,0.0,0.0,0.0,0.0,0.0,0.0,0.0,0.0,0.0,1.4197,1.5042,0.0,0.0,0.0,0.0,0.0,0.0,0.0,0.0,0.0,0.0,0.0,0.0,0.0,0.0,0.0,0.0,0.0,0.0,0.0,0.0,0.0,0.0,0.0,0.0,0.0,0.0,0.0,0.0,0.0,0.0,0.0,0.0,0.0,0.0,0.0,0.0,0.0,0.0,0.0,0.0,0.0,0.0,0.0,0.0,0.0,0.0,0.0,0.0,0.0,0.0,0.0,0.0,0.0,0.0,0.0,0.0,0.0,0.0,0.0,0.0,0.0,0.0,0.0,0.0,0.0,0.0,0.0,0.0,0.0,0.0,0.0,0.0,0.0,0.0,0.0,2.1805,0.0,0.0,0.0,0.0,0.0,0.0,0.0,0.0,0.0,0.0,0.0,0.0,0.0,0.0,0.0,0.0,0.0,0.0,0.0,0.0,0.0,0.0,0.0,1.3198,1.3224,1.3284,1.348,1.364,1.3707,1.3707,1.3707,1.3707,1.3707,1.3707,1.3707,1.364,1.3908,1.4513,1.4792,1.5709,0.0,0.0,0.0,0.0,0.0,0.0,0.0,0.0,0.0,0.0,0.0,0.0,0.0,0.0,0.0,0.0,0.0,0.0,0.0,0.0,0.0,0.0,0.0,0.0,0.0,0.0,0.0,0.0,0.0,0.0,0.0,0.0,0.0,0.0,0.0,0.0,0.0,0.0,0.0,0.0,0.0,0.0,0.0,0.0,0.0,0.0,0.0,0.0,0.0,0.0,0.0,0.0,0.0,0.0,0.0,0.0,0.0,0.0,0.0,0.0,0.0,0.0,0.0,0.0,0.0,0.0,0.0,0.0,0.0,2.4075,2.4075,2.4075,2.4075,2.4108,2.463,2.3694,2.1805,0.0,0.0,0.0,0.0,0.0,0.0,0.0,0.0,0.0,0.0,0.0,0.0,0.0,0.0,0.0,0.0,0.0,0.0,0.0,0.0,0.0,0.0,1.3198,1.3314,1.3615,1.3408,1.3391,1.3682,1.3707,1.3707,1.3707,1.3707,1.3707,1.3707,1.3408,1.3557,1.4167,1.6859,1.885,2.0177,2.1171,2.1575,2.1367,1.944,0.0,0.0,0.0,0.0,0.0,0.0,0.0,0.0,0.0,0.0,0.0,0.0,0.0,0.0,0.0,0.0,0.0,0.0,0.0,0.0,0.0,0.0,0.0,0.0,0.0,0.0,0.0,0.0,0.0,0.0,0.0,0.0,0.0,0.0,0.0,0.0,0.0,0.0,0.0,0.0,0.0,0.0,0.0,1.9708,1.9708,0.0,0.0,0.0,0.0,0.0,0.0,0.0,0.0,0.0,0.0,0.0,0.0,0.0,0.0,2.1805,2.1805,2.3272,2.6261,3.094,3.316,3.316,3.316,3.316,3.3309,3.5872,0.0,2.1805,2.1805,0.0,0.0,0.0,0.0,0.0,0.0,0.0,0.0,0.0,0.0,0.0,0.0,0.0,0.0,0.0,0.0,0.0,0.0,0.0,0.0,0.0,1.3879,1.4169,1.4193,1.5482,1.5619,1.4034,1.495,1.492,1.3476,1.3598,1.3615,1.3425,1.3787,1.4933,1.6848,1.941,2.1463,2.3027,2.3665,2.4311,2.4885,2.321,2.2241,2.1777,2.0127,0.0,0.0,0.0,0.0,0.0,0.0,0.0,0.0,0.0,0.0,0.0,0.0,0.0,0.0,0.0,0.0,0.0,0.0,0.0,0.0,0.0,0.0,0.0,0.0,0.0,0.0,0.0,0.0,0.0,0.0,0.0,0.0,0.0,0.0,0.0,0.0,0.0,0.0,0.0,1.9708,2.0247,2.1719,2.0597,1.9936,0.0,0.0,0.0,0.0,0.0,0.0,0.0,0.0,0.0,2.2767,2.571,2.7867,2.9142,2.9162,2.9814,3.1123,3.3673,3.4899,3.4899,3.4899,3.4899,3.4965,3.627,3.4845,3.126,2.6312,2.3296,2.1805,0.0,0.0,0.0,0.0,0.0,2.1805,0.0,0.0,0.0,0.0,0.0,0.0,0.0,0.0,0.0,0.0,0.0,0.0,1.435,1.5108,1.5645,1.5928,1.7557,1.7551,1.5099,1.5775,1.5402,1.3509,1.3514,1.3467,1.3207,1.4589,1.6744,1.9647,2.1762,2.377,2.5645,2.6095,2.6853,2.784,2.693,2.5189,2.283,2.1191,2.0181,0.0,0.0,0.0,0.0,0.0,0.0,0.0,0.0,0.0,0.0,0.0,0.0,0.0,0.0,0.0,0.0,0.0,0.0,0.0,0.0,0.0,0.0,0.0,0.0,0.0,0.0,0.0,0.0,0.0,0.0,0.0,0.0,0.0,0.0,0.0,0.0,0.0,0.0,1.9708,2.0417,2.2378,2.0881,1.9708,0.0,0.0,0.0,0.0,0.0,0.0,2.1684,2.2363,2.361,2.5558,3.0105,3.3343,3.5049,3.5062,3.5062,3.5062,3.5707,3.6038,3.6038,3.6038,3.6435,3.7135,3.7135,3.8361,3.9849,3.2547,2.7363,2.4033,2.4033,2.3578,2.3014,2.3752,2.4033,2.4232,0.0,0.0,0.0,0.0,0.0,0.0,0.0,0.0,0.0,0.0,0.0,1.4024,1.6214,1.6941,1.7914,1.9501,1.8773,1.7938,1.7285,1.5363,1.4197,1.4056,1.3517,1.3224,1.3198,1.5864,1.8617,2.1369,2.358,2.5787,2.7959,2.8473,2.9057,2.9674,2.9604,2.8962,2.7709,2.4154,2.2512,2.2194,0.0,0.0,0.0,0.0,0.0,0.0,0.0,0.0,0.0,0.0,0.0,0.0,0.0,0.0,0.0,0.0,0.0,0.0,0.0,0.0,0.0,0.0,0.0,0.0,0.0,0.0,0.0,0.0,0.0,0.0,0.0,0.0,0.0,0.0,0.0,0.0,0.0,0.0,0.0,1.9887,1.9774,0.0,0.0,0.0,0.0,1.9708,2.1994,2.4519,2.7061,2.9551,3.0972,3.1107,3.3828,3.5343,3.5472,3.5472,3.5472,3.5504,3.7917,3.9083,3.9083,3.9083,4.0564,4.3151,4.3151,4.3251,4.315,3.9948,3.5259,3.0059,3.0059,2.8397,2.631,2.9049,3.0059,3.0853,0.0,0.0,0.0,0.0,0.0,0.0,0.0,0.0,1.3198,1.3198,1.4143,1.5482,1.7246,1.8996,2.0497,2.1677,2.1872,2.1079,1.9083,1.7562,1.6407,1.5678,1.4786,1.5118,1.689,1.897,2.1394,2.4145,2.6013,2.8059,3.0231,3.0419,3.1009,3.1909,3.1524,3.0954,3.0046,2.622,2.3739,2.2229,2.0631,1.9496,0.0,0.0,0.0,0.0,0.0,0.0,0.0,0.0,0.0,0.0,0.0,0.0,0.0,0.0,0.0,0.0,0.0,0.0,0.0,0.0,0.0,0.0,0.0,0.0,0.0,0.0,0.0,0.0,0.0,0.0,0.0,0.0,0.0,0.0,0.0,0.0,0.0,3.0986,2.8353,0.0,0.0,2.2478,2.3456,2.9415,2.9132,2.985,3.2527,3.3574,3.4067,3.4067,3.4995,3.5504,3.5504,3.5504,3.5504,3.5537,3.8085,3.9299,3.9299,3.9299,4.0876,4.3514,4.164,4.0829,4.0746,3.9716,3.6932,3.3331,3.3331,3.2696,3.215,3.5081,3.617,3.6468,0.0,0.0,0.0,0.0,0.0,0.0,0.0,0.0,1.3269,1.3475,1.5116,1.7072,1.9186,2.1492,2.3434,2.4764,2.4344,2.305,2.0803,1.8744,1.7213,1.6272,1.5718,1.6746,1.9509,2.1191,2.3489,2.644,2.7946,2.9704,3.1675,3.1675,3.2164,3.3077,3.2679,3.219,3.1486,2.8743,2.6063,2.3545,2.1624,2.0514,1.9912,0.0,0.0,0.0,0.0,0.0,0.0,0.0,0.0,0.0,0.0,0.0,0.0,0.0,0.0,0.0,0.0,0.0,0.0,0.0,0.0,0.0,0.0,0.0,0.0,0.0,0.0,0.0,0.0,0.0,0.0,0.0,0.0,0.0,0.0,0.0,3.646,3.5518,3.4172,3.1794,2.7974,2.6854,2.8906,3.504,3.3858,3.3634,3.5415,3.5504,3.5504,3.5504,3.6372,3.6821,3.6821,3.5953,3.5953,3.6838,3.9486,4.0246,3.9299,3.9299,4.0876,4.3482,4.1574,4.076,4.076,4.076,3.9037,3.6485,3.7466,3.7235,3.6734,3.9683,4.013,3.9299,0.0,0.0,0.0,0.0,0.0,0.0,0.0,1.3224,1.3433,1.4044,1.6076,1.8756,2.2086,2.4376,2.6582,2.8821,2.5963,2.3552,2.242,1.8694,1.6298,1.5793,1.6335,1.7965,2.078,2.2383,2.4842,2.816,2.9277,3.0633,3.2181,3.2181,3.2516,3.3102,3.3102,3.2788,3.2181,3.1675,2.961,2.6474,2.4152,2.2316,2.0756,0.0,0.0,0.0,0.0,0.0,0.0,0.0,0.0,0.0,0.0,0.0,0.0,0.0,0.0,0.0,0.0,0.0,0.0,0.0,0.0,0.0,0.0,0.0,0.0,0.0,0.0,0.0,0.0,0.0,0.0,0.0,0.0,0.0,3.4037,3.7746,3.7477,3.2288,3.6221,3.6372,2.8708,3.2527,3.5518,3.5624,3.5624,3.5624,3.5624,3.5624,3.5594,3.5504,3.803,3.9406,3.9406,3.6896,3.6849,3.9308,4.2125,4.2008,3.9294,3.9294,4.0833,4.3462,4.3462,4.3462,4.3462,4.3462,4.1869,3.9713,4.2404,4.1823,3.9766,4.257,4.1789,3.9299,0.0,0.0,0.0,0.0,0.0,0.0,1.3556,1.3556,1.383,1.4579,1.7274,2.0279,2.324,2.5862,2.7994,2.9448,2.65,2.4277,2.359,1.9535,1.725,1.7501,1.9196,2.1242,2.3627,2.4924,2.6809,2.9327,3.0043,3.0959,3.2039,3.2039,3.2437,3.3102,3.3102,3.3014,3.2851,3.27,3.1871,3.0369,2.7356,2.4678,2.2476,0.0,0.0,0.0,0.0,0.0,0.0,0.0,0.0,0.0,0.0,0.0,0.0,0.0,0.0,0.0,0.0,0.0,0.0,0.0,0.0,0.0,0.0,0.0,0.0,0.0,0.0,0.0,0.0,0.0,0.0,0.0,0.0,2.9955,3.4831,3.7746,3.8389,3.5667,3.7193,3.7851,3.6312,3.5774,3.6281,3.818,3.8329,3.8329,3.8329,3.8329,3.7462,3.5564,3.803,3.9406,3.9406,3.8688,3.7731,3.6596,3.9283,4.0129,3.9371,3.9371,3.9804,4.0548,4.0548,4.0548,4.0548,4.0548,4.1278,4.2289,4.0978,4.1276,4.2504,4.3315,4.1789,3.9299,0.0,0.0,0.0,0.0,0.0,0.0,1.3682,1.3581,1.3909,1.5079,1.8115,2.1155,2.3715,2.6251,2.8021,2.8687,2.5883,2.3562,2.2322,1.9196,1.8052,1.9522,2.1241,2.3311,2.5799,2.6721,2.814,3.0143,3.067,3.1336,3.2089,3.2349,3.2688,3.3102,3.3102,3.3102,3.3102,3.3102,3.304,3.2754,3.0821,2.8762,2.6755,2.6006,2.5827,2.5726,2.3861,2.396,2.4663,2.2726,0.0,0.0,0.0,0.0,0.0,0.0,0.0,0.0,0.0,0.0,0.0,0.0,0.0,0.0,0.0,0.0,0.0,0.0,0.0,0.0,0.0,0.0,0.0,0.0,3.0852,3.6726,3.8997,3.9849,3.9609,3.7918,3.8588,3.9242,3.9391,3.803,3.7761,3.9287,3.9406,3.9406,3.9406,3.9406,3.8703,3.7178,3.8614,3.9406,3.9406,3.9406,3.8629,3.7148,3.8673,3.9406,3.9406,3.9406,3.9406,0.0,3.9406,3.9406,3.9589,4.2011,4.3232,0.0,0.0,0.0,0.0,0.0,4.2537,4.1094,0.0,0.0,0.0,0.0,0.0,0.0,1.3665,1.345,1.384,1.549,1.8567,2.1421,2.3565,2.5774,2.711,2.711,2.4591,2.2132,2.0037,1.8681,1.9095,2.167,2.2935,2.4804,2.7406,2.8072,2.9176,3.0776,3.126,3.1763,3.2307,3.2851,3.3102,3.3102,3.3102,3.3128,3.319,3.319,3.3504,3.3985,3.3985,3.3282,3.2021,2.9779,2.871,2.8198,2.6889,2.5751,2.4881,2.4827,0.0,0.0,0.0,0.0,0.0,0.0,0.0,0.0,0.0,0.0,0.0,0.0,0.0,0.0,0.0,0.0,0.0,0.0,0.0,0.0,0.0,0.0,0.0,0.0,3.841,4.2979,4.4265,4.2896,4.1162,3.9521,4.0319,4.0692,3.9915,3.984,3.984,3.984,3.984,3.9705,3.9421,0.0,0.0,0.0,0.0,3.9406,3.9406,3.9406,3.9406,3.9406,3.9406,3.9406,3.9406,3.9406,3.9406,3.9424,3.9735,3.9862,4.0276,4.5388,4.5964,4.3348,4.0779,4.1342,4.3598,4.3598,4.3598,0.0,0.0,0.0,0.0,0.0,0.0,0.0,1.374,1.364,1.4113,1.552,1.8203,2.0652,2.242,2.4607,2.5925,2.5925,2.3788,2.1907,2.0616,2.1041,2.2008,2.3452,2.5423,2.7155,2.8568,2.9584,3.0688,3.188,3.198,3.2353,3.2939,3.3052,3.3102,3.3102,3.3102,3.3341,3.3746,3.3746,3.406,3.454,3.454,3.4236,3.3664,3.2601,3.2575,3.2675,2.9508,2.9798,3.1194,2.7811,2.7883,2.8926,2.6218,0.0,0.0,0.0,0.0,0.0,0.0,0.0,0.0,0.0,0.0,0.0,0.0,0.0,0.0,0.0,0.0,0.0,0.0,0.0,0.0,4.1499,4.4269,4.4792,4.3694,4.3803,4.3334,4.1624,4.2239,4.2722,4.2557,4.2562,4.2562,4.2562,4.2562,4.1634,3.9511,3.9406,0.0,3.9406,3.9406,3.9406,3.9406,3.9406,3.9406,3.9406,0.0,0.0,3.9406,3.9406,3.9406,3.9535,4.1803,4.2788,4.2883,4.3997,4.4111,4.3532,4.2984,4.3116,4.3598,4.3598,4.3598,4.3598,0.0,0.0,0.0,0.0,0.0,0.0,1.3715,1.3556,1.3887,1.5142,1.6961,1.8681,2.0087,2.1467,2.2182,2.192,2.0363,1.9635,2.0213,2.1294,2.3012,2.5552,2.7231,2.8731,3.0111,3.0721,3.126,3.18,3.2077,3.2353,3.2654,3.2964,3.3102,3.3102,3.3102,3.3253,3.353,3.3784,3.4223,3.4728,3.4981,3.519,3.5211,3.4248,3.4306,3.4541,3.223,3.2051,3.2533,3.0147,2.9662,2.9626,2.7133,2.5799,2.453,0.0,0.0,0.0,0.0,0.0,0.0,0.0,0.0,0.0,0.0,0.0,0.0,0.0,0.0,2.4123,0.0,0.0,3.4588,4.1004,4.4197,4.5612,4.4719,4.3881,4.3031,4.2162,4.2798,4.3145,4.2738,4.3065,4.2579,4.087,4.1122,4.0782,3.9466,3.9406,3.9406,3.9406,3.9406,3.9406,3.9406,3.9406,3.9406,3.9406,3.9406,3.9406,3.9406,3.9406,3.9406,3.9481,4.089,4.1509,4.1509,4.1509,4.1509,4.164,4.3051,4.3598,4.3598,4.3598,4.3598,4.3598,0.0,0.0,0.0,0.0,0.0,0.0,0.0,1.3476,1.3672,1.4708,1.5719,1.6699,1.7602,1.8292,1.8468,1.7916,1.7326,1.7929,2.015,2.1543,2.3944,2.7625,2.8907,3.0161,3.1524,3.1683,3.1733,3.1733,3.2164,3.2378,3.239,3.2876,3.3102,3.3102,3.3215,3.3316,3.3454,3.3985,3.4537,3.5054,3.5506,3.5968,3.6281,3.5265,3.5127,3.5376,3.4399,3.3269,3.2152,3.1897,3.0764,2.9251,2.7916,2.7392,2.6407,2.2002,2.2922,0.0,0.0,0.0,0.0,0.0,0.0,0.0,0.0,0.0,2.8128,2.8854,2.9014,3.0278,3.4385,3.5543,3.6577,3.8623,4.244,4.5264,4.5511,4.3964,4.2644,4.215,4.2677,4.2864,4.2386,4.2778,4.1711,3.8462,3.8793,3.9228,3.9388,3.9406,3.9406,3.9406,3.9406,3.9406,3.9406,3.9406,3.9406,3.9406,3.9406,3.9406,3.9406,3.9406,3.9406,3.9406,3.9406,3.9406,3.9406,3.9406,3.9406,3.9681,4.2491,4.3598,4.3598,4.3598,4.3598,4.3598,0.0,0.0,0.0,0.0,0.0,0.0,0.0,0.0,1.3877,1.4549,1.5315,1.5831,1.598,1.6947,1.7349,1.6749,1.7929,1.966,2.1882,2.3979,2.644,2.9377,3.1009,3.1918,3.2114,3.265,3.2914,3.2914,3.2977,3.3002,3.3002,3.3065,3.3102,3.3128,3.3605,3.4085,3.4552,3.5082,3.5656,3.6229,3.6268,3.6331,3.6318,3.5656,3.578,3.6117,3.5014,3.3561,3.2265,3.2773,3.2316,3.1579,3.1699,3.1101,2.9886,2.7238,0.0,2.3535,2.2165,2.1681,2.2291,2.5369,2.733,2.8622,0.0,0.0,3.283,3.6228,3.6925,3.7099,3.7665,3.9668,4.1323,4.1613,4.215,4.2919,4.4037,4.4944,4.4654,4.2368,4.2175,4.2488,4.3105,4.2596,4.1104,3.8391,3.8277,3.8645,3.9355,3.9406,3.9406,3.9406,3.9406,3.9406,3.9406,3.9406,3.9406,3.9406,3.9406,3.9406,3.9406,3.9406,3.9406,3.9406,3.9406,3.9406,3.9406,3.9406,3.9406,3.9681,4.2491,4.3598,4.3598,4.3598,4.3598,4.3598,0.0,0.0,0.0,0.0,0.0,0.0,0.0,0.0,0.0,1.3787,1.4055,1.4253,1.4253,1.4679,1.4858,1.4597,1.64,1.8631,2.1206,2.4032,2.6992,3.0131,3.1524,3.2365,3.2726,3.2977,3.3102,3.3102,3.3102,3.3266,3.3567,3.3253,3.3278,3.3592,3.3796,3.4022,3.4276,3.5132,3.5656,3.5918,3.6256,3.6193,3.5845,3.5596,3.4853,3.3809,3.2708,3.1855,0.0,0.0,2.9973,2.9985,3.1643,3.0464,2.8049,2.5965,2.5494,0.0,2.5382,2.5257,2.5533,0.0,2.9131,3.1105,3.1874,3.2861,3.4687,3.8522,3.9929,4.0466,4.0466,4.1366,4.2092,0.0,4.2092,4.2281,4.2818,4.334,4.2716,4.0133,3.9828,4.0562,4.2429,4.2304,4.1018,3.8405,3.8202,3.8352,3.8682,3.8701,3.8922,3.9388,3.9406,3.9174,3.8719,3.9174,3.9406,3.9406,3.9406,3.9406,3.9406,3.9406,3.9406,3.9406,3.9406,3.9406,3.9406,3.9406,3.9406,3.9517,4.0703,4.116,4.136,4.3005,4.3598,4.3598,0.0,0.0,0.0,0.0,0.0,0.0,0.0,0.0,0.0,0.0,1.3327,1.3198,1.3198,1.3198,1.3198,1.3198,1.4945,1.725,2.005,2.3314,2.6653,2.9986,3.1453,3.2478,3.309,3.3241,3.3253,3.3102,3.3253,3.353,3.3884,3.3504,3.3617,3.4135,3.4286,3.4327,3.4389,3.5343,3.5744,3.5769,3.6031,3.5805,3.5194,3.443,3.2972,3.1203,3.0588,2.9804,0.0,0.0,2.6874,2.6917,2.9264,2.8249,2.5944,2.4769,2.5395,2.6523,2.6846,2.7187,0.0,2.8522,3.0567,3.273,3.4167,3.5183,3.6693,3.9741,4.1091,4.1802,4.2049,4.2092,4.2092,4.2092,4.2092,4.2092,4.2092,4.2092,4.1134,3.8507,3.6954,3.7404,4.0699,4.1018,4.0234,3.8347,3.8202,3.8202,3.8202,3.8202,3.8464,3.9065,3.9083,3.8793,3.8202,3.901,3.9406,3.9406,3.9406,3.9406,3.9406,3.9406,3.9406,3.9406,3.9406,3.9406,3.9406,3.9406,3.9406,3.9406,3.9406,3.9406,3.9753,4.2553,4.3598,4.3598,0.0,0.0,0.0,0.0,0.0,0.0,0.0,0.0,0.0,0.0,0.0,0.0,0.0,1.3198,1.3198,1.3198,1.4262,1.6118,1.887,2.2182,2.5523,2.8819,3.1039,3.2478,3.309,3.3608,3.3608,3.3102,3.3608,3.3884,3.3897,3.3884,3.4173,3.4703,3.5207,3.5445,3.5483,3.6117,3.638,3.6306,3.5757,3.5194,3.4427,3.1755,3.0023,2.9082,2.9628,0.0,0.0,2.4929,2.3825,2.2771,2.4478,2.4929,0.0,2.5568,2.5323,2.4899,2.4965,0.0,2.7562,3.0625,3.1656,3.2977,3.7114,3.8725,3.9663,4.0829,4.0966,4.1096,4.1932,4.2092,4.2092,4.2092,4.2092,4.2092,4.2092,4.2092,4.1134,3.8507,3.3835,3.2804,0.0,3.8318,3.8289,3.8217,3.8202,3.8202,3.8202,3.8202,3.8202,3.824,3.824,3.8221,3.8202,3.901,3.9406,3.9406,3.9406,3.9406,3.9406,3.9406,3.9406,3.9406,3.9406,3.9406,3.9406,3.9406,3.9406,3.9406,3.9406,3.9406,3.9753,4.2553,4.3598,4.3598,0.0,0.0,0.0,0.0,0.0,0.0,0.0,0.0,0.0,0.0,0.0,0.0,0.0,0.0,0.0,0.0,1.4246,1.5764,1.7814,2.1041,2.385,2.6084,2.9019,3.0871,3.1436,3.2328,3.288,3.3102,3.3291,3.3555,3.3884,3.3542,3.3847,3.4703,3.4891,3.518,3.5508,3.5719,3.5794,3.5682,3.4424,3.3571,3.2771,3.0387,2.8104,2.6004,0.0,0.0,0.0,2.1744,2.1117,2.0927,2.2608,2.213,2.1222,2.26,2.4237,2.6052,2.8118,0.0,3.2411,3.476,3.6359,3.7825,3.9697,4.0699,4.1337,4.1686,4.17,4.1744,4.2049,4.0684,4.0075,4.1816,4.2092,4.2092,4.2092,4.0612,3.8565,3.5978,3.4167,0.0,0.0,0.0,0.0,3.8202,3.8202,3.8202,3.8202,3.8202,3.8202,3.8202,3.8202,3.8202,3.8202,3.901,3.9137,3.8608,3.9137,3.9406,3.9406,3.9406,3.9406,3.9406,3.9406,3.9406,3.9406,3.9406,3.9406,3.9406,3.9406,3.9406,3.9517,4.0445,4.0822,4.1076,0.0,0.0,0.0,0.0,0.0,0.0,0.0,0.0,0.0,0.0,0.0,0.0,0.0,0.0,0.0,0.0,0.0,1.4924,1.6405,1.9032,2.1292,2.2935,2.5661,2.7381,2.7915,2.8994,2.9654,2.9849,3.0452,3.1017,3.1537,3.1373,3.2001,3.3235,3.3445,3.3812,3.4304,3.4304,3.4091,3.3624,3.1964,3.0721,2.9591,2.7163,2.4904,0.0,0.0,0.0,1.9597,1.8882,1.8619,1.8807,1.9886,1.9939,1.9898,2.1405,2.354,2.606,2.9179,3.24,3.5386,3.7545,3.9233,4.0539,4.1279,4.1541,4.1715,4.2034,4.1715,4.1526,4.2005,3.8463,3.633,3.8928,4.0118,4.1033,4.1961,3.9842,3.7593,3.5949,3.4948,3.4397,0.0,0.0,0.0,3.813,3.8202,3.8202,3.8202,3.8202,3.8202,3.8202,3.8202,3.8202,3.8202,3.8719,3.8719,3.8202,3.9028,3.9406,3.9406,3.9406,3.9406,3.9406,3.9406,3.9406,3.9406,3.9406,3.9406,3.9406,3.9406,3.9406,3.9287,3.8344,3.8,3.8538,0.0,0.0,0.0,0.0,0.0,0.0,0.0,0.0,0.0,0.0,0.0,0.0,0.0,0.0,0.0,0.0,0.0,0.0,1.4733,1.638,1.799,1.9522,2.1241,2.242,2.2955,2.4111,2.4478,2.3988,2.5577,2.6637,2.7135,2.7645,2.8731,3.0287,3.0821,3.1336,3.1817,3.1817,3.1215,3.0111,2.8473,2.6854,2.5134,2.2412,0.0,0.0,0.0,0.0,0.0,1.6549,1.66,1.6663,1.6663,1.8579,2.1014,2.2047,2.3393,2.5246,2.8417,3.2572,3.6609,3.9044,4.0234,4.1038,4.1903,4.1445,4.1053,4.1918,4.1091,4.0423,0.0,0.0,3.1192,3.363,3.6156,3.8681,4.1149,3.9596,3.8202,0.0,0.0,0.0,0.0,0.0,0.0,3.8028,0.0,3.8202,3.8202,3.8333,3.8333,3.8202,3.8202,3.8202,3.8202,3.824,3.8258,3.8277,3.9046,3.9406,3.9406,3.9406,3.9406,3.9406,3.9406,3.9406,3.9406,3.9406,3.9406,3.9406,3.9406,3.9316,3.8898,3.64,3.5504,3.624,0.0,0.0,0.0,0.0,0.0,0.0,0.0,0.0,0.0,0.0,0.0,0.0,0.0,0.0,0.0,0.0,0.0,0.0,1.3616,1.5203,1.6319,1.6722,1.912,2.0675,2.1144,0.0,0.0,2.3842,2.4374,2.4723,2.4833,2.4983,2.5272,2.5711,2.6234,2.656,2.6686,2.6686,2.6297,2.5573,0.0,2.3512,2.2872,0.0,0.0,0.0,0.0,0.0,0.0,0.0,0.0,1.8957,1.8957,2.0582,2.2552,2.2887,2.5366,2.8754,3.2101,3.6671,4.0612,4.1265,4.1221,4.1207,4.1932,4.1445,4.1053,4.1918,4.1831,3.9349,0.0,0.0,0.0,2.8637,3.0873,0.0,3.3443,3.6231,0.0,3.8202,0.0,3.9363,3.7418,3.723,0.0,0.0,3.8202,3.8202,3.8202,4.0046,4.0205,3.826,3.8202,3.8202,3.8202,3.8793,3.9086,3.9101,3.9301,3.9406,3.9406,3.9406,3.9406,3.9406,3.9406,3.9406,3.9406,3.9406,3.9406,3.9406,3.9406,3.821,3.64,3.5759,3.5504,3.5708,0.0,0.0,0.0,0.0,0.0,0.0,0.0,0.0,0.0,0.0,0.0,0.0,0.0,0.0,0.0,0.0,0.0,0.0,0.0,1.408,1.4594,1.4594,1.6084,1.7152,1.7681,1.8656,0.0,0.0,0.0,0.0,2.0701,2.0978,2.1355,2.183,2.237,2.2746,2.3,2.3,0.0,0.0,0.0,0.0,0.0,0.0,0.0,0.0,0.0,0.0,0.0,0.0,0.0,2.1416,2.2437,2.3753,2.4964,2.5088,0.0,3.2319,3.4472,3.8757,4.2542,4.2179,4.1816,4.1482,4.1265,4.0829,4.0786,4.1874,4.1192,0.0,2.6969,0.0,0.0,0.0,0.0,0.0,3.3937,3.7375,3.9479,0.0,3.9494,0.0,3.9944,3.9915,3.9915,0.0,3.9915,3.9915,3.9915,4.1294,4.1424,3.9958,3.9915,4.0076,4.0434,3.9739,3.9406,3.9406,3.9406,3.9406,3.9406,3.9406,3.9406,3.9406,0.0,3.9406,3.9406,3.9406,3.9406,3.9406,3.9406,3.7791,3.5504,3.5504,3.5504,3.5504,0.0,0.0,0.0,0.0,0.0,0.0,0.0,0.0,0.0,0.0,0.0,0.0,0.0,0.0,0.0,0.0,0.0,0.0,0.0,0.0,0.0,0.0,1.3282,1.355,1.4054,0.0,0.0,0.0,0.0,0.0,0.0,0.0,0.0,0.0,0.0,0.0,0.0,0.0,0.0,0.0,0.0,0.0,0.0,0.0,0.0,0.0,0.0,0.0,0.0,0.0,2.281,2.398,2.6139,2.745,2.8226,2.842,3.1487,3.5187,3.6777,4.0122,4.2977,4.2266,4.2092,4.1802,4.0626,4.0104,3.9784,3.9596,0.0,3.3454,2.4537,2.3189,2.5825,3.3207,0.0,3.8202,3.8202,4.0147,4.0742,3.8463,3.8202,3.9233,4.1845,4.2092,4.2092,4.2092,4.2092,4.2092,4.2092,4.2092,4.2092,4.2092,4.2092,4.2272,4.2609,4.0379,3.9247,3.9247,3.9352,3.9406,3.9406,3.9406,3.9406,3.9406,0.0,0.0,3.9406,3.9406,3.9406,3.9406,3.9406,3.7791,3.5504,3.5504,3.5712,3.5967,0.0,0.0,0.0,0.0,0.0,0.0,0.0,0.0,0.0,0.0,0.0,0.0,0.0,0.0,0.0,0.0,0.0,0.0,0.0,0.0,0.0,0.0,1.3681,1.3939,1.3933,0.0,0.0,0.0,0.0,0.0,0.0,0.0,0.0,0.0,0.0,0.0,0.0,0.0,0.0,0.0,0.0,0.0,0.0,0.0,0.0,0.0,0.0,0.0,0.0,0.0,2.5893,2.6502,2.7999,3.0529,3.2942,3.3025,3.3224,3.5015,4.2216,4.3249,4.2266,4.2121,4.2092,4.2034,4.1802,4.0075,0.0,0.0,2.587,2.5015,2.3232,2.4677,2.794,3.3514,3.6548,3.8202,0.0,0.0,3.871,0.0,0.0,0.0,0.0,0.0,0.0,0.0,0.0,4.2092,4.2092,4.2092,4.2092,4.2092,4.2092,4.1128,3.9094,3.8627,3.8408,3.8422,3.9068,3.9406,3.9406,3.9406,3.9406,3.9406,0.0,0.0,3.9406,3.9406,3.9406,3.9406,3.9406,3.7791,3.5504,3.5504,3.6864,3.8419,0.0,0.0,0.0,0.0,0.0,0.0,0.0,0.0,0.0,0.0,1.6304,1.5399,0.0,0.0,0.0,0.0,0.0,0.0,0.0,0.0,0.0,0.0,0.0,0.0,0.0,0.0,0.0,0.0,0.0,0.0,0.0,0.0,0.0,0.0,0.0,0.0,0.0,0.0,0.0,0.0,0.0,0.0,0.0,0.0,0.0,0.0,0.0,0.0,0.0,0.0,2.4008,2.7604,2.8959,3.1987,3.5156,3.579,3.6356,3.7836,4.2632,4.3993,4.3587,4.1555,4.0249,3.8855,3.6624,0.0,0.0,0.0,2.2888,2.2888,2.2888,2.504,0.0,3.0045,3.032,3.1641,3.5659,0.0,0.0,0.0,0.0,0.0,0.0,0.0,0.0,0.0,0.0,0.0,4.2092,4.2092,4.2092,4.2092,4.2092,4.0844,3.8231,3.8202,3.8202,3.8202,3.9028,3.9406,3.9406,3.9406,3.9406,3.9406,3.9406,0.0,3.9406,3.9406,3.9406,3.9406,3.9406,3.7791,3.5504,3.5504,3.7148,3.9032,0.0,0.0,0.0,0.0,0.0,0.0,0.0,1.6654,1.6843,1.8033,1.7743,1.6832,1.5294,1.4532,0.0,0.0,0.0,0.0,0.0,0.0,0.0,0.0,0.0,0.0,0.0,0.0,0.0,0.0,0.0,0.0,0.0,0.0,0.0,0.0,0.0,0.0,0.0,0.0,0.0,0.0,0.0,0.0,0.0,0.0,0.0,0.0,0.0,0.0,0.0,0.0,2.1522,2.6453,2.8658,3.2508,3.6311,3.6931,3.8891,4.1104,4.2167,4.4145,4.5046,4.1424,3.826,3.4936,3.0742,2.62,0.0,2.2888,2.2888,2.3073,2.3624,0.0,2.6153,0.0,2.5313,2.597,3.1205,3.5543,0.0,0.0,0.0,0.0,0.0,0.0,0.0,0.0,0.0,0.0,4.2092,4.2092,4.2092,4.2092,4.2092,4.0844,3.8231,3.8202,3.8202,3.8202,3.883,3.9228,3.9388,3.9228,3.9228,3.9406,3.9406,0.0,0.0,3.9406,3.9406,3.9406,3.9406,3.7791,3.5579,3.6133,3.7642,3.9107,0.0,0.0,0.0,0.0,0.0,0.0,0.0,1.6756,1.7365,1.8091,1.8158,1.7703,1.6638,1.5924,0.0,0.0,0.0,0.0,0.0,0.0,0.0,0.0,0.0,0.0,0.0,0.0,0.0,0.0,0.0,0.0,0.0,0.0,0.0,0.0,0.0,0.0,0.0,0.0,0.0,0.0,0.0,0.0,0.0,0.0,0.0,0.0,0.0,0.0,0.0,0.0,0.0,2.1335,2.6387,3.2199,3.6958,3.585,0.0,0.0,4.3522,4.4764,4.5242,4.2571,3.7389,3.1887,2.8041,0.0,2.2888,2.2888,2.2888,2.3635,2.5995,0.0,0.0,0.0,0.0,2.7186,2.4348,3.2177,3.8202,0.0,0.0,0.0,0.0,0.0,0.0,0.0,0.0,0.0,0.0,4.2092,4.2092,4.2092,4.2092,4.0844,3.8231,3.8202,3.8202,3.8202,3.8277,3.8701,3.9388,3.8645,3.8719,3.9406,0.0,0.0,0.0,3.9406,3.9406,3.9406,3.9406,3.7791,3.5789,3.8165,3.9197,3.9376,0.0,0.0,0.0,0.0,0.0,0.0,0.0,1.6683,1.7104,1.855,1.8433,1.8046,1.7648,1.7004,1.592,0.0,0.0,0.0,0.0,0.0,0.0,0.0,0.0,0.0,0.0,0.0,0.0,0.0,0.0,0.0,0.0,0.0,0.0,0.0,0.0,0.0,0.0,0.0,0.0,0.0,0.0,0.0,0.0,0.0,0.0,0.0,0.0,0.0,1.8335,0.0,0.0,0.0,2.3927,2.791,0.0,0.0,3.8478,4.2843,4.3977,4.5055,4.5155,4.2078,3.8028,3.3643,2.9305,0.0,2.4808,2.3218,2.2888,2.3218,2.4259,2.488,0.0,0.0,0.0,0.0,2.7534,2.8376,3.1873,0.0,0.0,0.0,0.0,0.0,0.0,0.0,0.0,0.0,0.0,4.2092,4.1381,3.9799,3.9755,3.9247,3.8217,3.8202,3.8202,3.8202,3.8202,3.8371,3.8682,3.8352,3.8645,3.9406,0.0,0.0,0.0,3.9406,3.9406,3.9406,3.9406,3.8763,3.7971,3.9017,3.9406,3.9406,0.0,0.0,0.0,0.0,0.0,0.0,1.6742,1.6843,1.7206,1.8381,1.8506,1.8323,1.7954,1.7307,1.6373,1.5093,0.0,0.0,0.0,0.0,0.0,0.0,0.0,0.0,0.0,0.0,0.0,0.0,0.0,0.0,0.0,0.0,0.0,0.0,0.0,0.0,0.0,0.0,0.0,0.0,0.0,0.0,0.0,0.0,0.0,0.0,0.0,0.0,0.0,0.0,0.0,0.0,0.0,0.0,0.0,0.0,3.6214,4.0684,4.2078,4.3587,4.4095,4.13,3.8144,3.469,0.0,0.0,2.5577,2.3363,2.2888,2.2888,2.2888,2.4389,2.5299,0.0,0.0,2.7431,2.9218,2.6997,2.8536,0.0,0.0,0.0,0.0,0.0,0.0,0.0,0.0,0.0,0.0,4.1366,4.0104,3.826,3.8202,3.8202,3.8202,3.8202,3.8202,3.8202,3.8202,3.8202,3.8202,3.8202,3.8516,3.9065,0.0,0.0,0.0,3.9406,3.9406,3.9406,3.9406,3.9406,3.9406,3.9406,3.9406,3.9406,0.0,0.0,0.0,0.0,0.0,0.0,0.0,1.7336,1.7954,1.7293,1.8317,1.8608,1.7359,1.6611,1.6314,1.654,0.0,0.0,0.0,0.0,0.0,0.0,0.0,0.0,0.0,0.0,0.0,0.0,0.0,0.0,0.0,0.0,0.0,0.0,0.0,0.0,0.0,0.0,0.0,0.0,0.0,0.0,0.0,0.0,0.0,0.0,0.0,0.0,0.0,0.0,0.0,0.0,0.0,2.1921,2.358,2.6825,3.1844,3.6519,3.7201,3.9712,4.1802,4.0437,3.7244,3.3761,0.0,0.0,2.445,2.3174,2.2888,2.2888,2.2888,2.2917,2.378,2.6342,2.6778,0.0,2.6836,2.8956,0.0,0.0,0.0,0.0,0.0,0.0,0.0,0.0,0.0,0.0,0.0,3.9654,3.8231,3.8202,3.8202,3.8202,3.8202,3.8202,3.8202,3.8202,3.8202,3.8202,3.8202,3.8202,3.8202,0.0,0.0,0.0,0.0,3.9406,3.9406,3.9406,3.9406,3.9406,3.9406,3.9406,3.9406,3.9406,0.0,0.0,0.0,0.0,0.0,0.0,0.0,1.5958,1.6292,1.6495,1.6872,1.7142,1.7191,1.6596,1.6416,1.6953,0.0,0.0,0.0,0.0,0.0,0.0,0.0,0.0,0.0,0.0,0.0,1.4906,1.3763,0.0,0.0,0.0,0.0,0.0,0.0,0.0,0.0,0.0,0.0,0.0,0.0,0.0,0.0,0.0,0.0,0.0,0.0,0.0,0.0,0.0,0.0,0.0,0.0,0.0,0.0,2.2947,2.7461,3.196,3.3033,3.505,3.6431,3.4658,3.2353,3.0074,2.8404,2.5664,2.3392,2.2986,2.1518,2.0837,2.258,2.2888,2.3174,2.3998,2.5633,0.0,0.0,0.0,0.0,0.0,0.0,0.0,0.0,0.0,0.0,0.0,0.0,0.0,0.0,3.8652,3.8202,3.8202,3.8202,3.8202,3.8202,3.8202,3.8202,3.8202,3.8202,3.8202,3.8202,3.8202,0.0,0.0,0.0,0.0,0.0,3.859,3.859,3.859,3.859,3.859,3.8645,3.9192,3.9406,3.9406,0.0,0.0,0.0,0.0,0.0,0.0,0.0,1.5581,1.5806,1.5857,1.6155,1.6387,1.6466,1.6103,1.6161,1.6909,0.0,0.0,0.0,0.0,0.0,0.0,0.0,0.0,0.0,0.0,0.0,1.5502,1.4782,1.4447,1.4447,1.4447,0.0,0.0,0.0,0.0,0.0,0.0,0.0,0.0,0.0,0.0,1.4037,0.0,0.0,0.0,0.0,0.0,0.0,0.0,0.0,0.0,0.0,0.0,0.0,0.0,2.3586,2.6853,2.9102,3.0611,3.125,3.0031,2.9319,0.0,0.0,2.5546,2.4085,2.3091,2.0866,1.9585,2.117,2.2247,2.2888,2.2888,2.5908,0.0,0.0,0.0,0.0,0.0,0.0,0.0,0.0,0.0,0.0,0.0,0.0,0.0,0.0,0.0,3.8202,3.8202,3.8202,3.8202,3.8202,3.8202,3.8202,3.8202,3.8202,3.8202,3.8202,3.8202,0.0,0.0,0.0,0.0,0.0,3.8202,3.8202,3.8202,3.8202,3.8202,3.8258,3.8756,3.894,3.8995,0.0,0.0,0.0,0.0,0.0,0.0,0.0,0.0,0.0,0.0,1.5995,1.62,1.5392,1.5298,1.5632,0.0,0.0,0.0,0.0,0.0,0.0,0.0,0.0,0.0,0.0,1.3198,1.4337,1.668,1.6877,1.7051,1.7226,1.6865,1.5685,0.0,0.0,0.0,0.0,0.0,0.0,0.0,1.5298,1.5298,0.0,0.0,0.0,0.0,0.0,0.0,0.0,0.0,0.0,0.0,0.0,0.0,0.0,0.0,0.0,0.0,0.0,2.6342,2.6429,2.64,2.7563,2.8303,2.6749,2.6458,0.0,2.3406,2.0866,1.9101,1.9101,2.1025,2.2685,2.287,2.6924,0.0,0.0,0.0,0.0,0.0,0.0,0.0,0.0,0.0,0.0,0.0,0.0,0.0,0.0,0.0,3.8202,3.8202,3.8202,3.8202,3.8202,3.8202,3.8202,3.8202,3.8202,3.8202,3.8202,3.8202,0.0,0.0,0.0,0.0,0.0,3.8202,3.8202,3.8202,3.8202,3.8202,3.8202,3.8202,3.8202,3.8315,0.0,0.0,0.0,0.0,0.0,0.0,0.0,0.0,0.0,0.0,0.0,1.5531,1.5312,1.5298,0.0,0.0,0.0,0.0,0.0,0.0,0.0,0.0,0.0,0.0,0.0,1.3198,1.4944,1.849,2.0447,2.2409,2.428,2.0341,1.9244,2.055,1.8921,0.0,0.0,0.0,0.0,0.0,1.5298,1.5298,0.0,0.0,0.0,0.0,1.698,1.7574,0.0,0.0,0.0,0.0,0.0,0.0,0.0,0.0,1.9435,1.9754,2.0654,0.0,2.2813,2.245,2.2668,2.2846,0.0,0.0,0.0,0.0,0.0,1.9101,1.9101,1.9585,2.0634,2.2569,2.3914,2.5417,0.0,0.0,0.0,0.0,0.0,0.0,0.0,0.0,0.0,0.0,0.0,0.0,0.0,0.0,3.8202,3.8202,3.8202,3.8202,3.8202,3.8202,3.8202,3.8202,3.8202,3.8202,3.8202,3.8202,0.0,0.0,0.0,0.0,3.8202,3.8202,3.8202,3.8202,3.8202,3.8202,3.8202,3.8202,3.8202,3.8315,0.0,0.0,0.0,0.0,0.0,0.0,0.0,0.0,0.0,0.0,0.0,0.0,0.0,0.0,0.0,0.0,0.0,0.0,0.0,0.0,0.0,0.0,0.0,0.0,0.0,1.5305,1.6958,1.9101,2.0484,2.2475,2.4982,2.3383,2.3368,2.4532,2.077,1.726,1.4292,1.622,1.6379,1.5298,1.5298,0.0,0.0,0.0,0.0,0.0,1.6785,1.7342,0.0,1.841,1.886,1.9101,0.0,0.0,0.0,0.0,1.9101,1.9101,1.9101,2.0229,2.1187,2.0335,2.0577,2.0853,2.0262,0.0,0.0,0.0,0.0,1.9101,1.9101,2.1042,2.2701,2.287,2.3911,0.0,0.0,0.0,0.0,0.0,0.0,0.0,0.0,0.0,0.0,0.0,0.0,0.0,0.0,0.0,3.8202,3.8202,3.8202,3.8202,3.8202,3.8202,3.8202,3.8202,3.8202,3.8202,3.8202,3.8202,0.0,0.0,0.0,0.0,3.8202,3.8202,3.8202,3.8202,3.8202,3.8202,3.8202,3.8202,3.8202,3.8315,0.0,0.0,0.0,0.0,0.0,0.0,0.0,0.0,0.0,0.0,0.0,0.0,0.0,0.0,0.0,0.0,0.0,0.0,0.0,0.0,0.0,0.0,0.0,0.0,1.5312,1.7795,1.9101,1.9101,1.9483,2.0779,2.2957,2.5575,2.6371,2.5427,2.1046,1.7902,1.6023,1.8178,1.7635,1.5327,1.5718,0.0,0.0,0.0,0.0,0.0,0.0,0.0,0.0,1.8053,1.8511,1.8918,1.9058,0.0,0.0,0.0,0.0,0.0,1.9101,2.0306,2.1278,1.9991,2.0484,2.1017,1.9928,0.0,0.0,0.0,0.0,0.0,1.9174,2.2991,0.0,0.0,0.0,0.0,0.0,0.0,0.0,0.0,0.0,0.0,0.0,0.0,0.0,0.0,0.0,0.0,0.0,0.0,0.0,3.8202,3.8202,3.8202,3.8202,3.8202,3.8202,3.8202,3.8202,3.8202,3.8202,3.8202,3.8202,0.0,0.0,0.0,3.8202,3.8202,3.8202,3.8202,3.8202,3.8202,3.8202,3.8202,3.8277,3.8482,0.0,0.0,0.0,0.0,0.0,0.0,0.0,0.0,0.0,0.0,0.0,0.0,0.0,0.0,0.0,0.0,0.0,0.0,0.0,0.0,0.0,0.0,0.0,1.7519,1.5349,1.7795,1.9101,1.9101,2.1257,2.2522,2.2957,2.5575,2.4469,2.0248,1.9449,1.8874,1.855,1.8927,1.7635,1.5494,1.765,0.0,0.0,0.0,0.0,0.0,0.0,0.0,0.0,1.7801,1.8111,1.8131,1.886,0.0,0.0,0.0,0.0,0.0,1.9101,2.1601,2.3899,2.2638,2.2464,2.2566,2.2363,2.0648,0.0,0.0,0.0,0.0,0.0,2.1504,2.4085,0.0,0.0,0.0,0.0,0.0,0.0,0.0,0.0,0.0,0.0,0.0,0.0,0.0,0.0,0.0,0.0,0.0,0.0,3.8202,3.8202,3.8202,3.8202,3.8202,3.8202,3.8202,3.8202,3.8202,3.8202,3.8202,3.8202,0.0,0.0,3.8202,3.8202,3.8202,3.8202,3.8202,3.8202,3.8202,3.8202,3.8202,3.8631,3.9228,0.0,0.0,0.0,0.0,0.0,0.0,0.0,0.0,0.0,0.0,0.0,0.0,0.0,0.0,0.0,0.0,0.0,0.0,0.0,0.0,0.0,0.0,1.7737,1.855,1.738,1.8506,1.9101,1.9101,2.0281,2.298,2.7026,2.5446,2.3429,2.1098,1.9716,1.9101,1.9101,1.9101,1.8424,1.7452,0.0,0.0,0.0,0.0,0.0,0.0,0.0,0.0,0.0,0.0,1.8033,1.856,1.897,0.0,0.0,0.0,0.0,0.0,1.9101,2.0876,2.311,2.4634,2.3954,2.2888,2.2888,2.1986,0.0,0.0,0.0,0.0,0.0,0.0,0.0,0.0,0.0,0.0,0.0,0.0,0.0,0.0,0.0,0.0,0.0,0.0,0.0,0.0,0.0,0.0,0.0,0.0,0.0,0.0,3.8202,3.8202,3.8202,3.8202,3.8202,3.8202,3.8202,3.8202,3.8202,3.8202,3.8202,3.8202,0.0,3.8202,3.8202,3.8202,3.8202,3.8202,3.8202,3.8202,3.8202,3.8202,3.8719,3.9406,0.0,0.0,0.0,0.0,0.0,0.0,0.0,0.0,0.0,0.0,0.0,0.0,0.0,0.0,0.0,0.0,0.0,0.0,0.0,0.0,1.5298,1.5298,1.8613,2.003,1.9116,1.9977,2.0586,2.0901,2.1496,2.4513,2.961,2.504,2.2569,2.1914,1.9977,1.9101,1.9101,1.9101,1.9101,1.9101,0.0,0.0,0.0,0.0,0.0,0.0,0.0,0.0,0.0,0.0,0.0,0.0,0.0,0.0,0.0,1.9101,1.9101,1.9101,1.9101,2.049,2.2541,2.5212,2.3937,2.216,2.2769,2.3363,0.0,0.0,0.0,0.0,0.0,0.0,0.0,0.0,0.0,0.0,0.0,0.0,0.0,0.0,0.0,0.0,0.0,0.0,0.0,0.0,0.0,0.0,0.0,0.0,0.0,0.0,3.8202,3.8202,3.8202,3.8202,3.8202,3.8202,3.8202,3.8202,3.8202,3.8202,3.8202,3.8202,3.8202,3.8202,3.8202,3.8202,3.8202,3.8202,3.8202,3.8202,3.8221,3.8408,3.8867,3.9406,0.0,0.0,0.0,0.0,0.0,0.0,0.0,0.0,0.0,0.0,0.0,0.0,0.0,0.0,0.0,0.0,0.0,0.0,0.0,0.0,1.5298,1.5298,2.1191,2.2788,1.9174,2.2577,2.4996,2.6241,2.8608,2.8854,2.701,2.4201,2.1638,1.9362,1.9179,1.9101,1.9101,1.9101,1.9101,1.9101,1.9101,0.0,0.0,0.0,0.0,0.0,0.0,0.0,0.0,0.0,0.0,0.0,0.0,0.0,1.9101,1.9101,1.9101,1.9101,1.9101,2.1801,2.4384,2.3421,2.1257,1.9991,2.2363,2.4779,0.0,2.6517,0.0,0.0,0.0,0.0,0.0,0.0,0.0,0.0,0.0,0.0,0.0,0.0,0.0,0.0,0.0,0.0,0.0,0.0,0.0,0.0,0.0,0.0,0.0,0.0,0.0,3.8202,3.8202,3.8202,3.8202,3.8202,3.8202,3.8202,3.8202,3.8202,3.8202,3.8202,3.8202,3.8202,3.8202,3.8202,3.8202,3.8202,3.8202,3.8202,3.8296,3.9046,3.9337,3.9406,0.0,0.0,0.0,0.0,0.0,0.0,0.0,0.0,0.0,0.0,0.0,0.0,0.0,0.0,0.0,0.0,0.0,0.0,0.0,0.0,1.7655,1.7655,2.0741,2.1419,1.9145,2.3122,2.6531,2.9159,3.0133,2.9305,2.6734,2.4128,2.1537,1.9101,1.9101,1.9101,1.9101,1.9101,1.9101,1.9101,1.9101,1.9101,0.0,0.0,0.0,0.0,0.0,0.0,0.0,0.0,1.8279,1.8477,1.8941,1.9101,1.9101,1.9101,1.9101,1.9101,1.9101,2.0175,2.1554,2.2624,2.2174,0.0,0.0,2.7362,3.1526,3.1526,3.1526,0.0,0.0,0.0,0.0,0.0,0.0,0.0,0.0,0.0,0.0,0.0,0.0,0.0,0.0,0.0,0.0,0.0,0.0,0.0,0.0,0.0,0.0,0.0,0.0,3.6606,3.8188,3.8202,3.8202,3.8202,3.8202,3.8202,3.8202,3.8202,3.8202,3.8202,3.8202,3.8202,3.8202,3.8202,3.8202,3.8202,3.8202,3.7517,3.6561,3.6867,3.8,3.9406,0.0,0.0,0.0,0.0,0.0,0.0,0.0,0.0,0.0,0.0,0.0,0.0,0.0,0.0,0.0,0.0,0.0,0.0,0.0,1.693,1.8259,1.9058,1.9943,2.0364,2.03,2.3725,2.7169,3.0598,2.9784,2.8085,2.5531,2.3737,2.1537,1.9101,1.9101,1.9101,1.9101,1.9101,1.9101,1.9101,1.9101,1.9101,0.0,0.0,0.0,0.0,0.0,0.0,0.0,0.0,1.8767,1.9101,1.9101,1.9101,1.9101,1.9101,1.9101,1.9101,1.9101,1.9101,2.0093,2.4285,0.0,0.0,2.394,2.9464,3.4629,3.5427,3.4948,0.0,0.0,0.0,0.0,0.0,0.0,0.0,0.0,0.0,0.0,0.0,0.0,0.0,0.0,0.0,0.0,0.0,0.0,0.0,0.0,0.0,0.0,0.0,0.0,3.563,3.6997,3.7012,3.7012,3.7012,3.7012,3.7418,3.8202,3.8202,3.8202,3.8202,3.8202,3.8202,3.8144,3.7331,3.7012,3.7012,3.7012,3.6251,3.5146,3.5146,3.6945,3.9406,0.0,0.0,0.0,0.0,0.0,0.0,0.0,0.0,0.0,0.0,0.0,0.0,0.0,0.0,0.0,0.0,0.0,0.0,0.0,1.5298,1.6437,1.8985,1.9101,2.0281,2.2801,2.4571,2.7125,3.0598,2.8012,2.5444,2.2888,2.2885,2.1522,1.9145,1.9159,1.9159,1.913,1.9116,1.9101,1.9101,1.9101,1.9101,1.9101,0.0,0.0,0.0,0.0,0.0,0.0,0.0,1.9101,1.9101,1.9101,1.9116,1.9116,1.9101,1.9116,1.9116,1.9116,1.9116,2.0944,0.0,0.0,0.0,2.617,3.0713,3.5122,3.768,0.0,3.4412,0.0,0.0,0.0,0.0,0.0,0.0,0.0,0.0,0.0,0.0,0.0,0.0,0.0,0.0,0.0,0.0,0.0,0.0,0.0,0.0,0.0,0.0,0.0,0.0,3.4412,3.4397,3.4397,3.4397,3.4397,3.5735,3.8159,3.8159,3.8159,3.8159,3.8159,3.8159,3.797,3.5427,3.4397,3.4397,3.4397,3.4397,3.4397,3.4414,3.6516,3.9343,0.0,0.0,0.0,0.0,0.0,0.0,0.0,0.0,0.0,0.0,0.0,0.0,0.0,0.0,0.0,0.0,0.0,0.0,0.0,1.5298,1.6437,1.8985,1.9101,1.9454,2.0209,2.0727,2.4149,3.0598,2.6213,2.3664,2.287,2.1069,2.0779,2.1841,0.0,2.3499,2.1663,1.9861,1.9101,1.9101,1.9101,1.9101,1.9101,0.0,0.0,0.0,0.0,0.0,0.0,0.0,0.0,0.0,1.9101,1.9512,1.989,1.928,1.9527,2.0078,2.0364,1.9783,0.0,2.4157,0.0,0.0,0.0,2.9421,0.0,0.0,0.0,0.0,0.0,0.0,0.0,0.0,0.0,0.0,0.0,0.0,0.0,0.0,0.0,0.0,0.0,0.0,0.0,0.0,0.0,0.0,0.0,0.0,0.0,0.0,3.5151,3.4774,3.4397,3.4397,3.4397,3.4397,3.4397,3.4806,3.5529,3.5529,3.5529,3.5529,3.5529,3.5529,3.5471,3.4702,3.4397,3.4397,3.4397,3.4397,3.4465,3.4966,3.5484,3.5962,0.0,0.0,0.0,0.0,0.0,0.0,0.0,0.0,0.0,0.0,1.5602,0.0,0.0,0.0,0.0,0.0,0.0,0.0,0.0,0.0,1.5987,1.7525,1.7583,1.8071,1.9087,2.0093,2.2396,2.6023,2.2922,2.1388,2.1388,2.0851,2.1982,2.4462,0.0,2.4375,2.2728,2.018,1.9101,1.9101,1.9101,1.9101,1.9101,0.0,0.0,0.0,0.0,0.0,0.0,0.0,0.0,0.0,1.9101,1.9464,1.9846,1.9672,1.9745,1.9933,2.0175,2.0045,0.0,2.3241,2.6141,2.8433,2.8884,0.0,0.0,0.0,0.0,0.0,0.0,0.0,0.0,0.0,0.0,0.0,0.0,0.0,0.0,0.0,0.0,0.0,0.0,0.0,0.0,0.0,0.0,0.0,0.0,0.0,0.0,0.0,3.4397,3.4397,3.4397,3.4397,3.4397,3.4397,3.4397,3.4397,3.4397,3.4397,3.4397,3.4397,3.4397,3.4397,3.4397,3.4397,3.4397,3.4397,3.4397,3.4397,3.4448,3.4898,3.4981,3.49,0.0,0.0,0.0,0.0,0.0,0.0,0.0,0.0,0.0,0.0,1.614,1.5392,0.0,0.0,0.0,0.0,0.0,0.0,0.0,0.0,1.5653,1.5653,1.5653,1.6727,1.9043,2.1373,2.1421,1.9101,1.9101,1.9101,1.9159,2.1721,2.4418,2.7039,0.0,2.3464,2.3073,2.0281,1.9101,1.9116,1.9348,1.9304,1.9101,1.9101,0.0,0.0,0.0,0.0,0.0,0.0,0.0,0.0,1.9101,1.9159,1.9362,2.0078,1.9803,1.9275,1.9275,2.0388,0.0,2.4641,2.8288,0.0,3.7143,0.0,0.0,0.0,0.0,0.0,0.0,0.0,0.0,0.0,0.0,0.0,0.0,0.0,0.0,0.0,0.0,0.0,0.0,0.0,0.0,0.0,0.0,0.0,0.0,0.0,0.0,0.0,3.4397,3.4397,3.4397,3.4397,3.4281,0.0,3.4049,3.4049,3.4049,3.4281,3.4397,3.4397,3.4397,3.4397,3.4397,3.4397,3.4397,3.4397,3.4397,3.4397,3.4397,3.4397,3.4817,3.5407,0.0,0.0,0.0,0.0,0.0,0.0,0.0,0.0,0.0,0.0,0.0,0.0,0.0,0.0,0.0,0.0,0.0,0.0,0.0,0.0,1.8279,1.8279,1.8279,1.855,1.9087,1.9638,1.9643,1.9101,1.9101,1.9101,0.0,0.0,0.0,2.9769,0.0,2.7838,2.5662,2.1046,1.9101,1.9275,2.1286,2.088,1.9101,1.9101,1.9101,0.0,0.0,0.0,0.0,0.0,0.0,0.0,1.9101,1.958,2.002,1.9537,1.9957,2.0582,2.0582,2.3017,0.0,0.0,3.0059,3.6852,3.7955,3.7346,0.0,0.0,0.0,0.0,0.0,0.0,0.0,0.0,0.0,0.0,0.0,0.0,0.0,0.0,0.0,0.0,0.0,0.0,0.0,0.0,0.0,0.0,0.0,0.0,0.0,3.4397,3.4397,3.4397,3.4397,3.4397,3.3398,0.0,3.141,3.141,3.1483,3.3499,3.4397,3.4397,3.4397,3.4397,3.4397,3.4397,3.4397,3.4397,3.4397,3.4397,3.4397,3.4397,3.4498,3.4716,0.0,0.0,0.0,0.0,0.0,0.0,0.0,0.0,0.0,0.0,0.0,0.0,0.0,0.0,0.0,0.0,0.0,0.0,0.0,0.0,0.0,0.0,1.9101,1.9101,1.9101,2.0296,2.0315,1.9101,1.9101,0.0,0.0,0.0,0.0,3.0554,0.0,2.6662,2.2944,2.0233,1.9101,1.9217,2.0557,2.0296,1.9101,1.9101,1.9101,1.9101,1.9101,0.0,0.0,0.0,0.0,0.0,0.0,0.0,1.9687,1.9232,1.9566,2.0088,2.0088,0.0,0.0,2.7001,0.0,3.6707,3.7926,3.8202,0.0,0.0,0.0,0.0,0.0,0.0,0.0,0.0,0.0,0.0,0.0,0.0,0.0,0.0,0.0,0.0,0.0,0.0,0.0,0.0,0.0,0.0,0.0,3.4397,3.3831,3.2614,3.2571,3.2571,3.2571,3.2571,3.1919,3.0598,3.0598,3.0598,3.0656,3.1977,3.2571,3.2571,3.2571,3.3267,3.4397,3.4397,3.4397,3.4397,3.4397,3.4397,3.4397,3.4397,3.4397,3.4515,0.0,0.0,0.0,0.0,0.0,0.0,0.0,0.0,0.0,0.0,0.0,0.0,0.0,0.0,0.0,0.0,0.0,0.0,0.0,0.0,0.0,0.0,1.9101,1.9101,1.9101,2.117,2.1214,1.9101,0.0,0.0,0.0,0.0,0.0,2.9174,0.0,2.3499,1.9101,1.9101,1.9101,1.9101,1.9101,1.9101,1.9101,1.9101,1.9101,1.9101,1.9101,1.9101,1.9101,1.9101,0.0,0.0,0.0,0.0,1.9101,1.9101,1.9101,1.9101,1.9101,0.0,2.3063,3.1268,3.4207,0.0,3.7172,3.7549,0.0,0.0,0.0,0.0,0.0,0.0,0.0,0.0,0.0,0.0,0.0,0.0,0.0,0.0,0.0,0.0,0.0,0.0,0.0,0.0,0.0,0.0,3.4397,3.3976,3.2774,3.067,3.0598,3.0598,3.0598,3.0598,3.0598,3.0598,3.0598,3.0598,3.0598,3.0598,3.0598,3.0598,3.0598,3.1802,3.373,3.373,3.4008,3.4397,3.4397,3.4397,3.4397,3.4397,3.4397,3.4498,0.0,0.0,0.0,0.0,0.0,0.0,0.0,0.0,0.0,0.0,1.9101,0.0,0.0,0.0,0.0,0.0,0.0,0.0,1.9101,0.0,0.0,1.9101,1.9101,1.9101,1.9101,1.9425,1.9449,1.9101,0.0,0.0,0.0,0.0,0.0,2.3899,0.0,2.1808,1.9101,1.9101,1.9101,1.9101,1.9101,1.9101,1.9101,1.9101,1.9101,1.9101,1.9101,1.9101,1.9101,1.9101,1.9101,0.0,0.0,0.0,1.9101,1.9101,1.9101,1.9101,1.9101,0.0,2.9898,0.0,3.5978,3.7201,0.0,0.0,0.0,0.0,0.0,0.0,0.0,0.0,0.0,0.0,0.0,0.0,0.0,0.0,0.0,0.0,0.0,0.0,0.0,0.0,0.0,0.0,0.0,0.0,3.4397,3.2311,3.0961,3.0612,3.0598,3.0598,3.0598,3.0598,3.0598,3.0598,3.0598,3.0598,3.0598,3.0598,3.0598,3.0598,3.0598,3.0786,3.1105,3.1105,3.2411,3.4397,3.4397,3.4397,3.4397,3.4397,3.4397,3.4414,0.0,0.0,0.0,0.0,0.0,0.0,0.0,0.0,0.0,0.0,0.0,1.9101,0.0,0.0,0.0,1.9101,1.9101,1.9101,1.9101,1.9101,1.9101,1.9101,1.9101,1.9101,1.9101,1.9101,1.9101,0.0,0.0,0.0,0.0,2.533,2.6447,0.0,0.0,0.0,0.0,1.9701,1.9101,1.9101,1.9101,1.9101,1.9101,1.9101,1.9101,1.9101,0.0,0.0,1.9101,1.9101,1.9101,1.9101,1.9101,0.0,0.0,0.0,1.9101,1.9101,1.9101,2.3685,2.9072,0.0,3.4182,3.5793,3.4658,0.0,0.0,0.0,0.0,0.0,0.0,0.0,0.0,0.0,0.0,0.0,0.0,0.0,0.0,0.0,0.0,0.0,0.0,0.0,0.0,0.0,0.0,3.379,3.2354,3.1207,3.0598,3.0598,3.0598,3.0598,3.0598,3.0598,3.0598,3.0598,3.0598,3.0598,3.0598,3.0598,3.0598,3.0598,3.0598,3.0598,3.0598,3.0598,3.1251,3.2282,3.2282,3.3137,3.4397,3.4397,3.4397,3.4397,0.0,0.0,0.0,0.0,0.0,0.0,0.0,0.0,0.0,0.0,0.0,0.0,0.0,0.0,0.0,0.0,1.926,1.926,1.926,1.9157,1.9101,1.9101,1.9101,1.9101,1.9101,1.9101,0.0,0.0,0.0,0.0,2.2989,2.752,2.897,0.0,2.5054,2.3522,0.0,0.0,0.0,1.9101,1.9101,1.9483,2.0064,2.0064,2.0064,2.0064,2.0064,0.0,0.0,0.0,0.0,0.0,1.9295,1.9101,0.0,0.0,0.0,0.0,0.0,0.0,2.6938,2.7519,3.0568,3.3441,0.0,0.0,0.0,0.0,0.0,0.0,0.0,0.0,0.0,0.0,0.0,0.0,0.0,0.0,0.0,0.0,0.0,0.0,0.0,0.0,0.0,0.0,0.0,3.26,3.0699,3.0598,3.0598,3.0598,3.0598,3.0598,3.0598,3.0598,3.0598,3.0598,3.0598,3.0598,3.0598,3.0598,3.0598,3.0598,3.0598,3.0598,3.0598,3.0598,3.0975,3.157,3.157,3.273,3.4397,3.4397,3.4397,3.4397,0.0,0.0,0.0,0.0,0.0,0.0,0.0,0.0,0.0,0.0,0.0,0.0,0.0,1.9101,1.926,1.9645,1.9672,1.9672,1.9672,1.9315,1.9101,1.9101,1.9101,0.0,1.9101,1.9101,0.0,0.0,0.0,0.0,2.2957,2.5705,2.8216,3.0292,2.7736,2.5226,2.2888,0.0,0.0,0.0,0.0,2.0557,2.27,0.0,0.0,0.0,0.0,0.0,0.0,0.0,0.0,0.0,0.0,0.0,0.0,0.0,0.0,0.0,0.0,2.2872,0.0,2.0886,2.5297,0.0,0.0,0.0,0.0,0.0,0.0,0.0,0.0,0.0,0.0,0.0,0.0,0.0,0.0,0.0,0.0,0.0,0.0,0.0,0.0,0.0,0.0,0.0,0.0,3.0743,3.0612,3.0598,3.0598,3.0598,3.0598,3.0598,3.0598,3.0598,3.0598,3.0598,3.0598,3.0598,3.0598,3.0598,3.0598,3.0598,3.0598,3.0598,3.0598,3.0598,3.202,3.4194,3.4194,3.4281,3.4397,3.4397,3.4397,3.4397,0.0,0.0,0.0,0.0,0.0,0.0,0.0,0.0,0.0,0.0,0.0,0.0,0.0,1.9101,1.9157,1.9291,1.9315,1.9315,1.9315,1.9176,1.9101,1.9101,1.9101,1.9101,1.9101,1.9101,0.0,0.0,0.0,2.0402,2.2957,2.5575,2.7286,2.8041,2.5446,2.4706,2.54,2.54,0.0,0.0,0.0,0.0,0.0,0.0,0.0,0.0,0.0,0.0,0.0,0.0,0.0,0.0,0.0,0.0,0.0,0.0,0.0,0.0,0.0,0.0,0.0,2.1591,2.1545,2.2288,0.0,0.0,0.0,0.0,0.0,0.0,0.0,0.0,0.0,0.0,0.0,0.0,0.0,0.0,0.0,0.0,0.0,0.0,0.0,0.0,0.0,0.0,0.0,0.0,3.0598,3.0598,3.0598,3.0598,3.0598,3.0598,3.0598,3.0598,3.0598,3.0598,3.0598,3.0598,3.0598,3.0598,3.0598,3.0598,3.0598,3.0598,3.0598,3.0598,3.1134,3.2122,3.3761,3.4397,3.4397,3.4397,3.4397,3.4397,0.0,0.0,0.0,0.0,0.0,0.0,0.0,0.0,0.0,0.0,0.0,0.0,0.0,0.0,1.9101,1.9101,1.9101,1.9101,1.9101,1.9101,1.9101,1.9101,1.9101,1.9101,1.9101,0.0,0.0,0.0,0.0,0.0,0.0,2.4677,2.5487,2.5446,2.4592,2.4692,0.0,0.0,0.0,2.2888,0.0,0.0,2.2888,0.0,0.0,0.0,0.0,0.0,0.0,0.0,0.0,0.0,0.0,0.0,0.0,0.0,0.0,0.0,1.9101,0.0,0.0,0.0,0.0,1.7654,0.0,0.0,0.0,0.0,0.0,0.0,0.0,0.0,0.0,0.0,0.0,0.0,0.0,0.0,0.0,0.0,0.0,0.0,0.0,0.0,0.0,0.0,0.0,0.0,3.0598,3.0598,3.0598,3.0598,3.0598,3.0598,3.0598,3.0598,3.0176,2.9319,2.9319,2.9784,3.0598,3.0598,3.0598,3.0598,3.0598,3.0598,3.0598,3.0598,3.0598,3.0859,3.3412,3.4397,3.4397,3.4397,3.4397,3.4397,0.0,0.0,0.0,0.0,0.0,0.0,0.0,0.0,0.0,0.0,0.0,0.0,0.0,0.0,0.0,1.9217,1.9217,1.9217,1.9217,1.9217,1.9174,1.9101,1.9101,1.9145,1.9217,0.0,0.0,0.0,0.0,0.0,0.0,0.0,2.2888,2.3004,2.5546,2.5284,2.2888,0.0,2.2888,2.2888,0.0,2.2957,2.3015,0.0,0.0,0.0,2.3044,2.3015,0.0,0.0,0.0,0.0,0.0,0.0,0.0,0.0,0.0,0.0,0.0,0.0,0.0,0.0,0.0,0.0,2.1968,0.0,0.0,0.0,0.0,0.0,0.0,0.0,0.0,0.0,0.0,0.0,0.0,0.0,0.0,0.0,0.0,0.0,0.0,0.0,0.0,0.0,0.0,3.0598,3.0598,3.0598,3.0569,3.0496,3.0496,3.0496,3.0496,3.0496,2.9261,2.6792,2.6792,2.8128,3.0598,3.0598,3.0598,3.0598,3.0598,3.0598,3.0598,3.0598,3.0598,3.0859,3.3325,3.4324,3.4397,3.4397,3.4397,3.4397,0.0,0.0,0.0,0.0,0.0,0.0,0.0,0.0,0.0,0.0,0.0,0.0,0.0,0.0,2.1841,2.1841,2.1841,2.1841,2.1841,2.1841,2.1025,1.9174,1.9101,1.9962,2.1808,0.0,0.0,0.0,0.0,0.0,0.0,0.0,0.0,0.0,2.3664,2.358,2.2888,2.2888,0.0,0.0,2.2888,2.4027,0.0,0.0,0.0,0.0,0.0,2.572,2.572,0.0,2.4459,2.2888,0.0,0.0,0.0,0.0,0.0,0.0,1.9101,0.0,0.0,0.0,0.0,0.0,1.9181,1.9083,0.0,0.0,0.0,0.0,0.0,0.0,0.0,0.0,0.0,0.0,0.0,0.0,0.0,0.0,0.0,0.0,0.0,0.0,0.0,0.0,3.0598,3.0598,3.0598,3.0598,2.9755,2.7911,2.7853,2.7853,2.7853,2.7853,2.7503,2.6792,2.6792,2.8128,3.0598,3.0598,3.0598,3.0598,3.0598,3.0598,3.0598,3.0598,3.0598,3.067,3.1367,3.2774,3.4397,3.4397,3.4397,3.4397,0.0,0.0,0.0,0.0,0.0,0.0,0.0,0.0,0.0,0.0,0.0,0.0,0.0,0.0,0.0,2.2888,2.2888,2.2888,2.2888,2.2888,2.2232,2.075,2.0702,2.1388,2.287,0.0,0.0,0.0,0.0,0.0,0.0,0.0,0.0,0.0,0.0,0.0,0.0,0.0,0.0,0.0,2.4085,0.0,0.0,2.6792,2.7707,0.0,0.0,0.0,2.8404,2.8404,2.5939,0.0,0.0,0.0,0.0,0.0,0.0,0.0,0.0,0.0,0.0,0.0,0.0,0.0,1.7417,1.7502,1.8794,0.0,0.0,0.0,0.0,0.0,0.0,0.0,0.0,0.0,0.0,0.0,0.0,0.0,0.0,0.0,0.0,0.0,0.0,3.0569,3.0598,3.0598,3.0598,2.9581,2.8332,2.6851,2.6792,2.6792,2.6792,2.6792,2.6792,2.6792,2.6792,2.7577,2.9058,3.0118,3.0031,2.9072,3.0147,3.0598,3.0598,3.0598,3.0598,3.0714,3.1773,3.3093,3.4397,3.4397,3.4397,3.4397,0.0,0.0,0.0,0.0,0.0,0.0,0.0,0.0,0.0,0.0,0.0,0.0,0.0,0.0,0.0,0.0,2.2888,2.2888,2.2888,2.2888,2.2888,2.2888,2.2888,2.2797,2.2566,0.0,0.0,0.0,0.0,0.0,0.0,0.0,0.0,0.0,0.0,0.0,0.0,0.0,0.0,2.3131,2.5749,2.6792,0.0,0.0,2.7214,0.0,2.9798,3.0598,3.0569,3.0278,2.7128,0.0,0.0,0.0,0.0,0.0,2.2888,0.0,0.0,0.0,0.0,0.0,0.0,0.0,1.65,1.65,1.65,0.0,0.0,0.0,0.0,0.0,0.0,0.0,0.0,0.0,0.0,0.0,0.0,0.0,0.0,0.0,0.0,2.7881,2.9,3.022,3.0365,3.0336,3.0191,2.8027,2.6792,2.6792,2.6792,2.6792,2.6792,2.6792,2.6792,2.6792,2.6792,2.6792,2.688,2.9159,2.8942,2.6938,2.9479,3.0452,3.0205,3.0466,3.0598,3.083,3.3093,3.3993,3.3993,3.3993,3.415,3.4397,0.0,0.0,0.0,0.0,0.0,0.0,0.0,0.0,0.0,0.0,0.0,0.0,0.0,0.0,0.0,0.0,2.2888,2.2888,2.2888,2.2888,2.2888,2.2888,2.2888,2.2121,2.0434,2.0396,0.0,0.0,0.0,0.0,0.0,0.0,0.0,0.0,0.0,0.0,0.0,0.0,0.0,2.3131,2.5749,0.0,2.7025,2.9087,2.9871,2.9929,3.0423,3.0598,3.0292,0.0,2.6865,2.5792,0.0,0.0,0.0,0.0,0.0,0.0,0.0,0.0,0.0,0.0,0.0,0.0,1.65,1.65,1.65,0.0,0.0,0.0,0.0,0.0,0.0,0.0,0.0,0.0,0.0,0.0,0.0,0.0,0.0,0.0,0.0,2.7402,2.7533,2.8448,2.8854,2.8608,2.7605,2.7068,2.6792,2.6792,2.6792,2.6792,2.6792,2.6792,2.6792,2.6792,2.6792,2.6792,2.6821,2.7315,2.7272,2.6938,2.9479,2.945,2.7693,2.9755,3.0598,3.0656,3.115,3.1338,3.1338,3.1338,3.2629,3.4397,0.0,0.0,0.0,0.0,0.0,0.0,0.0,0.0,0.0,0.0,0.0,0.0,0.0,0.0,0.0,0.0,0.0,0.0,0.0,0.0,2.2888,2.2888,2.1908,2.0869,1.9824,1.9798,1.9798,0.0,0.0,0.0,0.0,0.0,0.0,0.0,0.0,0.0,0.0,0.0,2.1043,2.3216,2.5772,0.0,2.7083,2.9639,3.0598,3.0598,3.0598,3.0598,3.0307,2.8404,2.733,0.0,0.0,2.527,2.3766,0.0,2.3203,2.3737,0.0,0.0,0.0,2.1309,0.0,0.0,0.0,1.8967,1.65,1.65,0.0,0.0,0.0,0.0,0.0,0.0,0.0,0.0,0.0,0.0,0.0,0.0,0.0,0.0,0.0,2.6633,2.65,2.7344,2.7998,2.7896,2.6851,2.6792,2.6792,2.6792,2.6792,2.6792,2.6792,2.6792,2.6792,2.6792,2.6792,2.6792,2.6836,2.8114,2.8695,2.8781,3.0045,2.9886,2.8796,3.0075,3.0598,3.0598,3.0598,3.0598,3.0598,3.0598,3.141,3.2687,1.8984,0.0,0.0,0.0,0.0,0.0,0.0,0.0,0.0,0.0,0.0,0.0,0.0,0.0,0.0,0.0,0.0,0.0,0.0,0.0,0.0,2.2933,2.1327,2.025,1.9811,1.9798,1.9798,0.0,0.0,0.0,0.0,0.0,0.0,0.0,0.0,0.0,0.0,0.0,0.0,2.3275,0.0,2.6096,2.6364,2.89,3.0176,3.0569,3.0322,3.0089,2.9769,2.9058,0.0,2.7185,2.8056,2.6836,0.0,0.0,0.0,0.0,0.0,0.0,0.0,0.0,0.0,2.407,0.0,0.0,0.0,1.7107,0.0,0.0,0.0,0.0,0.0,0.0,0.0,0.0,0.0,0.0,0.0,0.0,0.0,0.0,0.0,2.528,2.5527,2.6183,2.6953,2.7142,2.6575,2.6546,2.6502,2.6429,2.6429,2.6546,2.6792,2.6792,2.6792,2.6792,2.6792,2.6792,2.6865,2.8927,3.0147,3.0583,3.0074,2.9871,2.9915,3.0409,3.0598,3.0598,3.0598,3.0538,3.0438,3.0438,3.0438,3.075,1.8593,1.9563,0.0,0.0,0.0,0.0,0.0,0.0,0.0,0.0,0.0,0.0,0.0,0.0,0.0,0.0,0.0,0.0,2.31,0.0,0.0,2.3087,2.2852,2.1818,1.9849,1.9798,1.9798,1.9798,0.0,0.0,0.0,0.0,0.0,0.0,1.9798,0.0,0.0,0.0,2.2869,0.0,2.341,2.3516,0.0,2.6271,2.8622,3.0452,2.9319,2.82,2.7446,0.0,2.8623,2.7765,0.0,2.6415,2.5776,0.0,0.0,0.0,0.0,0.0,0.0,0.0,2.6575,0.0,0.0,0.0,2.1541,1.927,0.0,0.0,0.0,0.0,0.0,0.0,0.0,0.0,0.0,0.0,0.0,0.0,0.0,0.0,0.0,0.0,2.4312,2.4237,2.4808,2.5301,2.5629,2.5643,2.5483,2.5122,2.5122,2.566,2.6792,2.6792,2.6792,2.6792,2.6792,2.6792,2.6807,2.7097,2.8462,3.0481,2.8201,2.7228,2.7402,2.9682,3.0598,3.0598,3.0598,3.0306,2.9902,2.9902,2.9902,2.9941,1.9041,1.9795,0.0,0.0,0.0,0.0,0.0,0.0,0.0,0.0,0.0,0.0,0.0,0.0,0.0,0.0,0.0,2.5883,0.0,0.0,0.0,0.0,2.3108,0.0,2.1743,2.1703,2.1703,2.1703,2.0439,0.0,0.0,0.0,0.0,0.0,2.1703,0.0,2.3108,0.0,2.3108,0.0,0.0,0.0,0.0,2.5852,2.6567,2.626,2.6386,2.6143,2.5854,0.0,2.7032,0.0,0.0,0.0,0.0,0.0,0.0,0.0,0.0,0.0,0.0,0.0,0.0,0.0,2.316,0.0,2.2595,0.0,0.0,0.0,0.0,0.0,0.0,0.0,0.0,0.0,0.0,0.0,0.0,0.0,0.0,0.0,0.0,0.0,0.0,0.0,0.0,2.4897,2.5137,2.489,2.4672,2.45,2.4759,2.5139,2.5635,2.6402,2.6792,2.6792,2.6792,2.6792,2.6792,2.6792,2.7373,2.8262,2.574,2.54,2.672,2.7777,2.8211,2.8211,2.8211,2.8085,2.7894,2.7894,2.8693,2.9792,1.9453,0.0,0.0,0.0,0.0,0.0,0.0,0.0,0.0,0.0,0.0,0.0,2.9251,2.8245,0.0,0.0,2.7356,2.7507,0.0,0.0,2.3108,0.0,0.0,0.0,0.0,0.0,2.3108,2.3108,0.0,0.0,0.0,0.0,0.0,0.0,0.0,2.3108,2.3108,0.0,0.0,2.3108,2.3108,2.3108,2.3305,2.5105,2.4681,2.3208,2.4036,2.4401,2.4525,2.488,2.5349,0.0,2.634,0.0,0.0,0.0,0.0,0.0,2.5591,0.0,0.0,0.0,0.0,0.0,0.0,0.0,0.0,0.0,0.0,0.0,0.0,0.0,0.0,0.0,0.0,0.0,0.0,0.0,0.0,0.0,0.0,0.0,0.0,0.0,0.0,0.0,2.3624,2.4302,2.4355,2.4024,2.385,2.385,2.4341,2.4689,2.4798,2.5894,2.656,2.6792,2.646,2.6312,2.6312,2.6646,2.6419,2.5715,2.4546,2.4971,2.6499,2.6499,2.6499,2.6499,2.6499,2.6499,2.6499,2.6499,2.7889,2.9792,1.9585,2.0112,0.0,0.0,0.0,0.0,0.0,0.0,0.0,0.0,0.0,0.0,0.0,0.0,0.0,0.0,0.0,2.6537,2.6399,0.0,2.3108,0.0,0.0,2.3108,0.0,0.0,0.0,2.3108,0.0,0.0,0.0,0.0,0.0,0.0,0.0,2.3108,2.3108,2.3108,2.3108,2.3108,2.3108,2.3108,2.3108,0.0,2.317,2.3093,2.3145,0.0,0.0,2.4582,2.422,0.0,0.0,0.0,0.0,0.0,0.0,0.0,0.0,0.0,0.0,2.9871,0.0,0.0,0.0,0.0,2.2888,0.0,0.0,0.0,0.0,0.0,0.0,0.0,0.0,0.0,0.0,0.0,0.0,0.0,0.0,0.0,0.0,0.0,0.0,2.1619,2.2501,2.2957,2.2957,2.2957,2.2931,2.2931,2.3601,2.421,2.4783,2.5284,2.5963,2.6779,2.5619,2.5063,2.5105,2.6272,2.5481,2.3341,2.546,2.6424,2.6499,2.6499,2.6499,2.6499,2.6499,2.6499,2.6499,2.6499,2.7889,2.9792,0.0,0.0,0.0,0.0,0.0,0.0,0.0,2.3108,0.0,0.0,0.0,0.0,0.0,2.8467,3.0382,0.0,0.0,2.9629,2.6688,2.5783,0.0,0.0,0.0,2.5351,0.0,0.0,0.0,0.0,0.0,0.0,0.0,0.0,0.0,0.0,0.0,2.3108,0.0,0.0,0.0,0.0,0.0,2.5351,2.5188,0.0,0.0,2.3108,2.3108,2.3108,0.0,2.3605,2.3456,2.3213,2.3767,2.435,2.4905,2.5447,2.6778,0.0,0.0,0.0,2.701,2.7867,0.0,0.0,0.0,0.0,0.0,0.0,0.0,0.0,0.0,0.0,0.0,0.0,0.0,0.0,0.0,0.0,0.0,0.0,0.0,0.0,0.0,0.0,0.0,1.9938,2.1007,2.1834,0.0,2.2298,2.249,2.2888,2.394,2.4592,2.4798,2.5836,2.6305,2.6206,2.566,2.5258,2.4979,2.4539,2.4717,2.5389,2.6172,2.6499,2.6499,2.6499,2.6499,2.6499,2.6499,2.6499,2.6499,2.6499,2.6964,2.7844,2.0225,0.0,0.0,0.0,0.0,0.0,0.0,0.0,0.0,0.0,2.8329,0.0,3.118,0.0,3.2399,0.0,3.3102,3.1884,2.9038,2.8121,0.0,2.6524,2.6499,0.0,0.0,0.0,0.0,0.0,0.0,2.3108,0.0,0.0,0.0,0.0,0.0,2.3108,2.3246,0.0,2.6034,0.0,0.0,2.6021,0.0,0.0,2.3813,2.3108,0.0,2.3108,2.3108,2.3108,2.3108,2.3108,2.3108,2.3752,2.4584,2.484,2.6079,2.6931,2.4862,2.6196,0.0,2.8143,2.746,0.0,2.6792,0.0,0.0,0.0,0.0,0.0,0.0,0.0,0.0,0.0,0.0,0.0,0.0,2.0262,0.0,0.0,0.0,0.0,0.0,0.0,1.9362,1.9982,2.0795,2.1463,0.0,0.0,2.2617,2.3244,2.4261,2.4911,2.5156,2.6048,2.6286,2.5893,2.5328,2.4978,2.4752,2.3619,2.3901,2.5339,2.6147,2.6499,2.6499,2.6499,2.6499,2.6499,2.6499,2.6499,2.6499,2.6499,2.7002,2.7894,0.0,0.0,0.0,0.0,2.242,0.0,0.0,0.0,3.01,0.0,3.4409,3.9647,3.9546,3.7663,3.554,3.3442,3.3153,0.0,3.3253,3.0992,0.0,0.0,2.6663,2.6612,2.6499,0.0,0.0,0.0,0.0,0.0,0.0,0.0,0.0,0.0,2.3108,0.0,2.3396,2.5464,2.515,2.3459,2.5628,2.5138,2.3333,2.5502,2.5,2.3108,2.3108,2.3108,2.3108,2.3108,2.3108,2.3108,2.3108,2.3885,2.4804,2.4829,2.4918,2.5241,2.6245,2.8411,3.0432,3.0568,0.0,0.0,0.0,0.0,2.7577,0.0,0.0,0.0,0.0,0.0,0.0,0.0,0.0,0.0,0.0,0.0,0.0,0.0,0.0,0.0,0.0,1.9687,1.9924,2.1575,2.1677,2.1753,0.0,0.0,2.3171,2.3888,2.4491,2.5114,2.5752,2.5851,2.5866,2.5798,2.4651,2.4176,2.4307,2.3484,2.3158,2.3384,2.5552,2.6499,2.6499,2.6499,2.6499,2.6499,2.6499,2.6562,2.6663,2.6663,2.7989,2.9792,2.2556,2.2844,2.3007,0.0,2.292,2.3446,0.0,0.0,0.0,0.0,3.7273,3.9057,3.7424,3.6757,3.6179,3.559,3.4045,0.0,0.0,0.0,0.0,2.8906,2.8957,2.8178,2.6541,2.6499,0.0,2.6499,0.0,0.0,2.3108,0.0,0.0,0.0,0.0,0.0,2.5552,2.4443,2.4619,2.5678,2.626,2.5138,0.0,0.0,2.3612,2.3108,2.3108,2.3108,2.3108,2.3108,2.3108,2.3108,2.3108,2.3885,2.4854,2.5163,2.5268,2.5505,2.6397,2.7085,2.8032,3.0085,3.0118,2.961,0.0,0.0,0.0,0.0,0.0,0.0,0.0,0.0,0.0,0.0,0.0,0.0,0.0,0.0,0.0,2.1739,0.0,0.0,2.047,2.0785,2.1227,2.1677,2.1376,2.1419,0.0,0.0,0.0,2.3859,2.4491,2.4901,2.5133,2.5637,2.5453,2.4551,2.4249,2.3868,2.3424,2.3213,2.4026,2.5653,2.6248,2.6499,2.6499,2.6499,2.6499,2.6499,2.6499,2.7487,2.8957,2.8957,2.9321,2.9792,2.3108,0.0,0.0,2.4402,0.0,0.0,2.4114,0.0,0.0,3.1502,3.5678,0.0,3.7876,3.7838,3.7449,3.6493,3.4371,0.0,3.4874,0.0,0.0,3.2587,3.0841,2.9221,2.7964,2.6989,0.0,2.6499,0.0,0.0,2.3108,0.0,0.0,0.0,0.0,2.3813,2.4921,2.3634,2.4418,2.6411,2.5414,0.0,0.0,2.4202,2.3976,2.317,2.3659,2.3521,2.3108,2.3108,2.3108,2.3108,2.3108,2.3547,2.4302,2.5515,2.5883,2.5988,2.648,2.6552,2.6867,2.8422,2.8807,2.9125,3.0327,3.0045,2.9537,0.0,0.0,0.0,0.0,0.0,0.0,0.0,0.0,0.0,0.0,0.0,0.0,0.0,2.2399,0.0,2.1551,2.1438,2.1521,2.1812,2.1594,2.1598,0.0,0.0,0.0,2.4309,2.4871,2.5217,2.5332,2.5908,2.554,2.4234,2.384,2.3469,2.3108,2.3108,2.434,2.6474,2.616,2.6197,2.6499,2.6499,2.6499,2.6499,2.6499,2.7266,2.8467,2.9428,2.9792,2.9792,0.0,0.0,0.0,0.0,0.0,0.0,0.0,2.5523,0.0,2.6461,0.0,3.6155,3.8944,3.9258,3.8504,3.6581,0.0,3.3102,3.3102,3.3102,3.4082,3.6293,3.216,2.9792,2.9792,2.7643,0.0,0.0,0.0,0.0,0.0,0.0,0.0,0.0,0.0,0.0,0.0,2.3421,2.4519,2.5921,2.4214,2.3562,2.3763,2.5757,2.5276,2.3687,2.4666,2.4186,2.3118,2.3271,2.3421,2.3562,2.3562,2.3562,2.3938,2.5921,2.6499,2.6499,2.6499,2.6499,2.6499,2.6499,2.6499,2.7125,2.9515,3.0342,3.0598,3.0598,2.9392,2.8404,0.0,0.0,0.0,0.0,0.0,0.0,0.0,0.0,0.0,0.0,0.0,0.0,2.2888,2.1906,2.1496,2.2077,2.212,2.212,0.0,0.0,0.0,2.473,2.5167,0.0,2.5868,0.0,2.5687,2.4522,2.3558,2.3108,2.3108,2.3258,2.4494,2.6461,2.582,2.5908,2.6499,2.6499,2.6499,2.6499,2.6499,2.6675,2.7165,2.9095,2.9792,2.9792,0.0,0.0,0.0,0.0,0.0,2.8209,3.3291,2.8172,2.4365,2.6248,2.7505,3.0471,3.6331,3.6972,3.6808,3.6443,3.4371,0.0,0.0,0.0,0.0,3.6293,3.216,2.9792,2.9792,2.7643,2.6499,0.0,0.0,0.0,0.0,0.0,0.0,0.0,0.0,0.0,2.3221,2.5113,0.0,2.3825,2.5314,2.5891,2.5959,2.6348,2.6248,2.5933,2.6135,2.487,2.3246,2.4186,2.5134,2.5891,2.5891,2.5891,2.5984,2.6386,2.6499,2.6499,2.6499,2.6499,2.6499,2.6499,2.6499,2.6624,2.7108,2.8967,3.0598,3.0598,3.0365,2.9726,2.8375,0.0,0.0,0.0,0.0,0.0,0.0,0.0,0.0,0.0,0.0,2.2888,0.0,2.2696,2.2624,2.2725,2.274,2.274,0.0,0.0,0.0,0.0,2.4154,0.0,0.0,0.0,2.4777,2.5217,2.3777,2.3108,2.3133,2.4073,2.5234,2.6487,2.6361,2.6373,2.6499,2.6499,2.6499,2.6499,2.6499,2.7618,2.9283,2.9654,2.9792,2.9792,0.0,0.0,0.0,0.0,0.0,0.0,0.0,3.3483,0.0,3.1502,3.1628,3.286,3.6053,3.6405,3.6405,3.6405,3.4371,3.3102,3.3102,3.3102,3.4082,3.6293,3.3253,0.0,2.9836,2.7643,2.6499,2.6499,0.0,0.0,0.0,0.0,0.0,0.0,0.0,2.3108,0.0,0.0,0.0,2.4958,2.6059,2.6499,2.6499,2.6499,2.6499,2.6499,2.6499,2.5778,2.4946,2.5502,2.6059,2.6499,2.6499,2.6499,2.6499,2.6499,2.6499,2.6499,2.6499,2.6499,2.6499,2.6499,2.6499,2.6499,2.6499,2.8631,3.0598,3.0598,3.0234,2.961,2.8564,2.7752,0.0,0.0,0.0,0.0,0.0,0.0,0.0,0.0,0.0,0.0,0.0,0.0,0.0,0.0,0.0,0.0,0.0,0.0,0.0,0.0,0.0,0.0,0.0,0.0,0.0,2.4205,2.3446,2.3108,2.3158,2.4895,2.5979,2.6491,2.6097,2.6147,2.6499,2.6499,2.6839,2.7273,2.6713,2.7839,2.9792,2.9792,2.9792,2.9792,0.0,2.8391,0.0,0.0,2.8058,0.0,3.863,3.7813,3.6405,3.6405,3.6405,3.6405,3.6405,3.6405,3.6405,3.6405,3.4371,3.3102,3.3102,3.3102,3.4082,3.6293,3.3818,3.1582,2.9849,2.809,2.6964,0.0,0.0,0.0,0.0,0.0,0.0,0.0,0.0,0.0,0.0,0.0,2.6499,2.6499,2.6499,2.6499,2.6499,2.6499,2.6499,2.6499,2.6499,2.6499,2.6499,2.6499,2.6499,2.6499,2.6499,2.6499,2.6499,2.6499,2.6499,2.6499,2.6499,2.6499,2.6499,2.6499,2.6499,2.6499,2.6499,2.8406,3.0251,3.0538,2.9915,2.9261,2.913,2.8448,0.0,0.0,0.0,0.0,0.0,0.0,0.0,0.0,0.0,0.0,2.3903,0.0,0.0,0.0,0.0,2.2888,2.2888,2.2888,0.0,0.0,0.0,2.459,2.5115,0.0,2.6477,0.0,2.3647,2.3584,2.3888,2.5678,2.6499,2.6461,2.5883,2.5959,2.6499,2.6499,2.7273,2.8373,2.7525,2.8266,2.9792,2.9792,2.9792,2.9792,0.0,0.0,0.0,0.0,0.0,0.0,0.0,3.7813,3.6405,3.6405,3.6405,3.6405,3.6405,3.6405,3.6405,3.6405,3.4371,3.3102,3.3102,3.3102,3.4082,3.6293,3.2361,3.0005,2.9792,2.961,2.8504,0.0,0.0,0.0,0.0,0.0,0.0,0.0,0.0,0.0,0.0,2.6411,2.6499,2.6499,2.6499,2.6499,2.6499,2.6499,2.6499,2.6499,2.6499,2.6499,2.6499,2.6499,2.6499,2.6499,2.6499,2.6499,2.6499,2.6499,2.6499,2.6499,2.6499,2.6499,2.6499,2.6499,2.6499,2.6499,2.6499,2.765,2.9064,3.0342,2.9915,2.9537,3.0278,2.9421,2.8753,0.0,0.0,0.0,0.0,0.0,0.0,0.0,0.0,0.0,0.0,2.3287,0.0,0.0,2.2888,2.2888,2.2888,2.2888,2.2988,2.318,0.0,2.3923,2.554,2.4811,0.0,2.7153,2.546,2.5184,2.6185,2.6399,2.6499,2.6499,2.6441,2.6453,2.6499,2.6499,2.7738,2.9628,2.9535,2.9635,2.9792,2.9792,2.9792,2.9792,0.0,0.0,0.0,0.0,0.0,0.0,0.0,3.7813,3.6168,3.5524,3.6002,3.6405,3.6405,3.52,3.4409,3.4409,3.3605,3.3102,3.3102,3.3102,3.3492,3.4371,3.2726,3.1783,3.1783,3.0489,2.8718,0.0,0.0,0.0,0.0,0.0,0.0,0.0,0.0,2.6499,2.6499,2.6499,2.6499,2.6499,2.6499,2.6499,2.6499,2.6499,2.6499,2.6499,2.6499,2.6332,2.6107,2.5851,2.6094,2.6499,2.6499,2.6499,2.6499,2.6499,2.6499,2.6499,2.6499,2.6499,2.6499,2.6499,2.6499,2.6499,2.6499,2.7317,2.8392,2.9531,2.9932,3.019,3.0539,2.9856,2.9421,0.0,0.0,0.0,0.0,0.0,0.0,0.0,0.0,0.0,0.0,0.0,0.0,0.0,0.0,2.2888,2.2888,2.2949,2.3146,2.3529,0.0,2.3739,2.5173,2.4951,2.5314,2.6273,2.5967,2.6055,2.6499,2.6499,2.6499,2.6541,2.7173,2.7085,2.6549,2.7185,2.8373,2.9792,2.9792,2.9792,2.9792,2.9792,2.9792,2.9792,3.2566,0.0,3.6561,0.0,3.2479,3.1785,3.7407,3.6935,3.5668,3.4896,3.5452,3.593,3.593,3.3983,3.2702,3.2702,3.2702,3.2702,3.2702,3.2702,3.281,3.3102,3.3102,0.0,3.3102,3.0942,2.8718,2.6499,2.6499,0.0,0.0,0.0,0.0,0.0,2.6146,2.6146,2.6146,2.6146,2.6146,2.6146,2.6146,2.6146,2.6176,2.6401,2.6349,2.6146,2.6146,2.5968,2.5688,2.5488,2.5734,2.6176,2.628,2.6297,2.628,2.6349,2.6396,2.6413,2.6482,2.6499,2.6499,2.6499,2.6499,2.6499,2.6499,2.6973,2.7653,2.8519,2.939,3.0054,3.0266,2.9922,2.9823,3.048,0.0,0.0,0.0,0.0,0.0,0.0,2.6212,2.579,2.579,2.4805,0.0,0.0,0.0,0.0,2.3191,2.3247,0.0,0.0,0.0,0.0,0.0,2.5264,2.5556,2.5732,2.6248,2.6499,2.6499,2.6499,2.6499,2.6557,2.7434,2.7092,2.6029,2.7495,2.8154,2.8235,2.8235,2.8235,2.8235,2.8235,2.8235,2.8235,3.9145,3.4361,3.163,3.701,3.7904,3.7182,3.5172,3.4847,3.4799,3.4799,3.4799,3.4823,3.4823,3.2958,3.1705,3.1705,3.1705,3.1705,3.1705,3.1705,3.2123,0.0,0.0,3.3102,3.3102,3.0942,2.8718,2.6499,0.0,0.0,2.6499,0.0,2.6077,2.5312,2.5312,2.5312,2.5312,2.5312,2.5312,2.5312,2.5312,2.5312,2.54,2.6211,2.6008,2.5312,2.5312,2.5312,2.5347,2.5611,2.5523,2.5382,2.5776,2.5828,2.5751,2.6025,2.6154,2.6253,2.6448,2.6499,2.6499,2.6499,2.6499,2.6499,2.6499,2.6516,2.6714,2.7384,2.8068,2.8762,2.9468,2.9608,2.981,3.0492,0.0,0.0,0.0,0.0,0.0,0.0,2.6212,2.579,2.579,2.5185,0.0,0.0,0.0,0.0,0.0,0.0,0.0,2.3128,2.3618,0.0,2.4808,2.5335,2.5904,2.6491,2.6504,2.6499,2.6499,2.6499,2.6499,2.6526,2.6932,2.6131,2.4702,2.7105,2.6703,2.4561,2.4561,2.4561,2.4561,2.4561,2.4561,2.4561,3.8406,3.6843,3.5927,3.7678,3.6795,3.558,3.4907,3.4799,3.4799,3.4799,3.4799,3.4799,3.4799,3.2935,3.1705,0.0,3.1705,3.1705,0.0,3.1705,3.1815,3.2123,3.2157,3.2157,3.2157,3.0024,2.885,2.8756,0.0,0.0,0.0,2.5938,2.5541,2.5312,2.5312,2.5312,2.5312,2.5312,2.5312,2.5312,2.5312,2.5312,2.5329,2.5576,2.5523,2.5312,2.5312,2.5312,2.5312,2.54,2.5365,2.5312,2.5453,2.5453,2.5523,2.5973,2.6124,2.6188,2.6435,2.6499,2.6499,2.6499,2.6499,2.6499,2.6499,2.685,2.7246,2.7467,2.8035,2.8572,2.881,2.8857,2.9079,2.9808,2.9331,0.0,0.0,0.0,0.0,0.0,2.6453,2.5827,0.0,2.4889,0.0,0.0,0.0,0.0,0.0,0.0,0.0,0.0,2.3942,0.0,2.5335,2.5917,2.6311,2.6499,2.6499,2.6499,2.6499,2.6499,2.7329,2.8631,2.6327,2.5009,2.4744,2.7944,2.7377,2.4497,2.4497,2.4497,2.4497,2.4497,2.4497,2.4497,3.5322,3.5322,3.5322,3.5322,3.4233,3.3109,3.2474,3.235,3.235,3.235,3.3783,3.4499,3.3729,3.3164,0.0,3.1777,3.1705,3.1705,3.1705,3.1705,3.1705,3.1705,3.1705,3.1705,3.1705,0.0,0.0,3.0503,2.9707,2.8608,2.7242,2.6736,2.6496,2.6496,2.6496,2.6039,2.5312,2.5312,2.5312,2.5312,2.5312,2.5312,2.5312,2.5312,2.5312,2.5312,2.5312,2.5312,2.5312,2.5312,2.5312,2.5312,2.5312,2.5312,2.5382,2.5798,2.5903,2.5955,2.6223,2.6275,2.6292,2.6361,2.6379,2.6413,2.6482,2.6816,2.7112,2.7112,2.7467,2.7835,2.8084,2.8117,2.836,2.9077,2.8794,2.8574,2.8822,0.0,0.0,0.0,0.0,0.0,0.0,2.5432,2.497,0.0,0.0,0.0,0.0,0.0,0.0,2.3927,2.4453,0.0,2.5586,2.6411,2.67,2.6499,2.6332,2.653,2.7075,2.6169,2.6511,2.7681,2.5464,2.4311,2.4221,2.6758,2.6505,2.4425,2.3743,2.3495,2.3495,2.3495,2.3495,2.3526,3.0889,3.0889,0.0,0.0,3.0889,0.0,2.8555,2.8291,2.8291,2.8291,3.1844,3.372,3.2094,3.3513,3.3813,3.1874,0.0,0.0,0.0,3.1705,3.1705,3.1705,3.1705,3.1705,3.1705,3.1705,3.1705,3.1705,2.9689,2.8655,2.849,2.849,2.849,2.849,2.849,2.732,2.5312,2.5312,2.5312,2.5312,2.5312,2.5312,2.5312,2.5312,2.5312,2.5312,2.5312,2.5312,2.5312,2.5312,2.5312,2.5312,2.5312,2.5336,2.5395,2.5548,2.5606,2.5641,2.5858,2.5935,2.6007,2.6211,2.6288,2.6382,2.6527,2.6549,2.6562,2.66,2.6549,2.6692,2.7352,2.746,2.7653,2.8314,2.8379,2.8203,2.7723,0.0,0.0,0.0,0.0,0.0,0.0,2.6501,2.6043,0.0,0.0,0.0,0.0,0.0,2.4687,2.412,2.5071,2.5611,2.5649,2.6721,2.6967,2.6413,2.6003,2.6545,2.7792,2.5661,2.4553,2.4311,2.4311,2.3867,2.3226,2.3991,2.4342,2.4249,2.2471,2.1769,2.1712,2.1712,2.1712,2.1833,0.0,0.0,3.0889,3.0889,3.0889,3.0303,2.8555,2.8291,2.8291,2.8291,2.9191,3.0931,3.3755,3.308,3.2236,3.1731,3.1705,3.1705,3.1705,3.1705,3.1705,3.1705,3.1705,3.1705,3.1705,3.1705,3.1705,3.1705,3.1178,3.0098,2.849,2.849,2.849,2.849,2.849,2.732,2.5312,2.5312,2.5312,2.5312,2.5312,2.5312,2.5312,2.5312,2.5312,2.5312,2.5312,2.5312,2.5312,2.5312,2.5312,2.5312,2.5312,2.5588,2.5877,2.5657,2.5606,2.5641,2.5858,2.6205,2.6561,2.6762,2.7233,2.7553,2.718,2.7097,2.7223,2.765,2.706,2.6677,2.7237,2.7005,2.6956,2.762,2.73,2.7278,2.8155,2.742,0.0,0.0,2.646,2.5872,2.5905,2.5503,2.5113,0.0,0.0,0.0,0.0,2.5129,2.5373,2.5238,2.546,2.5829,2.6285,2.6549,2.6318,2.5588,2.5877,2.5836,2.5526,2.6179,2.5003,2.2429,2.2429,2.256,2.2737,2.2517,2.2853,2.3391,2.2252,2.1415,2.0876,2.0876,2.0876,2.0917,3.0889,3.0889,3.0889,3.0889,3.0889,3.0576,2.9629,2.8809,2.8291,2.8291,2.8291,2.9191,3.1564,3.0822,3.0557,3.1612,3.1705,3.1705,3.1705,3.1705,3.1705,3.1705,3.1705,3.1705,3.1705,3.1705,3.1705,3.1705,3.1705,3.06,2.849,2.849,2.849,2.849,2.849,2.732,2.5312,2.5312,2.5312,2.5312,2.5312,2.5312,2.5312,2.5312,2.5312,2.5312,2.5312,2.5312,2.5312,2.5312,2.5312,2.5312,2.5312,2.5673,2.6051,2.5882,2.6009,2.6172,2.6026,2.6372,2.684,2.7047,2.7525,2.7888,2.7588,2.7603,2.7745,2.8047,2.7449,2.6947,2.7248,2.6864,2.6624,2.6973,2.6731,2.6748,2.7484,2.6956,0.0,2.7046,2.6445,2.6026,2.6056,2.5776,2.546,2.5197,0.0,0.0,2.518,2.5703,2.5891,2.5598,2.5866,2.6172,2.6499,2.6129,2.5801,2.5528,2.5052,2.4667,2.4403,2.4904,2.371,2.1262,2.1645,2.1768,2.167,2.1367,2.1768,2.2472,2.1589,2.0973,2.0605,2.0605,2.0605,2.0723,3.0889,3.0889,3.0889,3.0889,3.0889,3.0801,3.0537,2.9248,2.8291,2.8291,2.8291,2.8291,2.8291,2.8291,2.8968,3.0661,3.0779,3.1059,3.1661,3.1705,3.1705,3.1705,3.1705,3.1705,3.1705,3.1705,3.1705,3.1705,3.1705,3.06,2.849,2.849,2.849,2.849,2.849,2.75,2.5775,2.5775,2.5612,2.5312,2.5312,2.5312,2.5312,2.5312,2.5312,2.5312,2.5312,2.5312,2.5312,2.5312,2.5312,2.5324,2.5426,2.5781,2.6154,2.6214,2.6652,2.7012,2.6394,2.6622,2.7119,2.7283,2.7667,2.799,2.7903,2.8032,2.8192,2.828,2.7828,2.7424,2.7424,2.6989,2.6587,2.6512,2.6499,2.6499,2.6499,0.0,2.6524,2.6612,2.6612,2.6612,2.6612,2.6688,2.6474,2.5791,2.6298,2.6373,0.0,2.6223,2.6209,2.5569,2.6167,2.6435,2.628,2.5441,2.5129,2.5283,2.384,2.333,2.3612,2.2869,2.1888,2.084,2.138,2.1223,2.0605,2.0605,2.0992,2.1559,2.0876,2.0605,2.0605,2.0605,2.0605,2.0791,3.0889,3.0889,3.0889,3.0889,3.0889,3.0391,2.8926,2.8467,2.8291,2.8291,2.8291,2.8291,2.8291,2.8291,2.7848,2.6724,2.6644,2.8073,3.1472,3.1705,3.1705,3.1705,3.1705,3.1705,3.1705,3.1705,3.1705,3.1705,3.1705,3.06,2.849,2.849,2.849,2.849,2.849,2.833,2.7986,2.7986,2.6971,2.5312,2.5312,2.5312,2.5312,2.5312,2.5312,2.5312,2.5312,2.5312,2.5312,2.5312,2.5312,2.542,2.6033,2.6286,2.6418,2.67,2.7481,2.8034,2.703,2.7289,2.7841,2.7879,2.8394,2.8781,2.8326,2.8386,2.8649,2.9109,2.8544,2.7971,2.7971,2.755,2.7022,2.6562,2.6499,2.6499,2.6499,0.0,2.6663,2.7123,2.7173,2.7173,2.7173,2.76,2.7449,2.6436,2.6859,2.6952,2.6386,2.6449,2.6156,2.5372,2.6109,2.6094,2.5247,2.4282,2.3494,2.2932,2.2668,2.2307,2.1869,2.148,2.1431,2.1661,2.1046,2.0722,2.0605,2.0605,2.0663,2.078,2.0644,2.0605,2.0605,2.0605,2.0605,2.0644,3.0889,3.0889,3.0596,2.9658,3.0264,3.0303,2.8555,2.8291,2.8291,2.8291,2.8291,2.8291,2.8291,2.8291,2.7978,2.7162,2.6245,2.6476,2.8353,3.0509,3.1705,3.1705,3.1705,3.1705,3.1705,3.1705,3.1705,3.1705,3.1705,3.06,2.849,2.849,2.849,2.849,2.849,2.849,2.849,2.849,2.7926,2.6916,2.5781,2.5979,2.6892,2.5745,2.5312,2.5312,2.5312,2.5312,2.5312,2.5312,2.5679,2.6255,2.6772,2.6808,2.676,2.7205,2.7685,2.8022,2.7818,2.8016,2.8335,2.8625,2.882,2.8954,2.899,2.8939,2.894,2.9186,2.8778,2.8369,2.8369,2.7773,2.7311,2.7361,2.6889,0.0,0.0,2.6939,2.701,2.7273,2.7562,2.772,2.772,2.7682,2.7462,2.6959,2.6901,2.6889,2.6939,2.6663,2.6201,2.5577,2.5224,2.4588,2.361,2.315,2.2529,2.1749,2.1634,2.145,2.1174,2.0898,2.0928,2.1172,2.0762,2.0605,2.0605,2.0605,2.0605,2.0605,2.0605,2.1153,2.1846,2.0928,2.0605,2.0605,3.0889,3.0566,2.9863,2.8525,2.9404,2.9834,2.8496,2.8291,2.8291,2.8291,2.8291,2.8291,2.8291,2.8291,2.8135,2.7734,2.6469,2.5693,2.5693,2.8586,3.0712,3.1661,3.1705,3.1705,3.1705,3.1705,3.1705,3.1705,3.119,3.0098,2.849,2.849,2.849,2.849,2.849,2.849,2.849,2.849,2.849,2.8346,2.6719,2.7024,2.831,2.6664,2.6027,2.5985,2.5492,2.5312,2.5384,2.5889,2.6592,2.7325,2.7565,2.7481,2.7342,2.7769,2.7974,2.813,2.8406,2.8595,2.8767,2.9196,2.9197,2.9197,2.963,2.9553,2.9392,2.9392,2.9285,2.9108,2.8828,2.8294,2.7939,2.8084,0.0,0.0,0.0,2.7487,2.7537,2.7657,2.8047,2.8298,2.8298,2.7908,2.7607,2.7499,2.7062,2.6932,2.7202,2.6621,2.585,2.4955,2.3907,2.3047,2.2312,2.2096,2.1681,2.107,2.0896,2.0819,2.0819,2.0673,2.0605,2.0605,2.0605,2.0605,2.0605,2.0605,2.0605,2.0605,2.0605,2.1397,2.2352,2.1075,2.0605,2.0605,3.0889,2.959,2.8447,2.831,2.8398,2.8447,2.831,2.8291,2.8291,2.8291,2.8291,2.8291,2.8291,2.8291,2.7656,2.604,2.5762,2.5693,2.5693,2.5965,2.7801,3.155,3.1705,3.1705,3.1705,3.1705,3.1705,3.1705,2.9701,2.8655,2.849,2.849,2.849,2.849,2.849,2.849,2.849,2.849,2.849,2.8498,2.8342,2.8346,2.8478,2.831,2.825,2.7986,2.6003,2.5312,2.5595,2.7589,2.831,2.8382,2.8406,2.8394,2.8382,2.8418,2.8799,2.9088,2.8611,2.8871,2.9256,2.9292,2.9661,3.0019,3.0055,3.019,3.0302,3.0302,3.0626,3.0599,2.9534,2.948,2.9277,2.8273,0.0,0.0,2.8047,2.8047,2.8235,2.8731,2.8831,2.8838,2.8838,2.8819,2.858,2.8084,2.7839,2.7493,2.7062,2.61,2.4565,2.2354,2.217,2.2103,2.2027,2.1174,2.0692,2.0644,2.0625,2.0625,2.0625,2.0605,2.0605,2.0605,2.0605,2.0605,2.0605,2.0605,2.0605,2.0605,2.0605,2.0683,2.0781,2.0654,2.0605,2.0605,2.9492,2.875,2.8291,2.8291,2.8291,2.8291,2.8291,2.8291,2.8291,2.8291,2.8291,2.8291,2.8291,2.8291,2.8027,2.7383,2.6323,2.5693,2.5693,2.5693,2.638,2.7919,3.0362,3.1705,3.1705,3.1705,3.1705,3.1705,3.0877,3.048,3.048,3.048,2.9761,2.849,2.849,2.849,2.849,2.849,2.849,2.849,2.849,2.849,2.849,2.849,2.849,2.8382,2.7584,2.7277,2.7416,2.8234,2.849,2.849,2.849,2.849,2.8595,2.906,2.9481,2.9737,2.9544,2.9641,2.9806,2.9806,2.9962,3.0191,3.0528,3.039,3.0211,3.0211,3.0453,3.0539,3.0114,2.9657,2.936,2.9409,0.0,2.8069,2.8537,2.8593,2.8668,2.8881,2.9233,2.9465,2.9465,2.9012,2.8618,2.8425,2.7387,2.6829,2.6999,2.5267,2.369,2.2478,2.1594,2.1136,2.1136,2.0789,2.0605,2.0605,2.0605,2.0605,2.0605,2.0605,2.0605,2.0605,2.0605,2.0605,2.0605,2.0605,2.0605,2.0693,2.1738,2.1534,2.0605,2.0605,2.0605,2.0605,2.9346,2.8672,2.8291,2.8291,2.8291,2.8291,2.8291,2.8291,2.8291,2.8291,2.8291,2.8291,2.8291,2.8291,2.8291,2.8291,2.7217,2.6518,2.6518,2.601,2.5693,2.5693,2.8353,2.9818,2.9818,3.1059,3.1705,3.1705,3.1705,3.1705,3.1705,3.1705,3.0913,2.9496,2.9496,2.9136,2.849,2.849,2.849,2.849,2.849,2.849,2.849,2.849,2.849,2.849,2.849,2.849,2.849,2.849,2.8955,2.9448,2.9112,2.9003,2.9172,2.9998,3.0299,3.0359,3.0359,3.048,3.0564,3.0395,3.048,3.0696,3.1069,3.0865,3.06,3.06,3.0761,3.084,3.0682,3.0224,2.9954,3.0301,2.9502,2.8984,2.9402,2.945,2.9376,2.9229,2.9487,2.9663,2.9585,2.8927,2.8464,2.8355,2.7066,2.6209,2.6001,2.4199,2.2941,2.2458,2.1382,2.0801,2.0801,2.0654,2.0605,2.0605,2.0732,2.0723,2.0605,2.0732,2.0723,2.0605,2.0605,2.0605,2.0605,2.0605,2.0605,2.0703,2.1865,2.1602,2.0605,2.0605,2.0605,2.0605,3.0869,2.9482,2.8291,2.8291,2.8291,2.8291,2.8291,2.8291,2.8291,2.8291,2.8291,2.8291,2.8291,2.8291,2.8291,2.8291,2.8291,2.8291,2.8291,2.6664,2.5693,2.5693,2.5693,2.5693,2.5693,2.9601,3.1661,3.1661,3.1683,3.1705,3.1705,3.1705,3.1705,3.1705,3.1705,3.0516,2.8534,2.8534,2.8534,2.8514,2.8522,2.849,2.849,2.849,2.849,2.849,2.8522,2.8534,2.8534,2.8534,2.9929,3.1502,3.0443,3.0119,3.0323,3.137,3.1332,3.0901,3.0901,3.1286,3.1563,3.1033,3.1286,3.1705,3.1705,3.1705,3.1705,3.1705,3.1871,3.1836,3.1302,3.1351,3.1316,3.0798,3.0918,3.1001,3.0741,3.0644,3.0428,2.9962,2.9609,2.9314,2.9111,2.8613,2.8142,2.7804,2.7099,2.5844,2.3888,2.2906,2.224,2.1916,2.1445,2.12,2.12,2.082,2.0615,2.0605,2.1005,2.0986,2.0635,2.1025,2.0986,2.0615,2.0605,2.0605,2.0605,2.0605,2.0605,2.0605,2.0605,2.0615,2.0625,2.0605,2.0605,2.0605,2.9072,2.8652,2.8291,2.8291,2.8291,2.8291,2.8291,2.8291,2.8291,2.8291,2.8291,2.8291,2.8291,2.8291,2.8291,2.8291,2.8291,2.8291,2.8291,2.6664,2.5693,2.5693,2.5693,2.5693,2.5693,2.6873,2.7494,2.7494,3.0317,3.1705,3.1705,3.1705,3.1705,3.1705,3.1705,3.1334,3.0744,3.0744,3.0744,3.0612,2.9112,2.849,2.849,2.849,2.849,2.8703,3.0215,3.0744,3.0744,3.0744,3.1165,3.1502,3.0443,3.0624,3.1202,3.1153,3.1286,3.1454,3.1454,3.1585,3.1563,3.1033,3.1286,3.1705,3.1705,3.1705,3.1705,3.1705,3.1761,3.1735,3.1578,3.1293,3.1077,3.1059,3.0802,3.0641,3.0679,3.0667,3.0474,2.9958,2.9814,2.9337,2.8299,2.7909,2.7422,2.6664,2.5698,2.4609,2.3361,2.2771,2.2408,2.2324,2.1914,2.1689,2.1689,2.1573,2.1202,2.0615,2.1103,2.1504,2.1778,2.1094,2.0928,2.1133,2.0762,2.0605,2.0605,2.0605,2.0605,2.0605,2.0605,2.1329,2.2206,2.1026,2.0605,2.0781,2.8291,2.8291,2.8291,2.8291,2.8291,2.8291,2.8291,2.8291,2.8291,2.8291,2.8291,2.8291,2.8291,2.8291,2.8291,2.8291,2.8291,2.8291,2.8291,2.7324,2.642,2.5713,2.5693,2.5693,2.5693,2.5693,2.5693,2.5693,2.8154,3.0136,3.1705,3.1705,3.1705,3.1705,3.1705,3.1705,3.1705,3.1705,3.1705,3.1597,3.0287,2.9782,2.9782,2.9782,2.9782,2.995,3.1226,3.1705,3.1705,3.1705,3.1705,3.1597,3.0937,3.1178,3.1645,3.1298,3.1452,3.1705,3.1705,3.1705,3.1633,3.1286,3.1454,3.1705,3.1705,3.1705,3.1705,3.1705,3.1705,3.1705,3.1705,3.1452,3.1257,3.1378,3.1186,3.1044,3.1095,3.1048,3.0833,3.0349,2.9984,2.9342,2.8215,2.7679,2.6853,2.5567,2.452,2.3691,2.3135,2.2723,2.2566,2.2732,2.2353,2.2139,2.2139,2.2295,2.1885,2.0928,2.1377,2.1787,2.214,2.1748,2.1396,2.1075,2.0732,2.1358,2.2559,2.1865,2.1582,2.1582,2.1582,2.2217,2.2974,2.1963,2.1582,2.1728,2.8291,2.8291,2.8291,2.8291,2.8291,2.8291,2.8291,2.8291,2.8291,2.8291,2.8291,2.8291,2.8291,2.8291,2.8291,2.8291,2.8291,2.8291,2.8291,2.8291,2.7598,2.601,2.5942,2.5942,2.5942,2.5786,2.5693,2.5693,2.5693,2.7754,3.1705,3.1705,3.1705,3.1705,3.1705,3.1705,3.1705,3.1705,3.1705,3.1705,3.1705,3.1705,3.1705,3.1705,3.1705,3.1705,3.1705,3.1705,3.1705,3.1705,3.1705,3.1705,3.1705,3.1705,3.1705,3.1705,3.1705,3.1705,3.1705,3.1719,3.1767,3.1767,3.1813,3.1825,3.1729,3.1753,3.1767,3.1767,3.1803,3.1837,3.1767,3.1767,3.1765,3.1717,3.1849,3.1915,3.1727,3.1588,3.1345,3.0944,3.0127,2.9288,2.8556,2.7546,2.6275,2.4612,2.3702,2.3198,2.3149,2.2849,2.282,2.314,2.281,2.2625,2.2676,2.3015,2.2606,2.1445,2.1826,2.2002,2.2021,2.2771,2.2264,2.082,2.0977,2.2822,2.5567,2.3978,2.3237,2.3091,2.3091,2.3091,2.3091,2.3091,2.3091,2.3091,2.8291,2.8291,2.8291,2.8291,2.8291,2.8291,2.8291,2.8291,2.8291,2.8291,2.8291,2.8291,2.8291,2.8291,2.8291,2.8291,2.8291,2.8291,2.8291,2.8291,2.8125,2.7754,2.7744,2.7744,2.7744,2.6401,2.5693,2.5693,2.5693,2.7754,3.1705,3.1705,3.1705,3.1705,3.1705,3.1705,3.1705,3.1705,3.1705,3.1705,3.1705,3.1705,3.1705,3.1705,3.1705,3.1705,3.1705,3.1705,3.1705,3.1705,3.1705,3.1705,3.1705,3.1705,3.1705,3.1705,3.1705,3.1705,3.1705,3.2008,3.2322,3.2322,3.2635,3.2742,3.1875,3.2032,3.2322,3.2322,3.2647,3.2826,3.2394,3.2322,3.22,3.1777,3.1739,3.1761,3.1717,3.1675,3.1467,3.097,3.0036,2.8954,2.7711,2.6015,2.4847,2.4449,2.4232,2.3971,2.3662,2.3854,2.3874,2.3652,2.3564,2.3672,2.3981,2.3864,2.3135,2.1787,2.2498,2.284,2.2849,2.3013,2.2886,2.2635,2.4001,2.5015,2.5664,2.5284,2.4319,2.3091,2.3091,2.3091,2.3091,2.3091,2.3091,2.3091,2.8291,2.8291,2.8291,2.8291,2.8291,2.8291,2.8291,2.8291,2.8291,2.8291,2.8291,2.8291,2.8291,2.8291,2.8291,2.8291,2.8291,2.8291,2.8291,2.8291,2.8291,2.8291,2.8291,2.8291,2.8291,2.7412,2.6528,2.5693,2.5693,2.6778,2.8841,2.8841,2.9852,3.1705,3.1705,3.1705,3.1705,3.1705,3.1705,3.1705,3.1705,3.1705,3.1705,3.1705,3.1705,3.1705,3.1705,3.1705,3.1705,3.1705,3.1705,3.1705,3.1705,3.1705,3.1705,3.1705,3.1705,3.1705,3.1705,3.2092,3.2503,3.2503,3.2899,3.314,3.2597,3.2694,3.2875,3.2875,3.3092,3.32,3.2923,3.2671,3.2406,3.214,3.1863,3.1705,3.1705,3.1705,3.142,3.066,2.9883,2.8655,2.6783,2.5457,2.4639,2.441,2.4391,2.4316,2.4102,2.4297,2.4293,2.4092,2.4092,2.4199,2.4391,2.3752,2.3038,2.2298,2.2845,2.3091,2.3091,2.3091,2.3091,2.3198,2.4933,2.4178,2.1685,2.1685,2.2239,2.2916,2.1051,2.1463,2.2982,2.2072,2.2293,2.3091,2.8291,2.8291,2.8291,2.8291,2.8291,2.8291,2.8291,2.8291,2.8291,2.8291,2.8291,2.8291,2.8291,2.8291,2.8291,2.8291,2.8291,2.8291,2.8291,2.8291,2.8291,2.8291,2.8291,2.8291,2.8291,2.8291,2.7598,2.6147,2.6147,2.6001,2.5693,2.5693,2.7471,3.0712,3.1383,3.1705,3.1705,3.1705,3.1705,3.1705,3.1705,3.1705,3.1705,3.1705,3.1705,3.1705,3.1705,3.1705,3.1705,3.1705,3.1705,3.1705,3.1705,3.1705,3.1705,3.1705,3.1755,3.1827,3.1827,3.2297,3.2767,3.2767,3.3164,3.3549,3.3549,3.3477,3.3416,3.3416,3.3416,3.3392,3.3308,3.2935,3.2575,3.2382,3.2068,3.1791,3.1695,3.155,3.1126,3.0306,2.95,2.8163,2.5986,2.5431,2.5029,2.4645,2.4615,2.4586,2.4508,2.4576,2.4507,2.4243,2.4243,2.4179,2.4082,2.3128,2.2587,2.2492,2.2829,2.2817,2.2447,2.2447,2.2447,2.2512,2.3743,2.1611,1.7324,1.7543,1.9412,2.1797,1.8557,1.9285,2.1908,2.03,2.1141,2.3091,2.8291,2.8291,2.8291,2.8291,2.8291,2.8291,2.8291,2.8291,2.8291,2.8291,2.8291,2.8291,2.8291,2.8291,2.8291,2.8291,2.8291,2.8291,2.8291,2.8291,2.8291,2.8291,2.8291,2.8291,2.8291,2.8291,2.8174,2.7949,2.7949,2.7187,2.5693,2.5693,2.5989,2.6658,3.0159,3.1705,3.1705,3.1705,3.1705,3.1705,3.1705,3.1705,3.1705,3.1705,3.1705,3.1705,3.1705,3.1705,3.1705,3.1705,3.1705,3.1705,3.1705,3.1705,3.1705,3.1705,3.2032,3.2382,3.2382,3.3069,3.3814,3.3814,3.4198,3.4595,3.4595,3.4246,3.391,3.391,3.391,3.3778,3.3368,3.3236,3.2898,3.196,3.214,3.2214,3.1777,3.0958,3.0351,3.0215,2.8592,2.7039,2.5822,2.5664,2.5601,2.5542,2.5508,2.5367,2.5024,2.5352,2.4938,2.3653,2.361,2.3332,2.2753,2.2267,2.1857,2.1568,2.2269,2.1612,1.9811,1.9811,1.9811,1.9758,1.883,1.7997,1.7397,1.8547,1.8664,1.8033,1.7512,1.7622,1.8056,1.7785,1.9983,2.3091,2.8291,2.8291,2.8291,2.8291,2.8291,2.8291,2.8291,2.8291,2.8291,2.8291,2.8291,2.8291,2.8291,2.8291,2.8291,2.8291,2.8291,2.8291,2.8291,2.8291,2.8291,2.8291,2.8291,2.8291,2.8291,2.8291,2.8291,2.8291,2.8291,2.7412,2.5693,2.5693,2.6225,2.7196,2.7979,2.8353,2.8493,3.0757,3.1705,3.1705,3.1705,3.1705,3.1705,3.1705,3.1705,3.1705,3.1705,3.1705,3.1705,3.1705,3.1705,3.1705,3.1705,3.1705,3.1705,3.1705,3.214,3.2707,3.3104,3.3597,3.3994,3.3994,3.4414,3.4799,3.4799,3.4619,3.4462,3.4462,3.4462,3.439,3.4186,3.3681,3.3128,3.267,3.1821,3.1116,3.0904,3.0011,2.9143,2.8588,2.7247,2.6187,2.5732,2.5693,2.5693,2.5693,2.5693,2.562,2.5449,2.5038,2.45,2.3865,2.3258,2.2794,2.2509,2.1728,2.1283,2.1124,2.068,2.0078,1.9305,1.9305,1.9305,1.9268,1.8664,1.8416,1.8401,1.8247,1.8277,1.8343,1.7587,1.7302,1.7302,1.7302,1.8396,1.9964]},{"header":{"parameterUnit":"m.s-1","parameterCategory":1,"la1":30.6,"la2":28.766,"lo1":-90.7593,"lo2":-88.6598,"dy":0.0162,"dx":0.0183,"nx":116,"ny":114,"refTime":"2023-11-22T06:00:00:Z","depth":0,"parameterNumber":3,"parameterNumberName":"V-component_of_WINDS"},"data":[0.0,0.0,0.0,0.0,0.0,0.0,0.0,0.0,0.0,0.0,0.0,0.0,0.0,0.0,0.0,0.0,0.0,0.0,0.0,0.0,0.0,0.0,0.0,0.0,0.0,0.0,0.0,0.0,0.0,0.0,0.0,0.0,0.0,0.0,0.0,0.0,0.0,0.0,0.0,0.0,0.0,0.0,0.0,0.0,0.0,0.0,0.0,0.0,0.0,0.0,0.0,0.0,0.0,0.0,0.0,0.0,0.0,0.0,0.0,0.0,0.0,0.0,0.0,0.0,0.0,0.0,0.0,0.0,0.0,0.0,0.0,0.0,0.0,0.0,0.0,0.0,0.0,0.0,0.0,0.0,0.0,0.0,0.0,0.0,0.0,0.0,0.0,0.0,0.0,0.0,0.0,0.0,0.0,0.0,0.0,0.0,0.0,0.0,0.0,0.0,0.0,0.0,0.0,0.0,0.0,0.0,0.0,0.0,0.0,0.0,0.0,0.0,0.0,0.0,0.0,0.0,0.0,0.0,0.0,0.0,0.0,0.0,0.0,0.0,0.0,0.0,0.0,0.0,0.0,0.0,0.0,0.0,0.0,0.0,0.0,0.0,0.0,0.0,0.0,0.0,0.0,0.0,0.0,0.0,0.0,0.0,0.0,0.0,0.0,0.0,0.0,0.0,0.0,0.0,0.0,0.0,0.0,0.0,0.0,0.0,0.0,0.0,0.0,0.0,0.0,0.0,0.0,0.0,0.0,0.0,0.0,0.0,0.0,0.0,0.0,0.0,0.0,0.0,0.0,0.0,0.0,0.0,0.0,0.0,0.0,0.0,0.0,0.0,0.0,0.0,0.0,0.0,0.0,0.0,0.0,0.0,0.0,0.0,0.0,0.0,0.0,0.0,0.0,0.0,0.0,0.0,0.0,0.0,0.0,0.0,0.0,0.0,0.0,0.0,0.0,0.0,0.0,0.0,0.0,0.0,0.0,0.0,0.0,0.0,0.0,0.0,0.0,0.0,0.0,0.0,0.0,0.0,0.0,0.0,0.0,0.0,0.0,0.0,0.0,0.0,0.0,0.0,0.0,0.0,0.0,0.0,0.0,0.0,0.0,0.0,0.0,0.0,0.0,0.0,0.0,0.0,0.0,0.0,0.0,0.0,0.0,0.0,0.0,0.0,0.0,0.0,0.0,0.0,0.0,0.0,0.0,0.0,0.0,0.0,0.0,0.0,0.0,0.0,0.0,0.0,0.0,0.0,0.0,0.0,0.0,0.0,0.0,0.0,0.0,0.0,0.0,0.0,0.0,0.0,0.0,0.0,0.0,0.0,0.0,0.0,0.0,0.0,0.0,0.0,0.0,0.0,0.0,0.0,0.0,0.0,0.0,0.0,0.0,0.0,0.0,0.0,0.0,0.0,0.0,0.0,0.0,0.0,0.0,0.0,0.0,0.0,0.0,0.0,0.0,0.0,0.0,0.0,0.0,0.0,0.0,0.0,0.0,0.0,0.0,0.0,0.0,0.0,0.0,0.0,0.0,0.0,0.0,0.0,0.0,0.0,0.0,0.0,0.0,0.0,0.0,0.0,0.0,0.0,0.0,0.0,0.0,0.0,0.0,0.0,0.0,0.0,0.0,0.0,0.0,0.0,0.0,0.0,0.0,0.0,0.0,0.0,0.0,0.0,0.0,0.0,0.0,0.0,0.0,0.0,0.0,0.0,0.0,0.0,0.0,0.0,0.0,0.0,0.0,0.0,0.0,0.0,0.0,0.0,0.0,0.0,0.0,0.0,0.0,0.0,0.0,0.0,0.0,0.0,0.0,0.0,0.0,0.0,0.0,0.0,0.0,0.0,0.0,0.0,0.0,0.0,0.0,0.0,0.0,0.0,0.0,0.0,0.0,0.0,0.0,0.0,0.0,0.0,0.0,0.0,0.0,0.0,0.0,0.0,0.0,0.0,0.0,0.0,0.0,0.0,0.0,0.0,0.0,0.0,0.0,0.0,0.0,0.0,0.0,0.0,0.0,0.0,0.0,0.0,0.0,0.0,0.0,0.0,0.0,0.0,0.0,0.0,0.0,0.0,0.0,0.0,0.0,0.0,0.0,0.0,0.0,0.0,0.0,0.0,0.0,0.0,0.0,0.0,0.0,0.0,0.0,0.0,0.0,0.0,0.0,0.0,0.0,0.0,0.0,0.0,0.0,0.0,0.0,0.0,0.0,0.0,0.0,0.0,0.0,0.0,0.0,0.0,0.0,0.0,0.0,0.0,0.0,0.0,0.0,0.0,0.0,0.0,0.0,0.0,0.0,0.0,0.0,0.0,0.0,0.0,0.0,0.0,0.0,0.0,0.0,0.0,0.0,0.0,0.0,0.0,0.0,0.0,0.0,0.0,0.0,0.0,0.0,0.0,0.0,0.0,0.0,0.0,0.0,0.0,0.0,0.0,0.0,0.0,0.0,0.0,0.0,0.0,0.0,0.0,0.0,0.0,0.0,0.0,0.0,0.0,0.0,0.0,0.0,0.0,0.0,0.0,0.0,0.0,0.0,0.0,0.0,0.0,0.0,0.0,0.0,0.0,0.0,0.0,0.0,0.0,0.0,0.0,0.0,0.0,0.0,0.0,0.0,0.0,0.0,0.0,0.0,0.0,0.0,0.0,0.0,0.0,0.0,0.0,0.0,0.0,0.0,0.0,0.0,0.0,0.0,0.0,0.0,0.0,0.0,0.0,0.0,0.0,0.0,0.0,0.0,0.0,0.0,0.0,0.0,0.0,0.0,0.0,0.0,0.0,0.0,0.0,0.0,0.0,0.0,0.0,0.0,0.0,0.0,0.0,0.0,0.0,0.0,0.0,0.0,0.0,0.0,0.0,0.0,0.0,0.0,0.0,0.0,0.0,0.0,0.0,0.0,0.0,0.0,0.0,0.0,0.0,0.0,0.0,0.0,0.0,0.0,0.0,0.0,0.0,0.0,0.0,0.0,0.0,0.0,0.0,0.0,0.0,0.0,0.0,0.0,0.0,0.0,0.0,0.0,0.0,0.0,0.0,0.0,0.0,0.0,0.0,0.0,0.0,0.0,0.0,0.0,0.0,0.0,0.0,0.0,0.0,0.0,0.0,0.0,0.0,0.0,0.0,0.0,0.0,0.0,0.0,0.0,0.0,0.0,0.0,0.0,0.0,0.0,0.0,0.0,0.0,0.0,0.0,0.0,0.0,0.0,0.0,0.0,0.0,0.0,0.0,0.0,0.0,0.0,0.0,0.0,0.0,0.0,0.0,0.0,0.0,0.0,0.0,0.0,0.0,0.0,0.0,0.0,0.0,0.0,0.0,0.0,0.0,0.0,0.0,0.0,0.0,0.0,0.0,0.0,0.0,0.0,0.0,0.0,0.0,0.0,0.0,0.0,0.0,0.0,0.0,0.0,0.0,0.0,0.0,0.0,0.0,0.0,0.0,0.0,0.0,0.0,0.0,0.0,0.0,0.0,0.0,0.0,0.0,0.0,0.0,0.0,0.0,0.0,0.0,0.0,0.0,0.0,0.0,0.0,0.0,0.0,0.0,0.0,0.0,0.0,0.0,0.0,0.0,0.0,0.0,0.0,0.0,0.0,0.0,0.0,0.0,0.0,0.0,0.0,0.0,0.0,0.0,0.0,0.0,0.0,0.0,0.0,0.0,0.0,0.0,0.0,0.0,0.0,0.0,0.0,0.0,0.0,0.0,0.0,0.0,0.0,0.0,0.0,0.0,0.0,0.0,0.0,0.0,0.0,0.0,0.0,0.0,0.0,0.0,0.0,0.0,0.0,0.0,0.0,0.0,0.0,0.0,0.0,0.0,0.0,0.0,0.0,0.0,0.0,0.0,0.0,0.0,0.0,0.0,0.0,0.0,0.0,0.0,0.0,0.0,0.0,0.0,0.0,0.0,0.0,0.0,0.0,0.0,0.0,0.0,0.0,0.0,0.0,0.0,0.0,0.0,0.0,0.0,0.0,0.0,0.0,0.0,0.0,0.0,0.0,0.0,0.0,0.0,0.0,0.0,0.0,0.0,0.0,0.0,0.0,0.0,0.0,0.0,0.0,0.0,0.0,0.0,0.0,0.0,0.0,0.0,0.0,0.0,0.0,0.0,0.0,0.0,0.0,0.0,0.0,0.0,0.0,0.0,0.0,0.0,0.0,0.0,0.0,0.0,0.0,0.0,0.0,0.0,0.0,0.0,0.0,0.0,0.0,0.0,0.0,0.0,0.0,0.0,0.0,0.0,0.0,0.0,0.0,0.0,0.0,0.0,0.0,0.0,0.0,0.0,0.0,0.0,0.0,0.0,0.0,0.0,0.0,0.0,0.0,0.0,0.0,0.0,0.0,0.0,0.0,0.0,0.0,0.0,0.0,0.0,0.0,0.0,0.0,0.0,0.0,0.0,0.0,0.0,0.0,0.0,0.0,0.0,0.0,0.0,0.0,0.0,0.0,0.0,0.0,0.0,0.0,0.0,0.0,0.0,0.0,0.0,0.0,0.0,0.0,0.0,0.0,0.0,0.0,0.0,0.0,0.0,0.0,0.0,0.0,0.0,0.0,0.0,0.0,0.0,0.0,0.0,0.0,0.0,0.0,0.0,0.0,0.0,0.0,0.0,0.0,0.0,0.0,0.0,0.0,0.0,0.0,0.0,0.0,0.0,0.0,0.0,0.0,0.0,0.0,0.0,0.0,0.0,0.0,0.0,0.0,0.0,0.0,0.0,0.0,0.0,0.0,0.0,0.0,0.0,0.0,0.0,0.0,0.0,0.0,0.0,0.0,0.0,0.0,0.0,0.0,0.0,0.0,0.0,0.0,0.0,0.0,0.0,0.0,0.0,0.0,0.0,0.0,0.0,0.0,0.0,0.0,0.0,0.0,0.0,0.0,0.0,0.0,0.0,0.0,0.0,0.0,0.0,0.0,0.0,0.0,0.0,0.0,0.0,0.0,0.0,0.0,0.0,0.0,0.0,0.0,0.0,0.0,0.0,0.0,0.0,0.0,0.0,0.0,0.0,0.0,0.0,0.0,0.0,0.0,0.0,0.0,0.0,0.0,0.0,0.0,0.0,0.0,0.0,0.0,0.0,0.0,0.0,0.0,0.0,0.0,0.0,0.0,0.0,0.0,0.0,0.0,0.0,0.0,0.0,0.0,0.0,0.0,0.0,0.0,0.0,0.0,0.0,0.0,0.0,0.0,0.0,0.0,0.0,0.0,0.0,0.0,0.0,0.0,0.0,0.0,0.0,0.0,0.0,0.0,0.0,0.0,0.0,0.0,0.0,0.0,0.0,0.0,0.0,0.0,0.0,0.0,0.0,0.0,0.0,0.0,0.0,0.0,0.0,0.0,0.0,0.0,0.0,0.0,0.0,0.0,0.0,0.0,0.0,0.0,0.0,0.0,0.0,0.0,0.0,0.0,0.0,0.0,0.0,0.0,0.0,0.0,0.0,0.0,0.0,0.0,0.0,0.0,0.0,0.0,0.0,0.0,0.0,0.0,0.0,0.0,0.0,0.0,0.0,0.0,0.0,0.0,0.0,0.0,0.0,0.0,0.0,0.0,0.0,0.0,0.0,0.0,0.0,0.0,0.0,0.0,0.0,0.0,0.0,0.0,0.0,0.0,0.0,0.0,0.0,0.0,0.0,0.0,0.0,0.0,0.0,0.0,0.0,0.0,0.0,0.0,0.0,0.0,0.0,0.0,0.0,0.0,0.0,0.0,0.0,0.0,0.0,0.0,0.0,0.0,0.0,0.0,0.0,0.0,0.0,0.0,0.0,0.0,0.0,0.0,0.0,0.0,0.0,0.0,0.0,0.0,0.0,0.0,0.0,0.0,0.0,0.0,0.0,0.0,0.0,0.0,0.0,0.0,0.0,0.0,0.0,0.0,0.0,0.0,0.0,0.0,0.0,0.0,0.0,0.0,0.0,0.0,0.0,0.0,0.0,0.0,0.0,0.0,0.0,0.0,0.0,0.0,0.0,0.0,0.0,0.0,0.0,0.0,0.0,0.0,0.0,0.0,0.0,0.0,0.0,0.0,0.0,0.0,0.0,0.0,0.0,0.0,0.0,0.0,0.0,0.0,0.0,0.0,0.0,0.0,0.0,1.366,0.0,0.0,0.0,0.0,0.0,0.0,0.0,0.0,0.0,0.0,0.0,0.0,0.0,0.0,0.0,0.0,0.0,0.0,0.0,0.0,0.0,0.0,0.0,0.0,0.0,0.0,0.0,0.0,0.0,0.0,0.0,0.0,0.0,0.0,0.0,0.0,0.0,0.0,0.0,1.6332,1.7021,0.0,0.0,0.0,0.0,0.0,0.0,0.0,0.0,0.0,0.0,0.0,0.0,0.0,0.0,0.0,0.0,0.0,0.0,0.0,0.0,0.0,0.0,0.0,0.0,0.0,0.0,0.0,0.0,0.0,0.0,0.0,0.0,0.0,0.0,0.0,0.0,0.0,0.0,0.0,0.0,0.0,0.0,0.0,0.0,0.0,0.0,0.0,0.0,0.0,0.0,0.0,0.0,0.0,0.0,0.0,0.0,0.0,0.0,0.0,0.0,0.0,0.0,0.0,0.0,0.0,0.0,0.0,0.0,0.0,0.0,0.0,0.0,0.0,0.0,0.0,1.3609,0.0,0.0,0.0,0.0,0.0,0.0,0.0,0.0,0.0,0.0,0.0,0.0,0.0,0.0,0.0,0.0,0.0,0.0,0.0,0.0,0.0,0.0,0.0,1.5799,1.5777,1.5726,1.5507,1.5366,1.5307,1.5307,1.5307,1.5307,1.5307,1.5307,1.5307,1.5366,1.5703,1.6368,1.711,1.8536,0.0,0.0,0.0,0.0,0.0,0.0,0.0,0.0,0.0,0.0,0.0,0.0,0.0,0.0,0.0,0.0,0.0,0.0,0.0,0.0,0.0,0.0,0.0,0.0,0.0,0.0,0.0,0.0,0.0,0.0,0.0,0.0,0.0,0.0,0.0,0.0,0.0,0.0,0.0,0.0,0.0,0.0,0.0,0.0,0.0,0.0,0.0,0.0,0.0,0.0,0.0,0.0,0.0,0.0,0.0,0.0,0.0,0.0,0.0,0.0,0.0,0.0,0.0,0.0,0.0,0.0,0.0,0.0,0.0,1.5025,1.5025,1.5025,1.5025,1.5046,1.5353,1.4788,1.3609,0.0,0.0,0.0,0.0,0.0,0.0,0.0,0.0,0.0,0.0,0.0,0.0,0.0,0.0,0.0,0.0,0.0,0.0,0.0,0.0,0.0,0.0,1.5799,1.5675,1.5389,1.5595,1.561,1.5329,1.5307,1.5307,1.5307,1.5307,1.5307,1.5307,1.5595,1.6032,1.6642,1.9246,2.1708,2.3966,2.4167,2.4253,2.4072,2.0755,0.0,0.0,0.0,0.0,0.0,0.0,0.0,0.0,0.0,0.0,0.0,0.0,0.0,0.0,0.0,0.0,0.0,0.0,0.0,0.0,0.0,0.0,0.0,0.0,0.0,0.0,0.0,0.0,0.0,0.0,0.0,0.0,0.0,0.0,0.0,0.0,0.0,0.0,0.0,0.0,0.0,0.0,0.0,1.65,1.65,0.0,0.0,0.0,0.0,0.0,0.0,0.0,0.0,0.0,0.0,0.0,0.0,0.0,0.0,1.3609,1.3609,1.4542,1.6429,1.9334,2.0721,2.0721,2.0721,2.0721,2.0814,2.2388,0.0,1.3609,1.3609,0.0,0.0,0.0,0.0,0.0,0.0,0.0,0.0,0.0,0.0,0.0,0.0,0.0,0.0,0.0,0.0,0.0,0.0,0.0,0.0,0.0,1.6323,1.6589,1.592,1.7674,1.8047,1.6216,1.6972,1.692,1.564,1.5404,1.5389,1.558,1.5861,1.7349,2.0079,2.223,2.469,2.7412,2.7253,2.757,2.8158,2.5778,2.3591,2.1588,2.0392,0.0,0.0,0.0,0.0,0.0,0.0,0.0,0.0,0.0,0.0,0.0,0.0,0.0,0.0,0.0,0.0,0.0,0.0,0.0,0.0,0.0,0.0,0.0,0.0,0.0,0.0,0.0,0.0,0.0,0.0,0.0,0.0,0.0,0.0,0.0,0.0,0.0,0.0,0.0,1.65,1.6951,1.8205,1.7264,1.6162,0.0,0.0,0.0,0.0,0.0,0.0,0.0,0.0,0.0,1.704,1.9528,1.9992,1.8232,1.82,1.863,1.9448,2.1041,2.1807,2.1807,2.1807,2.1807,2.1849,2.2636,2.1747,1.9486,1.6421,1.4539,1.3609,0.0,0.0,0.0,0.0,0.0,1.3609,0.0,0.0,0.0,0.0,0.0,0.0,0.0,0.0,0.0,0.0,0.0,0.0,1.5937,1.7456,1.8257,1.7748,1.9932,2.0301,1.7875,1.8247,1.7796,1.6099,1.5632,1.5544,1.5791,1.682,1.9346,2.3441,2.5284,2.7678,3.0596,3.0419,3.0925,3.1956,3.1014,2.8253,2.4216,2.31,2.188,0.0,0.0,0.0,0.0,0.0,0.0,0.0,0.0,0.0,0.0,0.0,0.0,0.0,0.0,0.0,0.0,0.0,0.0,0.0,0.0,0.0,0.0,0.0,0.0,0.0,0.0,0.0,0.0,0.0,0.0,0.0,0.0,0.0,0.0,0.0,0.0,0.0,0.0,1.65,1.7113,1.8757,1.7502,1.65,0.0,0.0,0.0,0.0,0.0,0.0,1.8155,1.8744,1.9811,2.1469,2.5317,2.6227,2.3864,2.3845,2.3845,2.3845,2.294,2.2492,2.2492,2.2492,2.274,2.3205,2.3205,2.3971,2.487,2.0338,1.7098,1.5018,1.5018,1.4715,1.4364,1.4842,1.5018,1.5142,0.0,0.0,0.0,0.0,0.0,0.0,0.0,0.0,0.0,0.0,0.0,1.6276,1.7541,1.9382,2.0813,2.1469,2.162,2.1331,2.0554,1.8188,1.677,1.6659,1.6091,1.5777,1.5799,1.8864,2.2113,2.5438,2.807,3.0731,3.332,3.3933,3.4591,3.5246,3.5203,3.3025,2.9199,2.5733,2.43,2.4115,0.0,0.0,0.0,0.0,0.0,0.0,0.0,0.0,0.0,0.0,0.0,0.0,0.0,0.0,0.0,0.0,0.0,0.0,0.0,0.0,0.0,0.0,0.0,0.0,0.0,0.0,0.0,0.0,0.0,0.0,0.0,0.0,0.0,0.0,0.0,0.0,0.0,0.0,0.0,1.6651,1.6574,0.0,0.0,0.0,0.0,1.65,1.8455,2.0551,2.2656,2.4824,2.6047,2.616,2.8417,2.9558,2.9404,2.9404,2.9404,2.9365,2.5968,2.4363,2.4363,2.4363,2.5347,2.7029,2.7029,2.7092,2.6996,2.4932,2.2005,1.8828,1.8828,1.7766,1.646,1.8196,1.8828,1.9326,0.0,0.0,0.0,0.0,0.0,0.0,0.0,0.0,1.5799,1.5799,1.6892,1.8087,1.9216,2.2046,2.4052,2.4528,2.5524,2.5121,2.2717,2.0907,1.9531,1.8664,1.7602,1.8037,2.0196,2.2607,2.5468,2.8743,3.1001,3.344,3.6028,3.6252,3.6956,3.7985,3.7569,3.6363,3.4412,3.013,2.7369,2.5628,2.2712,2.1183,0.0,0.0,0.0,0.0,0.0,0.0,0.0,0.0,0.0,0.0,0.0,0.0,0.0,0.0,0.0,0.0,0.0,0.0,0.0,0.0,0.0,0.0,0.0,0.0,0.0,0.0,0.0,0.0,0.0,0.0,0.0,0.0,0.0,0.0,0.0,0.0,0.0,2.6,2.3791,0.0,0.0,1.882,1.966,2.4682,2.4472,2.5075,2.7293,2.8172,2.8618,2.8618,2.9396,2.9792,2.9792,2.9792,2.9792,2.9753,2.6206,2.4497,2.4497,2.4497,2.5511,2.7223,2.602,2.5513,2.5461,2.4787,2.305,2.0853,2.0853,2.0431,2.0089,2.1921,2.2574,2.276,0.0,0.0,0.0,0.0,0.0,0.0,0.0,0.0,1.5866,1.6076,1.8014,1.9966,2.1543,2.5026,2.7529,2.8238,2.8472,2.747,2.4792,2.2363,2.0537,1.9414,1.8732,1.9935,2.3276,2.5282,2.7993,3.1509,3.3305,3.54,3.7749,3.7749,3.8332,3.9376,3.8945,3.8362,3.7524,3.4217,3.1061,2.7998,2.5068,2.3392,2.2334,0.0,0.0,0.0,0.0,0.0,0.0,0.0,0.0,0.0,0.0,0.0,0.0,0.0,0.0,0.0,0.0,0.0,0.0,0.0,0.0,0.0,0.0,0.0,0.0,0.0,0.0,0.0,0.0,0.0,0.0,0.0,0.0,0.0,0.0,0.0,3.0628,2.9836,2.8705,2.6708,2.3421,2.2508,2.4255,2.9402,2.8442,2.8253,2.9716,2.9792,2.9792,2.9792,3.052,3.0896,3.0896,3.0168,3.0168,3.0876,2.7202,2.5118,2.4497,2.4497,2.5511,2.7237,2.5978,2.5439,2.5439,2.5439,2.4363,2.2771,2.3412,2.3267,2.2926,2.4767,2.5046,2.4497,0.0,0.0,0.0,0.0,0.0,0.0,0.0,1.5777,1.6009,1.6644,1.9095,2.1815,2.453,2.829,3.1158,3.2577,3.0198,2.8068,2.6749,2.2303,1.9444,1.8822,1.9489,2.141,2.4683,2.6704,2.9638,3.3559,3.4891,3.6507,3.8395,3.8395,3.8751,3.9406,3.9406,3.9032,3.8395,3.7749,3.5249,3.1481,2.8815,2.6683,2.4627,0.0,0.0,0.0,0.0,0.0,0.0,0.0,0.0,0.0,0.0,0.0,0.0,0.0,0.0,0.0,0.0,0.0,0.0,0.0,0.0,0.0,0.0,0.0,0.0,0.0,0.0,0.0,0.0,0.0,0.0,0.0,0.0,0.0,2.8592,3.1708,3.1482,2.7153,3.0427,3.052,2.4036,2.7293,2.9836,2.9892,2.9892,2.9892,2.9892,2.9892,2.9867,2.9792,3.1947,3.3102,3.3102,3.0959,3.0954,3.2946,2.9258,2.6537,2.4762,2.4762,2.5764,2.7489,2.7489,2.7489,2.7489,2.7489,2.6354,2.4755,2.6529,2.6134,2.4818,2.6633,2.6113,2.4497,0.0,0.0,0.0,0.0,0.0,0.0,1.5441,1.5441,1.5927,1.724,2.0563,2.4007,2.7181,3.0617,3.3214,3.4593,3.1407,2.8964,2.8113,2.3255,2.0557,2.0857,2.2877,2.5315,2.8158,2.9671,3.1914,3.4951,3.5804,3.6896,3.8182,3.8182,3.8614,3.9406,3.9406,3.9302,3.9107,3.8928,3.7941,3.6193,3.2602,2.9443,2.6727,0.0,0.0,0.0,0.0,0.0,0.0,0.0,0.0,0.0,0.0,0.0,0.0,0.0,0.0,0.0,0.0,0.0,0.0,0.0,0.0,0.0,0.0,0.0,0.0,0.0,0.0,0.0,0.0,0.0,0.0,0.0,0.0,2.5163,2.9227,3.1708,3.2248,2.9962,3.1243,3.1796,3.047,3.0018,3.0477,3.2072,3.2198,3.2198,3.2198,3.2198,3.1469,2.9842,3.1947,3.3102,3.3102,3.2499,3.1695,3.0708,3.1247,3.1246,3.0725,3.0725,3.1028,3.1502,3.1502,3.1502,3.1502,3.1502,2.9545,2.6457,2.5606,2.5792,2.6592,2.7099,2.6113,2.4497,0.0,0.0,0.0,0.0,0.0,0.0,1.5329,1.5418,1.6143,1.7891,2.1565,2.5184,2.8263,3.1285,3.3395,3.4188,3.088,2.8111,2.6602,2.2851,2.149,2.3266,2.5342,2.7812,3.0746,3.1809,3.3499,3.5923,3.6552,3.7345,3.8242,3.8509,3.8913,3.9406,3.9406,3.9406,3.9406,3.9406,3.9331,3.9035,3.6731,3.4277,3.178,2.985,2.8124,2.6582,2.5338,2.4839,2.4475,2.2406,0.0,0.0,0.0,0.0,0.0,0.0,0.0,0.0,0.0,0.0,0.0,0.0,0.0,0.0,0.0,0.0,0.0,0.0,0.0,0.0,0.0,0.0,0.0,0.0,2.6819,3.182,3.3343,3.3698,3.3347,3.2171,3.2559,3.2964,3.309,3.1947,3.1721,3.3002,3.3102,3.3102,3.3102,3.3102,3.2512,3.1231,3.2437,3.3102,3.3102,3.3102,3.2449,3.1205,3.2487,3.3102,3.3102,3.3102,3.3102,0.0,3.3102,3.3102,3.3036,3.2164,3.0026,0.0,0.0,0.0,0.0,0.0,2.6612,2.5678,0.0,0.0,0.0,0.0,0.0,0.0,1.5344,1.5558,1.6458,1.8439,2.2078,2.5472,2.8083,3.0717,3.2273,3.2273,2.9338,2.6405,2.3879,2.2238,2.2731,2.5797,2.7363,2.9593,3.2662,3.3455,3.4771,3.6718,3.7255,3.7853,3.8544,3.9107,3.9406,3.9406,3.9406,3.9436,3.9511,3.9511,3.9885,4.0502,4.0502,3.9664,3.7993,3.4257,3.3064,3.3015,3.0061,2.8536,2.7664,2.5821,0.0,0.0,0.0,0.0,0.0,0.0,0.0,0.0,0.0,0.0,0.0,0.0,0.0,0.0,0.0,0.0,0.0,0.0,0.0,0.0,0.0,0.0,0.0,0.0,3.3871,3.8403,3.8777,3.6718,3.4808,3.3903,3.4171,3.4183,3.353,3.3467,3.3467,3.3467,3.3467,3.3354,3.3115,0.0,0.0,0.0,0.0,3.3102,3.3102,3.3102,3.3102,3.3102,3.3102,3.3102,3.3102,3.3102,3.3102,3.3081,3.2646,3.246,3.2289,3.0471,2.8757,2.712,2.5482,2.5834,2.7309,2.7309,2.7309,0.0,0.0,0.0,0.0,0.0,0.0,0.0,1.5277,1.5366,1.6199,1.8414,2.167,2.4612,2.6749,2.9325,3.0896,3.0896,2.838,2.6108,2.4515,2.5076,2.6228,2.7949,3.0298,3.2362,3.4084,3.5296,3.6613,3.8035,3.8155,3.8556,3.9212,3.9346,3.9406,3.9406,3.9406,3.969,4.0217,4.0217,4.0591,4.1209,4.1209,4.0801,4.0031,3.8552,3.7597,3.673,3.4207,3.3459,3.3269,3.0517,2.9222,2.8302,2.5624,0.0,0.0,0.0,0.0,0.0,0.0,0.0,0.0,0.0,0.0,0.0,0.0,0.0,0.0,0.0,0.0,0.0,0.0,0.0,0.0,3.704,3.9685,4.0243,3.9127,3.8415,3.7257,3.5199,3.556,3.5927,3.5789,3.5753,3.5753,3.5753,3.5753,3.4974,3.319,3.3102,0.0,3.3102,3.3102,3.3102,3.3102,3.3102,3.3102,3.3102,0.0,0.0,3.3102,3.3102,3.3102,3.2918,2.9784,2.8421,2.8384,2.7995,2.7631,2.7268,2.6892,2.6975,2.7309,2.7309,2.7309,2.7309,0.0,0.0,0.0,0.0,0.0,0.0,1.5299,1.5441,1.6188,1.7966,2.0213,2.2288,2.3965,2.5611,2.6465,2.6123,2.4294,2.3426,2.4062,2.5349,2.7425,3.0418,3.2452,3.4278,3.5925,3.6611,3.7255,3.7898,3.8227,3.8556,3.8916,3.9242,3.9406,3.9406,3.9406,3.9586,3.9915,4.0262,4.0786,4.1433,4.1782,4.1938,4.187,4.0816,4.0256,3.9822,3.8072,3.7198,3.649,3.4038,3.2477,3.1015,2.7611,2.5298,2.3152,0.0,0.0,0.0,0.0,0.0,0.0,0.0,0.0,0.0,0.0,0.0,0.0,0.0,0.0,2.1721,0.0,0.0,3.1143,3.692,3.9795,4.1025,4.0265,3.9123,3.7903,3.6731,3.6472,3.6606,3.7111,3.67,3.6126,3.5449,3.5005,3.4258,3.3153,3.3102,3.3102,3.3102,3.3102,3.3102,3.3102,3.3102,3.3102,3.3102,3.3102,3.3102,3.3102,3.3102,3.3102,3.2982,3.1058,3.0192,3.0192,3.0192,3.0192,3.0011,2.8058,2.7309,2.7309,2.7309,2.7309,2.7309,0.0,0.0,0.0,0.0,0.0,0.0,0.0,1.5536,1.6114,1.7259,1.8629,1.9923,2.1001,2.1824,2.2034,2.1375,2.0672,2.139,2.4014,2.5674,2.8504,3.2886,3.4488,3.5985,3.7569,3.7716,3.7776,3.7776,3.8332,3.8586,3.8601,3.9137,3.9406,3.9406,3.9541,3.966,3.9825,4.0502,4.116,4.1822,4.2361,4.2865,4.319,4.2028,4.1863,4.2113,4.0995,3.9649,3.819,3.6815,3.4926,3.2665,2.9675,2.8149,2.635,2.0765,2.1096,0.0,0.0,0.0,0.0,0.0,0.0,0.0,0.0,0.0,2.5299,2.5952,2.6096,2.7232,3.096,3.2038,3.2934,3.4776,3.8214,4.0711,4.0933,3.9586,3.8397,3.7952,3.718,3.6934,3.7541,3.7064,3.6059,3.4517,3.3759,3.3283,3.3124,3.3102,3.3102,3.3102,3.3102,3.3102,3.3102,3.3102,3.3102,3.3102,3.3102,3.3102,3.3102,3.3102,3.3102,3.3102,3.3102,3.3102,3.3102,3.3102,3.3102,3.2711,2.8829,2.7309,2.7309,2.7309,2.7309,2.7309,0.0,0.0,0.0,0.0,0.0,0.0,0.0,0.0,1.56,1.6283,1.7793,1.8867,1.9023,2.0174,2.0653,1.9983,2.1415,2.3482,2.6078,2.8577,3.1509,3.5011,3.6956,3.808,3.8272,3.8868,3.9182,3.9182,3.9257,3.9287,3.9287,3.9361,3.9406,3.9436,4.0004,4.0621,4.1224,4.1901,4.2541,4.308,4.3175,4.325,4.3235,4.2541,4.2641,4.2995,4.1728,4.0041,3.8452,3.8841,3.7175,3.4957,3.5244,3.3755,3.1117,2.7149,0.0,2.2976,2.0333,1.95,2.0049,2.2818,2.4581,2.5743,0.0,0.0,2.9593,3.262,3.3247,3.3404,3.3914,3.5717,3.7207,3.7469,3.7952,3.8645,3.9651,4.0424,4.0163,3.8148,3.7808,3.7426,3.6653,3.7273,3.6808,3.4567,3.4314,3.3928,3.3133,3.3102,3.3102,3.3102,3.3102,3.3102,3.3102,3.3102,3.3102,3.3102,3.3102,3.3102,3.3102,3.3102,3.3102,3.3102,3.3102,3.3102,3.3102,3.3102,3.3102,3.2711,2.8829,2.7309,2.7309,2.7309,2.7309,2.7309,0.0,0.0,0.0,0.0,0.0,0.0,0.0,0.0,0.0,1.5913,1.6584,1.7004,1.7004,1.7513,1.7746,1.7454,1.9588,2.2228,2.5244,2.8609,3.2168,3.5908,3.7569,3.8571,3.8958,3.9257,3.9406,3.9406,3.9406,3.9601,3.996,3.9586,3.9616,3.9989,4.0277,4.0546,4.0894,4.1961,4.2541,4.2806,4.316,4.3085,4.2765,4.2515,4.1583,4.0292,3.9023,3.8005,0.0,0.0,3.5172,3.4569,3.6724,3.4357,3.0112,2.6567,2.5162,0.0,2.3182,2.2767,2.3015,0.0,2.6229,2.8007,2.8699,2.9588,3.1267,3.4685,3.5953,3.6436,3.6436,3.7246,3.79,0.0,3.79,3.807,3.8553,3.9024,3.8462,3.6136,3.5861,3.6242,3.7168,3.7634,3.6933,3.458,3.4397,3.423,3.3886,3.3865,3.3611,3.3124,3.3102,3.3347,3.3844,3.3347,3.3102,3.3102,3.3102,3.3102,3.3102,3.3102,3.3102,3.3102,3.3102,3.3102,3.3102,3.3102,3.3102,3.2939,3.1303,3.0666,3.0396,2.8128,2.7309,2.7309,0.0,0.0,0.0,0.0,0.0,0.0,0.0,0.0,0.0,0.0,1.569,1.5799,1.5799,1.5799,1.5799,1.5799,1.7851,2.0557,2.3868,2.7784,3.1764,3.5775,3.7526,3.8706,3.9391,3.9571,3.9586,3.9406,3.9586,3.9915,4.0382,3.9885,4.0019,4.0681,4.0861,4.0954,4.1029,4.2167,4.2646,4.2676,4.294,4.2671,4.2036,4.1123,3.9338,3.7227,3.6493,3.5519,0.0,0.0,3.2063,3.2078,3.4876,3.2894,2.8941,2.593,2.4901,2.4652,2.4359,2.4506,0.0,2.5738,2.7553,2.947,3.0764,3.1679,3.3038,3.5783,3.6998,3.7639,3.7861,3.79,3.79,3.79,3.79,3.79,3.79,3.79,3.7037,3.4672,3.3273,3.3679,3.6645,3.6933,3.6227,3.4528,3.4397,3.4397,3.4397,3.4397,3.4105,3.3475,3.3454,3.3759,3.4397,3.3539,3.3102,3.3102,3.3102,3.3102,3.3102,3.3102,3.3102,3.3102,3.3102,3.3102,3.3102,3.3102,3.3102,3.3102,3.3102,3.3102,3.2624,2.8736,2.7309,2.7309,0.0,0.0,0.0,0.0,0.0,0.0,0.0,0.0,0.0,0.0,0.0,0.0,0.0,1.5799,1.5799,1.5799,1.6997,1.9187,2.2538,2.6465,3.0417,3.4383,3.7032,3.8706,3.9391,4.0053,4.0053,3.9406,4.0053,4.0382,4.0397,4.0382,4.0726,4.1403,4.2051,4.2336,4.2381,4.2995,4.326,4.322,4.2661,4.2036,4.1074,3.7886,3.582,3.4697,3.531,0.0,0.0,2.9743,2.8425,2.7168,2.9204,2.9743,0.0,2.7299,2.4723,2.2493,2.2479,0.0,2.479,2.7605,2.8503,2.9693,3.3417,3.4868,3.5752,3.6763,3.6845,3.6963,3.7756,3.79,3.79,3.79,3.79,3.79,3.79,3.79,3.7037,3.4672,3.0432,2.9505,0.0,3.4502,3.4476,3.441,3.4397,3.4397,3.4397,3.4397,3.4397,3.4356,3.4356,3.4377,3.4397,3.3539,3.3102,3.3102,3.3102,3.3102,3.3102,3.3102,3.3102,3.3102,3.3102,3.3102,3.3102,3.3102,3.3102,3.3102,3.3102,3.3102,3.2624,2.8736,2.7309,2.7309,0.0,0.0,0.0,0.0,0.0,0.0,0.0,0.0,0.0,0.0,0.0,0.0,0.0,0.0,0.0,0.0,1.6959,1.8745,2.1206,2.5076,2.8455,3.112,3.4622,3.6791,3.7464,3.8527,3.9185,3.9406,3.9631,3.9945,4.0382,3.993,4.0337,4.1403,4.1628,4.1972,4.241,4.2616,4.2705,4.2571,4.1025,4.0008,3.9098,3.6254,3.353,3.1059,0.0,0.0,0.0,2.5914,2.5166,2.4968,2.6973,2.6432,2.482,2.3842,2.3766,2.4241,2.5457,0.0,2.9183,3.1332,3.2738,3.4058,3.5744,3.6645,3.722,3.7534,3.7547,3.7586,3.7861,3.6632,3.6083,3.7652,3.79,3.79,3.79,3.6567,3.4724,3.2431,3.0764,0.0,0.0,0.0,0.0,3.4397,3.4397,3.4397,3.4397,3.4397,3.4397,3.4397,3.4397,3.4397,3.4397,3.3539,3.339,3.3971,3.339,3.3102,3.3102,3.3102,3.3102,3.3102,3.3102,3.3102,3.3102,3.3102,3.3102,3.3102,3.3102,3.3102,3.2939,3.1635,3.1147,3.0778,0.0,0.0,0.0,0.0,0.0,0.0,0.0,0.0,0.0,0.0,0.0,0.0,0.0,0.0,0.0,0.0,0.0,1.7766,1.9507,2.2682,2.5375,2.7363,3.0582,3.2632,3.3305,3.4592,3.534,3.5533,3.6251,3.6924,3.7584,3.7389,3.8138,3.9652,3.9858,4.034,4.0973,4.0973,4.0718,4.0116,3.8093,3.6611,3.5265,3.2407,2.9713,0.0,0.0,0.0,2.3355,2.2503,2.2213,2.2438,2.3725,2.3501,2.2764,2.2929,2.372,2.5057,2.7389,2.9689,3.1862,3.3843,3.5325,3.6502,3.7168,3.7403,3.756,3.7848,3.756,3.739,3.7821,3.4633,3.2712,3.5051,3.6123,3.6946,3.7782,3.5874,3.3849,3.2404,3.1502,3.1005,0.0,0.0,0.0,3.4332,3.4397,3.4397,3.4397,3.4397,3.4397,3.4397,3.4397,3.4397,3.4397,3.3844,3.3844,3.4397,3.3518,3.3102,3.3102,3.3102,3.3102,3.3102,3.3102,3.3102,3.3102,3.3102,3.3102,3.3102,3.3102,3.3102,3.3002,3.221,3.1922,3.1487,0.0,0.0,0.0,0.0,0.0,0.0,0.0,0.0,0.0,0.0,0.0,0.0,0.0,0.0,0.0,0.0,0.0,0.0,1.7519,1.9477,2.1415,2.3266,2.5342,2.6749,2.7448,2.8798,2.9204,2.862,3.0448,3.1675,3.2303,3.2946,3.4278,3.6134,3.6731,3.7345,3.796,3.796,3.7242,3.5925,3.3933,3.2003,2.9953,2.668,0.0,0.0,0.0,0.0,0.0,1.9744,1.9828,1.9902,1.9902,2.1349,2.3287,2.4539,2.4705,2.5136,2.8262,3.0708,3.2927,3.5155,3.6227,3.691,3.773,3.7276,3.6923,3.7743,3.6998,3.6397,0.0,0.0,2.8055,3.0281,3.2555,3.4829,3.705,3.5652,3.4397,0.0,0.0,0.0,0.0,0.0,0.0,3.4241,0.0,3.4397,3.4397,3.4515,3.4515,3.4397,3.4397,3.4397,3.4397,3.4356,3.4335,3.4314,3.3496,3.3102,3.3102,3.3102,3.3102,3.3102,3.3102,3.3102,3.3102,3.3102,3.3102,3.3102,3.3102,3.3027,3.2675,3.0577,2.9792,2.9576,0.0,0.0,0.0,0.0,0.0,0.0,0.0,0.0,0.0,0.0,0.0,0.0,0.0,0.0,0.0,0.0,0.0,0.0,1.6263,1.8119,1.9426,1.9929,2.2787,2.4695,2.5423,0.0,0.0,2.8666,2.9112,2.9431,2.9594,2.9774,3.0118,3.0642,3.1299,3.1689,3.1838,3.1838,3.1374,3.0477,0.0,2.8051,2.7288,0.0,0.0,0.0,0.0,0.0,0.0,0.0,0.0,2.2618,2.2618,2.4339,2.6202,2.5307,2.7113,2.9549,3.0297,3.3383,3.6567,3.7155,3.7116,3.7103,3.7756,3.7276,3.6923,3.7743,3.7665,3.543,0.0,0.0,0.0,2.5756,2.7768,0.0,3.008,3.2587,0.0,3.4397,0.0,3.5443,3.3692,3.3522,0.0,0.0,3.4397,3.4397,3.4397,3.6057,3.6201,3.445,3.4397,3.4397,3.4397,3.3759,3.342,3.3432,3.3197,3.3102,3.3102,3.3102,3.3102,3.3102,3.3102,3.3102,3.3102,3.3102,3.3102,3.3102,3.3102,3.2097,3.0577,3.0005,2.9792,2.9731,0.0,0.0,0.0,0.0,0.0,0.0,0.0,0.0,0.0,0.0,0.0,0.0,0.0,0.0,0.0,0.0,0.0,0.0,0.0,1.6817,1.7431,1.7431,1.919,2.0486,2.1165,2.2258,0.0,0.0,0.0,0.0,2.4698,2.5001,2.545,2.6045,2.6689,2.7138,2.741,2.741,0.0,0.0,0.0,0.0,0.0,0.0,0.0,0.0,0.0,0.0,0.0,0.0,0.0,2.5551,2.6709,2.8308,2.9586,2.8733,0.0,3.3871,3.3581,3.5905,3.8305,3.7978,3.7652,3.7351,3.7155,3.6763,3.6724,3.7704,3.709,0.0,2.431,0.0,0.0,0.0,0.0,0.0,3.0524,3.3652,3.5547,0.0,3.5561,0.0,3.5966,3.594,3.594,0.0,3.594,3.594,3.594,3.7181,3.7299,3.5979,3.594,3.573,3.5265,3.3828,3.3102,3.3102,3.3102,3.3102,3.3102,3.3102,3.3102,3.3102,0.0,3.3102,3.3102,3.3102,3.3102,3.3102,3.3102,3.1746,2.9792,2.9792,2.9792,2.9792,0.0,0.0,0.0,0.0,0.0,0.0,0.0,0.0,0.0,0.0,0.0,0.0,0.0,0.0,0.0,0.0,0.0,0.0,0.0,0.0,0.0,0.0,1.5881,1.6166,1.6712,0.0,0.0,0.0,0.0,0.0,0.0,0.0,0.0,0.0,0.0,0.0,0.0,0.0,0.0,0.0,0.0,0.0,0.0,0.0,0.0,0.0,0.0,0.0,0.0,0.0,2.7034,2.8295,3.1048,3.2318,3.2939,3.3646,3.5668,3.761,3.7384,3.8075,3.8697,3.8057,3.79,3.7639,3.658,3.6109,3.5822,3.5652,0.0,3.0155,2.2166,2.0948,2.3304,2.9933,0.0,3.4397,3.4397,3.6149,3.6684,3.4633,3.4397,3.5325,3.7678,3.79,3.79,3.79,3.79,3.79,3.79,3.79,3.79,3.79,3.79,3.7317,3.6151,3.4221,3.3261,3.3261,3.3167,3.3102,3.3102,3.3102,3.3102,3.3102,0.0,0.0,3.3102,3.3102,3.3102,3.3102,3.3102,3.1746,2.9792,2.9792,2.9999,3.0213,0.0,0.0,0.0,0.0,0.0,0.0,0.0,0.0,0.0,0.0,0.0,0.0,0.0,0.0,0.0,0.0,0.0,0.0,0.0,0.0,0.0,0.0,1.6286,1.663,1.6864,0.0,0.0,0.0,0.0,0.0,0.0,0.0,0.0,0.0,0.0,0.0,0.0,0.0,0.0,0.0,0.0,0.0,0.0,0.0,0.0,0.0,0.0,0.0,0.0,0.0,2.9819,2.9595,3.2928,3.4168,3.5057,3.837,3.9202,3.9274,4.0237,3.9328,3.8057,3.7926,3.79,3.7848,3.7639,3.6083,0.0,0.0,2.337,2.2598,2.0988,2.2244,2.5158,3.0176,3.2908,3.4397,0.0,0.0,3.4855,0.0,0.0,0.0,0.0,0.0,0.0,0.0,0.0,3.79,3.79,3.79,3.79,3.79,3.79,3.6869,3.4778,3.4362,3.4168,3.4181,3.3441,3.3102,3.3102,3.3102,3.3102,3.3102,0.0,0.0,3.3102,3.3102,3.3102,3.3102,3.3102,3.1746,2.9792,2.9792,3.0967,3.2273,0.0,0.0,0.0,0.0,0.0,0.0,0.0,0.0,0.0,0.0,1.5421,1.5316,0.0,0.0,0.0,0.0,0.0,0.0,0.0,0.0,0.0,0.0,0.0,0.0,0.0,0.0,0.0,0.0,0.0,0.0,0.0,0.0,0.0,0.0,0.0,0.0,0.0,0.0,0.0,0.0,0.0,0.0,0.0,0.0,0.0,0.0,0.0,0.0,0.0,0.0,2.7316,3.0389,3.3906,3.5956,3.7372,3.9101,3.9589,3.9567,3.9538,3.9612,3.9246,3.7416,3.624,3.4986,3.294,0.0,0.0,0.0,2.0699,2.0699,2.0699,2.2571,0.0,2.7053,2.7331,2.8521,3.2143,0.0,0.0,0.0,0.0,0.0,0.0,0.0,0.0,0.0,0.0,0.0,3.79,3.79,3.79,3.79,3.79,3.6776,3.4424,3.4397,3.4397,3.4397,3.3518,3.3102,3.3102,3.3102,3.3102,3.3102,3.3102,0.0,3.3102,3.3102,3.3102,3.3102,3.3102,3.1746,2.9792,2.9792,3.1205,3.2788,0.0,0.0,0.0,0.0,0.0,0.0,0.0,1.5012,1.5182,1.6255,1.5993,1.58,1.6047,1.5584,0.0,0.0,0.0,0.0,0.0,0.0,0.0,0.0,0.0,0.0,0.0,0.0,0.0,0.0,0.0,0.0,0.0,0.0,0.0,0.0,0.0,0.0,0.0,0.0,0.0,0.0,0.0,0.0,0.0,0.0,0.0,0.0,0.0,0.0,0.0,0.0,2.3539,2.8742,3.2642,3.575,3.7972,3.8243,3.8891,3.9478,3.915,4.0143,4.0515,3.7299,3.445,3.1457,2.765,2.3617,0.0,2.0699,2.0699,2.0844,2.1341,0.0,2.3523,0.0,2.2792,2.3435,2.8128,3.2038,0.0,0.0,0.0,0.0,0.0,0.0,0.0,0.0,0.0,0.0,3.79,3.79,3.79,3.79,3.79,3.6776,3.4424,3.4397,3.4397,3.4397,3.3717,3.3283,3.3124,3.3283,3.3283,3.3102,3.3102,0.0,0.0,3.3102,3.3102,3.3102,3.3102,3.1746,2.9854,3.0319,3.162,3.2851,0.0,0.0,0.0,0.0,0.0,0.0,0.0,1.5104,1.5653,1.6307,1.6349,1.624,1.6032,1.5478,0.0,0.0,0.0,0.0,0.0,0.0,0.0,0.0,0.0,0.0,0.0,0.0,0.0,0.0,0.0,0.0,0.0,0.0,0.0,0.0,0.0,0.0,0.0,0.0,0.0,0.0,0.0,0.0,0.0,0.0,0.0,0.0,0.0,0.0,0.0,0.0,0.0,2.1997,2.7028,3.1128,3.454,3.6761,0.0,0.0,4.212,4.2063,4.0736,3.8331,3.3666,2.8743,2.5221,0.0,2.0699,2.0699,2.0699,2.1328,2.3406,0.0,0.0,0.0,0.0,2.4478,2.1996,2.9004,3.4397,0.0,0.0,0.0,0.0,0.0,0.0,0.0,0.0,0.0,0.0,3.79,3.79,3.79,3.79,3.6776,3.4424,3.4397,3.4397,3.4397,3.4314,3.3865,3.3124,3.3928,3.3844,3.3102,0.0,0.0,0.0,3.3102,3.3102,3.3102,3.3102,3.1746,3.003,3.206,3.2927,3.3077,0.0,0.0,0.0,0.0,0.0,0.0,0.0,1.5038,1.5418,1.6702,1.6598,1.6356,1.6242,1.5701,1.5257,0.0,0.0,0.0,0.0,0.0,0.0,0.0,0.0,0.0,0.0,0.0,0.0,0.0,0.0,0.0,0.0,0.0,0.0,0.0,0.0,0.0,0.0,0.0,0.0,0.0,0.0,0.0,0.0,0.0,0.0,0.0,0.0,0.0,1.8235,0.0,0.0,0.0,2.2681,2.58,0.0,0.0,3.5803,3.8788,4.0875,4.1376,4.0657,3.7887,3.4241,3.0325,2.6386,0.0,2.2361,2.0974,2.0699,2.0974,2.1891,2.2427,0.0,0.0,0.0,0.0,2.4792,2.5578,2.873,0.0,0.0,0.0,0.0,0.0,0.0,0.0,0.0,0.0,0.0,3.79,3.726,3.5835,3.5796,3.5338,3.441,3.4397,3.4397,3.4397,3.4397,3.4209,3.3886,3.423,3.3928,3.3102,0.0,0.0,0.0,3.3102,3.3102,3.3102,3.3102,3.2562,3.1896,3.2776,3.3102,3.3102,0.0,0.0,0.0,0.0,0.0,0.0,1.5091,1.5182,1.5509,1.6568,1.6663,1.6516,1.6166,1.5601,1.5118,1.4848,0.0,0.0,0.0,0.0,0.0,0.0,0.0,0.0,0.0,0.0,0.0,0.0,0.0,0.0,0.0,0.0,0.0,0.0,0.0,0.0,0.0,0.0,0.0,0.0,0.0,0.0,0.0,0.0,0.0,0.0,0.0,0.0,0.0,0.0,0.0,0.0,0.0,0.0,0.0,0.0,3.2607,3.6632,3.7887,3.9246,3.9703,3.7146,3.4345,3.1235,0.0,0.0,2.3054,2.1105,2.0699,2.0699,2.0699,2.2009,2.2779,0.0,0.0,2.4672,2.6279,2.4308,2.5722,0.0,0.0,0.0,0.0,0.0,0.0,0.0,0.0,0.0,0.0,3.7246,3.6109,3.445,3.4397,3.4397,3.4397,3.4397,3.4397,3.4397,3.4397,3.4397,3.4397,3.4397,3.4076,3.3475,0.0,0.0,0.0,3.3102,3.3102,3.3102,3.3102,3.3102,3.3102,3.3102,3.3102,3.3102,0.0,0.0,0.0,0.0,0.0,0.0,0.0,1.5627,1.6166,1.5588,1.6493,1.6754,1.563,1.4973,1.4689,1.4876,0.0,0.0,0.0,0.0,0.0,0.0,0.0,0.0,0.0,0.0,0.0,0.0,0.0,0.0,0.0,0.0,0.0,0.0,0.0,0.0,0.0,0.0,0.0,0.0,0.0,0.0,0.0,0.0,0.0,0.0,0.0,0.0,0.0,0.0,0.0,0.0,0.0,1.9759,2.1302,2.4207,2.8704,3.2881,3.3496,3.5757,3.7639,3.641,3.3535,3.0398,0.0,0.0,2.2087,2.0935,2.0699,2.0699,2.0699,2.0725,2.1459,2.3693,2.4084,0.0,2.4137,2.6044,0.0,0.0,0.0,0.0,0.0,0.0,0.0,0.0,0.0,0.0,0.0,3.5704,3.4424,3.4397,3.4397,3.4397,3.4397,3.4397,3.4397,3.4397,3.4397,3.4397,3.4397,3.4397,3.4397,0.0,0.0,0.0,0.0,3.3102,3.3102,3.3102,3.3102,3.3102,3.3102,3.3102,3.3102,3.3102,0.0,0.0,0.0,0.0,0.0,0.0,0.0,1.4385,1.4685,1.4868,1.5208,1.5434,1.5496,1.496,1.4781,1.5265,0.0,0.0,0.0,0.0,0.0,0.0,0.0,0.0,0.0,0.0,0.0,1.7705,1.6421,0.0,0.0,0.0,0.0,0.0,0.0,0.0,0.0,0.0,0.0,0.0,0.0,0.0,0.0,0.0,0.0,0.0,0.0,0.0,0.0,0.0,0.0,0.0,0.0,0.0,0.0,2.0662,2.4726,2.8808,2.9776,3.1594,3.2803,3.1241,2.9131,2.7049,2.5519,2.3133,2.1132,2.0765,1.9418,1.8803,2.0398,2.0699,2.0935,2.1655,2.308,0.0,0.0,0.0,0.0,0.0,0.0,0.0,0.0,0.0,0.0,0.0,0.0,0.0,0.0,3.4803,3.4397,3.4397,3.4397,3.4397,3.4397,3.4397,3.4397,3.4397,3.4397,3.4397,3.4397,3.4397,0.0,0.0,0.0,0.0,0.0,3.3992,3.3992,3.3992,3.3992,3.3992,3.3928,3.3326,3.3102,3.3102,0.0,0.0,0.0,0.0,0.0,0.0,0.0,1.4045,1.4232,1.4293,1.4546,1.4755,1.4842,1.4515,1.4568,1.5225,0.0,0.0,0.0,0.0,0.0,0.0,0.0,0.0,0.0,0.0,0.0,1.8454,1.7656,1.7275,1.7275,1.7275,0.0,0.0,0.0,0.0,0.0,0.0,0.0,0.0,0.0,0.0,1.5004,0.0,0.0,0.0,0.0,0.0,0.0,0.0,0.0,0.0,0.0,0.0,0.0,0.0,2.1237,2.4205,2.6232,2.7562,2.8137,2.704,2.6399,0.0,0.0,2.3001,2.1734,2.0882,1.8829,1.7654,1.9104,2.0097,2.0699,2.0699,2.3328,0.0,0.0,0.0,0.0,0.0,0.0,0.0,0.0,0.0,0.0,0.0,0.0,0.0,0.0,0.0,3.4397,3.4397,3.4397,3.4397,3.4397,3.4397,3.4397,3.4397,3.4397,3.4397,3.4397,3.4397,0.0,0.0,0.0,0.0,0.0,3.4397,3.4397,3.4397,3.4397,3.4397,3.4335,3.3802,3.359,3.3526,0.0,0.0,0.0,0.0,0.0,0.0,0.0,0.0,0.0,0.0,1.4402,1.4554,1.3875,1.3804,1.4075,0.0,0.0,0.0,0.0,0.0,0.0,0.0,0.0,0.0,0.0,1.5799,1.701,1.953,1.9695,1.9855,2.0014,1.9681,1.8325,0.0,0.0,0.0,0.0,0.0,0.0,0.0,1.3804,1.3804,0.0,0.0,0.0,0.0,0.0,0.0,0.0,0.0,0.0,0.0,0.0,0.0,0.0,0.0,0.0,0.0,0.0,2.3693,2.3771,2.3745,2.4818,2.5484,2.4058,2.3797,0.0,2.1145,1.8829,1.7199,1.7199,1.8973,2.0515,2.066,2.4243,0.0,0.0,0.0,0.0,0.0,0.0,0.0,0.0,0.0,0.0,0.0,0.0,0.0,0.0,0.0,3.4397,3.4397,3.4397,3.4397,3.4397,3.4397,3.4397,3.4397,3.4397,3.4397,3.4397,3.4397,0.0,0.0,0.0,0.0,0.0,3.4397,3.4397,3.4397,3.4397,3.4397,3.4397,3.4397,3.4397,3.4272,0.0,0.0,0.0,0.0,0.0,0.0,0.0,0.0,0.0,0.0,0.0,1.3984,1.3817,1.3804,0.0,0.0,0.0,0.0,0.0,0.0,0.0,0.0,0.0,0.0,0.0,1.5799,1.6452,1.7797,1.9595,2.1358,2.299,1.9451,1.8422,1.9459,1.7338,0.0,0.0,0.0,0.0,0.0,1.3804,1.3804,0.0,0.0,0.0,0.0,1.5322,1.5859,0.0,0.0,0.0,0.0,0.0,0.0,0.0,0.0,1.7499,1.7787,1.8597,0.0,2.0519,2.0192,2.0388,2.057,0.0,0.0,0.0,0.0,0.0,1.7199,1.7199,1.7654,1.862,2.0411,2.1603,2.2911,0.0,0.0,0.0,0.0,0.0,0.0,0.0,0.0,0.0,0.0,0.0,0.0,0.0,0.0,3.4397,3.4397,3.4397,3.4397,3.4397,3.4397,3.4397,3.4397,3.4397,3.4397,3.4397,3.4397,0.0,0.0,0.0,0.0,3.4397,3.4397,3.4397,3.4397,3.4397,3.4397,3.4397,3.4397,3.4397,3.4272,0.0,0.0,0.0,0.0,0.0,0.0,0.0,0.0,0.0,0.0,0.0,0.0,0.0,0.0,0.0,0.0,0.0,0.0,0.0,0.0,0.0,0.0,0.0,0.0,0.0,1.5901,1.6683,1.7199,1.8465,2.0281,2.2518,2.1054,2.1041,2.2113,1.8702,1.6343,1.4897,1.5225,1.4764,1.3804,1.3804,0.0,0.0,0.0,0.0,0.0,1.513,1.5649,0.0,1.6595,1.7,1.7199,0.0,0.0,0.0,0.0,1.7199,1.7199,1.7199,1.8194,1.9056,1.831,1.8507,1.8756,1.8244,0.0,0.0,0.0,0.0,1.7199,1.7199,1.8925,2.044,2.066,2.1577,0.0,0.0,0.0,0.0,0.0,0.0,0.0,0.0,0.0,0.0,0.0,0.0,0.0,0.0,0.0,3.4397,3.4397,3.4397,3.4397,3.4397,3.4397,3.4397,3.4397,3.4397,3.4397,3.4397,3.4397,0.0,0.0,0.0,0.0,3.4397,3.4397,3.4397,3.4397,3.4397,3.4397,3.4397,3.4397,3.4397,3.4272,0.0,0.0,0.0,0.0,0.0,0.0,0.0,0.0,0.0,0.0,0.0,0.0,0.0,0.0,0.0,0.0,0.0,0.0,0.0,0.0,0.0,0.0,0.0,0.0,1.3817,1.6023,1.7199,1.7199,1.7562,1.875,2.0739,2.3027,2.3719,2.287,1.895,1.6137,1.4459,1.6385,1.5879,1.3831,1.4184,0.0,0.0,0.0,0.0,0.0,0.0,0.0,0.0,1.6291,1.6686,1.7052,1.716,0.0,0.0,0.0,0.0,0.0,1.7199,1.8283,1.9159,1.802,1.8465,1.8924,1.7944,0.0,0.0,0.0,0.0,0.0,1.7264,2.0701,0.0,0.0,0.0,0.0,0.0,0.0,0.0,0.0,0.0,0.0,0.0,0.0,0.0,0.0,0.0,0.0,0.0,0.0,0.0,3.4397,3.4397,3.4397,3.4397,3.4397,3.4397,3.4397,3.4397,3.4397,3.4397,3.4397,3.4397,0.0,0.0,0.0,3.4397,3.4397,3.4397,3.4397,3.4397,3.4397,3.4397,3.4397,3.4314,3.4084,0.0,0.0,0.0,0.0,0.0,0.0,0.0,0.0,0.0,0.0,0.0,0.0,0.0,0.0,0.0,0.0,0.0,0.0,0.0,0.0,0.0,0.0,0.0,1.5774,1.3835,1.6023,1.7199,1.7199,1.9182,2.0346,2.0739,2.3027,2.2008,1.8231,1.7512,1.7013,1.6702,1.7042,1.5879,1.3966,1.5892,0.0,0.0,0.0,0.0,0.0,0.0,0.0,0.0,1.6045,1.6343,1.6379,1.7,0.0,0.0,0.0,0.0,0.0,1.7199,1.9471,2.159,2.0451,2.0294,2.0385,2.0202,1.8633,0.0,0.0,0.0,0.0,0.0,1.9405,2.1734,0.0,0.0,0.0,0.0,0.0,0.0,0.0,0.0,0.0,0.0,0.0,0.0,0.0,0.0,0.0,0.0,0.0,0.0,3.4397,3.4397,3.4397,3.4397,3.4397,3.4397,3.4397,3.4397,3.4397,3.4397,3.4397,3.4397,0.0,0.0,3.4397,3.4397,3.4397,3.4397,3.4397,3.4397,3.4397,3.4397,3.4397,3.3915,3.3283,0.0,0.0,0.0,0.0,0.0,0.0,0.0,0.0,0.0,0.0,0.0,0.0,0.0,0.0,0.0,0.0,0.0,0.0,0.0,0.0,0.0,0.0,1.597,1.6702,1.5666,1.6663,1.7199,1.7199,1.8281,2.0714,2.4334,2.2937,2.1119,1.9038,1.7771,1.7199,1.7199,1.7199,1.6608,1.5731,0.0,0.0,0.0,0.0,0.0,0.0,0.0,0.0,0.0,0.0,1.6255,1.6748,1.7081,0.0,0.0,0.0,0.0,0.0,1.7199,1.8818,2.0831,2.2204,2.1616,2.0699,2.0699,1.9862,0.0,0.0,0.0,0.0,0.0,0.0,0.0,0.0,0.0,0.0,0.0,0.0,0.0,0.0,0.0,0.0,0.0,0.0,0.0,0.0,0.0,0.0,0.0,0.0,0.0,0.0,3.4397,3.4397,3.4397,3.4397,3.4397,3.4397,3.4397,3.4397,3.4397,3.4397,3.4397,3.4397,0.0,3.4397,3.4397,3.4397,3.4397,3.4397,3.4397,3.4397,3.4397,3.4397,3.3844,3.3102,0.0,0.0,0.0,0.0,0.0,0.0,0.0,0.0,0.0,0.0,0.0,0.0,0.0,0.0,0.0,0.0,0.0,0.0,0.0,0.0,1.3804,1.3804,1.6778,1.8035,1.7212,1.8007,1.8556,1.8819,1.9355,2.2047,2.6631,2.2571,2.0411,1.9796,1.8007,1.7199,1.7199,1.7199,1.7199,1.7199,0.0,0.0,0.0,0.0,0.0,0.0,0.0,0.0,0.0,0.0,0.0,0.0,0.0,0.0,0.0,1.7199,1.7199,1.7199,1.7199,1.8429,2.0296,2.2701,2.1577,2.0019,2.0569,2.1105,0.0,0.0,0.0,0.0,0.0,0.0,0.0,0.0,0.0,0.0,0.0,0.0,0.0,0.0,0.0,0.0,0.0,0.0,0.0,0.0,0.0,0.0,0.0,0.0,0.0,0.0,3.4397,3.4397,3.4397,3.4397,3.4397,3.4397,3.4397,3.4397,3.4397,3.4397,3.4397,3.4397,3.4397,3.4397,3.4397,3.4397,3.4397,3.4397,3.4397,3.4397,3.4377,3.4168,3.3675,3.3102,0.0,0.0,0.0,0.0,0.0,0.0,0.0,0.0,0.0,0.0,0.0,0.0,0.0,0.0,0.0,0.0,0.0,0.0,0.0,0.0,1.3804,1.3804,1.9081,2.0518,1.7264,2.0373,2.2531,2.3601,2.573,2.5923,2.4293,2.1838,1.9547,1.7434,1.7288,1.7199,1.7199,1.7199,1.7199,1.7199,1.7199,0.0,0.0,0.0,0.0,0.0,0.0,0.0,0.0,0.0,0.0,0.0,0.0,0.0,1.7199,1.7199,1.7199,1.7199,1.7199,1.963,2.1956,2.1158,1.9182,1.802,2.0202,2.2335,0.0,2.3849,0.0,0.0,0.0,0.0,0.0,0.0,0.0,0.0,0.0,0.0,0.0,0.0,0.0,0.0,0.0,0.0,0.0,0.0,0.0,0.0,0.0,0.0,0.0,0.0,0.0,3.4397,3.4397,3.4397,3.4397,3.4397,3.4397,3.4397,3.4397,3.4397,3.4397,3.4397,3.4397,3.4397,3.4397,3.4397,3.4397,3.4397,3.4397,3.4397,3.4293,3.3496,3.3154,3.3102,0.0,0.0,0.0,0.0,0.0,0.0,0.0,0.0,0.0,0.0,0.0,0.0,0.0,0.0,0.0,0.0,0.0,0.0,0.0,0.0,1.5915,1.5915,1.8675,1.9265,1.7238,2.0819,2.3862,2.6198,2.7072,2.6328,2.4045,2.1773,1.9456,1.7199,1.7199,1.7199,1.7199,1.7199,1.7199,1.7199,1.7199,1.7199,0.0,0.0,0.0,0.0,0.0,0.0,0.0,0.0,1.6477,1.6637,1.7055,1.7199,1.7199,1.7199,1.7199,1.7199,1.7199,1.8166,1.9407,2.0438,2.0032,0.0,0.0,2.4691,2.8386,2.8386,2.8386,0.0,0.0,0.0,0.0,0.0,0.0,0.0,0.0,0.0,0.0,0.0,0.0,0.0,0.0,0.0,0.0,0.0,0.0,0.0,0.0,0.0,0.0,0.0,0.0,3.296,3.4384,3.4397,3.4397,3.4397,3.4397,3.4397,3.4397,3.4397,3.4397,3.4397,3.4397,3.4397,3.4397,3.4397,3.4397,3.4397,3.4397,3.3229,3.1503,3.1175,3.1922,3.3102,0.0,0.0,0.0,0.0,0.0,0.0,0.0,0.0,0.0,0.0,0.0,0.0,0.0,0.0,0.0,0.0,0.0,0.0,0.0,1.5261,1.6441,1.716,1.7957,1.8336,1.8319,2.1316,2.4409,2.749,2.6788,2.526,2.2988,2.142,1.9456,1.7199,1.7199,1.7199,1.7199,1.7199,1.7199,1.7199,1.7199,1.7199,0.0,0.0,0.0,0.0,0.0,0.0,0.0,0.0,1.6898,1.7199,1.7199,1.7199,1.7199,1.7199,1.7199,1.7199,1.7199,1.7199,1.8111,2.1891,0.0,0.0,2.1603,2.6559,3.1214,3.1934,3.1502,0.0,0.0,0.0,0.0,0.0,0.0,0.0,0.0,0.0,0.0,0.0,0.0,0.0,0.0,0.0,0.0,0.0,0.0,0.0,0.0,0.0,0.0,0.0,0.0,3.2117,3.3313,3.3326,3.3326,3.3326,3.3326,3.3692,3.4397,3.4397,3.4397,3.4397,3.4397,3.4397,3.4345,3.3613,3.3326,3.3326,3.3326,3.2037,3.0184,3.0184,3.1415,3.3102,0.0,0.0,0.0,0.0,0.0,0.0,0.0,0.0,0.0,0.0,0.0,0.0,0.0,0.0,0.0,0.0,0.0,0.0,0.0,1.3804,1.4816,1.7094,1.7199,1.8281,2.062,2.2099,2.437,2.749,2.5195,2.291,2.0699,2.0673,1.9443,1.7238,1.7251,1.7251,1.7225,1.7212,1.7199,1.7199,1.7199,1.7199,1.7199,0.0,0.0,0.0,0.0,0.0,0.0,0.0,1.7199,1.7199,1.7199,1.7212,1.7212,1.7199,1.7212,1.7212,1.7212,1.7212,1.8858,0.0,0.0,0.0,2.3563,2.7654,3.1659,3.3927,0.0,3.1018,0.0,0.0,0.0,0.0,0.0,0.0,0.0,0.0,0.0,0.0,0.0,0.0,0.0,0.0,0.0,0.0,0.0,0.0,0.0,0.0,0.0,0.0,0.0,0.0,3.1018,3.1005,3.1005,3.1005,3.1005,3.2176,3.4358,3.4358,3.4358,3.4358,3.4358,3.4358,3.4188,3.1934,3.1005,3.1005,3.1005,3.1005,3.1005,3.0986,3.1883,3.3086,0.0,0.0,0.0,0.0,0.0,0.0,0.0,0.0,0.0,0.0,0.0,0.0,0.0,0.0,0.0,0.0,0.0,0.0,0.0,1.3804,1.4816,1.7094,1.7199,1.7536,1.8216,1.8662,2.172,2.749,2.3602,2.1354,2.066,1.9012,1.875,1.9731,0.0,2.1159,1.9549,1.7902,1.7199,1.7199,1.7199,1.7199,1.7199,0.0,0.0,0.0,0.0,0.0,0.0,0.0,0.0,0.0,1.7199,1.7588,1.7928,1.7379,1.7601,1.8098,1.8336,1.7813,0.0,2.1799,0.0,0.0,0.0,2.652,0.0,0.0,0.0,0.0,0.0,0.0,0.0,0.0,0.0,0.0,0.0,0.0,0.0,0.0,0.0,0.0,0.0,0.0,0.0,0.0,0.0,0.0,0.0,0.0,0.0,0.0,3.1685,3.1345,3.1005,3.1005,3.1005,3.1005,3.1005,3.1339,3.2025,3.2025,3.2025,3.2025,3.2025,3.2025,3.1973,3.128,3.1005,3.1005,3.1005,3.1005,3.093,3.0362,3.0778,3.1538,0.0,0.0,0.0,0.0,0.0,0.0,0.0,0.0,0.0,0.0,1.4079,0.0,0.0,0.0,0.0,0.0,0.0,0.0,0.0,0.0,1.4411,1.5797,1.5849,1.6271,1.7186,1.8111,2.0165,2.3405,2.0661,1.93,1.93,1.8816,1.9836,2.2074,0.0,2.1995,2.0555,1.819,1.7199,1.7199,1.7199,1.7199,1.7199,0.0,0.0,0.0,0.0,0.0,0.0,0.0,0.0,0.0,1.7199,1.7525,1.7889,1.7732,1.7798,1.7968,1.8166,1.8048,0.0,2.0949,2.3537,2.5573,2.6036,0.0,0.0,0.0,0.0,0.0,0.0,0.0,0.0,0.0,0.0,0.0,0.0,0.0,0.0,0.0,0.0,0.0,0.0,0.0,0.0,0.0,0.0,0.0,0.0,0.0,0.0,0.0,3.1005,3.1005,3.1005,3.1005,3.1005,3.1005,3.1005,3.1005,3.1005,3.1005,3.1005,3.1005,3.1005,3.1005,3.1005,3.1005,3.1005,3.1005,3.1005,3.1005,3.0949,3.047,3.0375,3.0438,0.0,0.0,0.0,0.0,0.0,0.0,0.0,0.0,0.0,0.0,1.4533,1.3875,0.0,0.0,0.0,0.0,0.0,0.0,0.0,0.0,1.411,1.411,1.411,1.5078,1.7146,1.9287,1.9351,1.7199,1.7199,1.7199,1.7251,1.9601,2.2035,2.432,0.0,2.1197,2.0844,1.8281,1.7199,1.7212,1.7421,1.7382,1.7199,1.7199,0.0,0.0,0.0,0.0,0.0,0.0,0.0,0.0,1.7199,1.7251,1.7434,1.8098,1.785,1.7356,1.7356,1.8338,0.0,2.2138,2.5443,0.0,3.3443,0.0,0.0,0.0,0.0,0.0,0.0,0.0,0.0,0.0,0.0,0.0,0.0,0.0,0.0,0.0,0.0,0.0,0.0,0.0,0.0,0.0,0.0,0.0,0.0,0.0,0.0,0.0,3.1005,3.1005,3.1005,3.1005,3.0901,0.0,3.0691,3.0691,3.0691,3.0901,3.1005,3.1005,3.1005,3.1005,3.1005,3.1005,3.1005,3.1005,3.1005,3.1005,3.1005,3.1005,3.0533,2.9908,0.0,0.0,0.0,0.0,0.0,0.0,0.0,0.0,0.0,0.0,0.0,0.0,0.0,0.0,0.0,0.0,0.0,0.0,0.0,0.0,1.6477,1.6477,1.6477,1.6702,1.7186,1.7682,1.7706,1.7199,1.7199,1.7199,0.0,0.0,0.0,2.6746,0.0,2.5038,2.3106,1.895,1.7199,1.7356,1.9208,1.8842,1.7199,1.7199,1.7199,0.0,0.0,0.0,0.0,0.0,0.0,0.0,1.7199,1.763,1.8046,1.7591,1.797,1.8532,1.8532,2.0702,0.0,0.0,2.7095,3.3182,3.4175,3.3626,0.0,0.0,0.0,0.0,0.0,0.0,0.0,0.0,0.0,0.0,0.0,0.0,0.0,0.0,0.0,0.0,0.0,0.0,0.0,0.0,0.0,0.0,0.0,0.0,0.0,3.1005,3.1005,3.1005,3.1005,3.1005,3.0072,0.0,2.8251,2.8251,2.8316,3.0163,3.1005,3.1005,3.1005,3.1005,3.1005,3.1005,3.1005,3.1005,3.1005,3.1005,3.1005,3.1005,3.0892,3.0647,0.0,0.0,0.0,0.0,0.0,0.0,0.0,0.0,0.0,0.0,0.0,0.0,0.0,0.0,0.0,0.0,0.0,0.0,0.0,0.0,0.0,0.0,1.7199,1.7199,1.7199,1.8295,1.8332,1.7199,1.7199,0.0,0.0,0.0,0.0,2.7451,0.0,2.398,2.0636,1.8218,1.7199,1.7303,1.853,1.8295,1.7199,1.7199,1.7199,1.7199,1.7199,0.0,0.0,0.0,0.0,0.0,0.0,0.0,1.7745,1.7316,1.7617,1.8087,1.8087,0.0,0.0,2.8174,0.0,3.3051,3.4149,3.4397,0.0,0.0,0.0,0.0,0.0,0.0,0.0,0.0,0.0,0.0,0.0,0.0,0.0,0.0,0.0,0.0,0.0,0.0,0.0,0.0,0.0,0.0,0.0,3.1005,3.0495,2.9366,2.9327,2.9327,2.9327,2.9327,2.8708,2.749,2.749,2.749,2.7542,2.876,2.9327,2.9327,2.9327,2.9954,3.1005,3.1005,3.1005,3.1005,3.1005,3.1005,3.1005,3.1005,3.1005,3.0874,0.0,0.0,0.0,0.0,0.0,0.0,0.0,0.0,0.0,0.0,0.0,0.0,0.0,0.0,0.0,0.0,0.0,0.0,0.0,0.0,0.0,0.0,1.7199,1.7199,1.7199,1.9104,1.9143,1.7199,0.0,0.0,0.0,0.0,0.0,2.624,0.0,2.1159,1.7199,1.7199,1.7199,1.7199,1.7199,1.7199,1.7199,1.7199,1.7199,1.7199,1.7199,1.7199,1.7199,1.7199,0.0,0.0,0.0,0.0,1.7199,1.7199,1.7199,1.7199,1.7199,0.0,2.203,3.4765,3.4734,0.0,3.347,3.3809,0.0,0.0,0.0,0.0,0.0,0.0,0.0,0.0,0.0,0.0,0.0,0.0,0.0,0.0,0.0,0.0,0.0,0.0,0.0,0.0,0.0,0.0,3.1005,3.0626,2.951,2.7555,2.749,2.749,2.749,2.749,2.749,2.749,2.749,2.749,2.749,2.749,2.749,2.749,2.749,2.8604,3.0404,3.0404,3.062,3.1005,3.1005,3.1005,3.1005,3.1005,3.1005,3.0892,0.0,0.0,0.0,0.0,0.0,0.0,0.0,0.0,0.0,0.0,1.7199,0.0,0.0,0.0,0.0,0.0,0.0,0.0,1.7199,0.0,0.0,1.7199,1.7199,1.7199,1.7199,1.751,1.7512,1.7199,0.0,0.0,0.0,0.0,0.0,2.159,0.0,1.9679,1.7199,1.7199,1.7199,1.7199,1.7199,1.7199,1.7199,1.7199,1.7199,1.7199,1.7199,1.7199,1.7199,1.7199,1.7199,0.0,0.0,0.0,1.7199,1.7199,1.7199,1.7199,1.7199,0.0,2.7098,0.0,3.304,3.3496,0.0,0.0,0.0,0.0,0.0,0.0,0.0,0.0,0.0,0.0,0.0,0.0,0.0,0.0,0.0,0.0,0.0,0.0,0.0,0.0,0.0,0.0,0.0,0.0,3.1005,2.9061,2.7816,2.7503,2.749,2.749,2.749,2.749,2.749,2.749,2.749,2.749,2.749,2.749,2.749,2.749,2.749,2.7689,2.7977,2.7977,2.9183,3.1005,3.1005,3.1005,3.1005,3.1005,3.1005,3.0986,0.0,0.0,0.0,0.0,0.0,0.0,0.0,0.0,0.0,0.0,0.0,1.7199,0.0,0.0,0.0,1.7199,1.7199,1.7199,1.7199,1.7199,1.7199,1.7199,1.7199,1.7199,1.7199,1.7199,1.7199,0.0,0.0,0.0,0.0,2.2832,2.3839,0.0,0.0,0.0,0.0,1.7758,1.7199,1.7199,1.7199,1.7199,1.7199,1.7199,1.7199,1.7199,0.0,0.0,1.7199,1.7199,1.7199,1.7199,1.7199,0.0,0.0,0.0,1.7199,1.7199,1.7199,2.1303,2.6148,0.0,3.0777,3.2228,3.1241,0.0,0.0,0.0,0.0,0.0,0.0,0.0,0.0,0.0,0.0,0.0,0.0,0.0,0.0,0.0,0.0,0.0,0.0,0.0,0.0,0.0,0.0,3.0424,2.91,2.8068,2.749,2.749,2.749,2.749,2.749,2.749,2.749,2.749,2.749,2.749,2.749,2.749,2.749,2.749,2.749,2.749,2.749,2.749,2.8107,2.9035,2.9035,2.9836,3.1005,3.1005,3.1005,3.1005,0.0,0.0,0.0,0.0,0.0,0.0,0.0,0.0,0.0,0.0,0.0,0.0,0.0,0.0,0.0,0.0,1.7021,1.7021,1.7021,1.7136,1.7199,1.7199,1.7199,1.7199,1.7199,1.7199,0.0,0.0,0.0,0.0,2.0791,2.4779,2.6028,0.0,2.2584,2.1249,0.0,0.0,0.0,1.7199,1.7199,1.7562,1.8085,1.8085,1.8085,1.8085,1.8085,0.0,0.0,0.0,0.0,0.0,1.7392,1.7199,0.0,0.0,0.0,0.0,0.0,0.0,2.4228,2.4751,2.7523,3.0111,0.0,0.0,0.0,0.0,0.0,0.0,0.0,0.0,0.0,0.0,0.0,0.0,0.0,0.0,0.0,0.0,0.0,0.0,0.0,0.0,0.0,0.0,0.0,2.9353,2.7581,2.749,2.749,2.749,2.749,2.749,2.749,2.749,2.749,2.749,2.749,2.749,2.749,2.749,2.749,2.749,2.749,2.749,2.749,2.749,2.7859,2.8395,2.8395,2.947,3.1005,3.1005,3.1005,3.1005,0.0,0.0,0.0,0.0,0.0,0.0,0.0,0.0,0.0,0.0,0.0,0.0,0.0,1.7199,1.7021,1.6575,1.6543,1.6543,1.6543,1.6958,1.7199,1.7199,1.7199,0.0,1.7199,1.7199,0.0,0.0,0.0,0.0,2.0739,2.3145,2.5378,2.7216,2.4947,2.2714,2.0699,0.0,0.0,0.0,0.0,1.853,2.0529,0.0,0.0,0.0,0.0,0.0,0.0,0.0,0.0,0.0,0.0,0.0,0.0,0.0,0.0,0.0,0.0,2.0571,0.0,1.8806,2.2752,0.0,0.0,0.0,0.0,0.0,0.0,0.0,0.0,0.0,0.0,0.0,0.0,0.0,0.0,0.0,0.0,0.0,0.0,0.0,0.0,0.0,0.0,0.0,0.0,2.762,2.7503,2.749,2.749,2.749,2.749,2.749,2.749,2.749,2.749,2.749,2.749,2.749,2.749,2.749,2.749,2.749,2.749,2.749,2.749,2.749,2.88,3.0822,3.0822,3.0901,3.1005,3.1005,3.1005,3.1005,0.0,0.0,0.0,0.0,0.0,0.0,0.0,0.0,0.0,0.0,0.0,0.0,0.0,1.7199,1.7136,1.6955,1.6958,1.6958,1.6958,1.7115,1.7199,1.7199,1.7199,1.7199,1.7199,1.7199,0.0,0.0,0.0,1.841,2.0739,2.3027,2.4542,2.5221,2.2937,2.227,2.2871,2.2871,0.0,0.0,0.0,0.0,0.0,0.0,0.0,0.0,0.0,0.0,0.0,0.0,0.0,0.0,0.0,0.0,0.0,0.0,0.0,0.0,0.0,0.0,0.0,1.9483,2.0988,2.3384,0.0,0.0,0.0,0.0,0.0,0.0,0.0,0.0,0.0,0.0,0.0,0.0,0.0,0.0,0.0,0.0,0.0,0.0,0.0,0.0,0.0,0.0,0.0,0.0,2.749,2.749,2.749,2.749,2.749,2.749,2.749,2.749,2.749,2.749,2.749,2.749,2.749,2.749,2.749,2.749,2.749,2.749,2.749,2.749,2.8003,2.8891,3.0398,3.1005,3.1005,3.1005,3.1005,3.1005,0.0,0.0,0.0,0.0,0.0,0.0,0.0,0.0,0.0,0.0,0.0,0.0,0.0,0.0,1.7199,1.7199,1.7199,1.7199,1.7199,1.7199,1.7199,1.7199,1.7199,1.7199,1.7199,0.0,0.0,0.0,0.0,0.0,0.0,2.2244,2.2949,2.2937,2.2192,2.2257,0.0,0.0,0.0,2.0699,0.0,0.0,2.0699,0.0,0.0,0.0,0.0,0.0,0.0,0.0,0.0,0.0,0.0,0.0,0.0,0.0,0.0,0.0,1.7199,0.0,0.0,0.0,0.0,2.1085,0.0,0.0,0.0,0.0,0.0,0.0,0.0,0.0,0.0,0.0,0.0,0.0,0.0,0.0,0.0,0.0,0.0,0.0,0.0,0.0,0.0,0.0,0.0,0.0,2.749,2.749,2.749,2.749,2.749,2.749,2.749,2.749,2.7111,2.637,2.637,2.6759,2.749,2.749,2.749,2.749,2.749,2.749,2.749,2.749,2.749,2.7725,3.0085,3.1005,3.1005,3.1005,3.1005,3.1005,0.0,0.0,0.0,0.0,0.0,0.0,0.0,0.0,0.0,0.0,0.0,0.0,0.0,0.0,0.0,1.7303,1.7303,1.7303,1.7303,1.7303,1.7264,1.7199,1.7199,1.7238,1.7303,0.0,0.0,0.0,0.0,0.0,0.0,0.0,2.0699,2.0804,2.3001,2.2766,2.0699,0.0,2.0699,2.0699,0.0,2.0739,2.0791,0.0,0.0,0.0,2.0817,2.0791,0.0,0.0,0.0,0.0,0.0,0.0,0.0,0.0,0.0,0.0,0.0,0.0,0.0,0.0,0.0,0.0,2.621,0.0,0.0,0.0,0.0,0.0,0.0,0.0,0.0,0.0,0.0,0.0,0.0,0.0,0.0,0.0,0.0,0.0,0.0,0.0,0.0,0.0,0.0,2.749,2.749,2.749,2.7464,2.7398,2.7398,2.7398,2.7398,2.7398,2.6289,2.4098,2.4098,2.5299,2.749,2.749,2.749,2.749,2.749,2.749,2.749,2.749,2.749,2.7725,3.0006,3.094,3.1005,3.1005,3.1005,3.1005,0.0,0.0,0.0,0.0,0.0,0.0,0.0,0.0,0.0,0.0,0.0,0.0,0.0,0.0,1.9731,1.9731,1.9731,1.9731,1.9731,1.9731,1.8973,1.7264,1.7199,1.7994,1.9679,0.0,0.0,0.0,0.0,0.0,0.0,0.0,0.0,0.0,2.1354,2.1302,2.0699,2.0699,0.0,0.0,2.0699,2.1681,0.0,0.0,0.0,0.0,0.0,2.3158,2.3158,0.0,2.2048,2.0699,0.0,0.0,0.0,0.0,0.0,0.0,1.7199,0.0,0.0,0.0,0.0,0.0,2.2041,2.2767,0.0,0.0,0.0,0.0,0.0,0.0,0.0,0.0,0.0,0.0,0.0,0.0,0.0,0.0,0.0,0.0,0.0,0.0,0.0,0.0,2.749,2.749,2.749,2.749,2.6733,2.5103,2.5051,2.5051,2.5051,2.5051,2.4709,2.4098,2.4098,2.5299,2.749,2.749,2.749,2.749,2.749,2.749,2.749,2.749,2.749,2.7555,2.8212,2.951,3.1005,3.1005,3.1005,3.1005,0.0,0.0,0.0,0.0,0.0,0.0,0.0,0.0,0.0,0.0,0.0,0.0,0.0,0.0,0.0,2.0699,2.0699,2.0699,2.0699,2.0699,2.0084,1.8724,1.8661,1.93,2.066,0.0,0.0,0.0,0.0,0.0,0.0,0.0,0.0,0.0,0.0,0.0,0.0,0.0,0.0,0.0,2.1734,0.0,0.0,2.4098,2.492,0.0,0.0,0.0,2.5519,2.5519,2.3381,0.0,0.0,0.0,0.0,0.0,0.0,0.0,0.0,0.0,0.0,0.0,0.0,0.0,2.0081,2.0881,2.2423,0.0,0.0,0.0,0.0,0.0,0.0,0.0,0.0,0.0,0.0,0.0,0.0,0.0,0.0,0.0,0.0,0.0,0.0,2.7464,2.749,2.749,2.749,2.6605,2.5482,2.415,2.4098,2.4098,2.4098,2.4098,2.4098,2.4098,2.4098,2.4803,2.6106,2.7059,2.6981,2.6119,2.7085,2.749,2.749,2.749,2.749,2.7594,2.8577,2.9797,3.1005,3.1005,3.1005,3.1005,0.0,0.0,0.0,0.0,0.0,0.0,0.0,0.0,0.0,0.0,0.0,0.0,0.0,0.0,0.0,0.0,2.0699,2.0699,2.0699,2.0699,2.0699,2.0699,2.0699,2.0799,2.102,0.0,0.0,0.0,0.0,0.0,0.0,0.0,0.0,0.0,0.0,0.0,0.0,0.0,0.0,2.0896,2.3184,2.4098,0.0,0.0,2.4476,0.0,2.6772,2.749,2.7464,2.7203,2.4426,0.0,0.0,0.0,0.0,0.0,2.0699,0.0,0.0,0.0,0.0,0.0,0.0,0.0,1.9708,1.9708,1.9708,0.0,0.0,0.0,0.0,0.0,0.0,0.0,0.0,0.0,0.0,0.0,0.0,0.0,0.0,0.0,0.0,2.5049,2.6083,2.715,2.7281,2.7255,2.7124,2.5208,2.4098,2.4098,2.4098,2.4098,2.4098,2.4098,2.4098,2.4098,2.4098,2.4098,2.4176,2.6198,2.6031,2.4228,2.6514,2.7359,2.7137,2.7402,2.749,2.7699,2.9797,3.0607,3.0607,3.0607,3.0783,3.1005,0.0,0.0,0.0,0.0,0.0,0.0,0.0,0.0,0.0,0.0,0.0,0.0,0.0,0.0,0.0,0.0,2.0699,2.0699,2.0699,2.0699,2.0699,2.0699,2.0699,2.1432,2.2995,2.3028,0.0,0.0,0.0,0.0,0.0,0.0,0.0,0.0,0.0,0.0,0.0,0.0,0.0,2.0896,2.3184,0.0,2.4307,2.6132,2.6837,2.6889,2.7333,2.749,2.7216,0.0,2.4163,2.3223,0.0,0.0,0.0,0.0,0.0,0.0,0.0,0.0,0.0,0.0,0.0,0.0,1.9708,1.9708,1.9708,0.0,0.0,0.0,0.0,0.0,0.0,0.0,0.0,0.0,0.0,0.0,0.0,0.0,0.0,0.0,0.0,2.4646,2.4764,2.5587,2.5952,2.573,2.4801,2.4346,2.4098,2.4098,2.4098,2.4098,2.4098,2.4098,2.4098,2.4098,2.4098,2.4098,2.4124,2.4568,2.4529,2.4228,2.6514,2.6459,2.4907,2.6733,2.749,2.7542,2.7986,2.8186,2.8186,2.8186,2.9379,3.1005,0.0,0.0,0.0,0.0,0.0,0.0,0.0,0.0,0.0,0.0,0.0,0.0,0.0,0.0,0.0,0.0,0.0,0.0,0.0,0.0,2.0699,2.0699,2.1623,2.26,2.3573,2.3595,2.3595,0.0,0.0,0.0,0.0,0.0,0.0,0.0,0.0,0.0,0.0,0.0,2.3811,2.4146,2.4112,0.0,2.4359,2.6628,2.749,2.749,2.749,2.749,2.7229,2.5519,2.4581,0.0,0.0,2.2753,2.1446,0.0,2.0961,2.142,0.0,0.0,0.0,2.1613,0.0,0.0,0.0,2.0767,1.9708,1.9708,0.0,0.0,0.0,0.0,0.0,0.0,0.0,0.0,0.0,0.0,0.0,0.0,0.0,0.0,0.0,2.3954,2.3809,2.4594,2.5182,2.509,2.415,2.4098,2.4098,2.4098,2.4098,2.4098,2.4098,2.4098,2.4098,2.4098,2.4098,2.4098,2.4137,2.5286,2.5809,2.5858,2.6994,2.685,2.5871,2.702,2.749,2.749,2.749,2.749,2.749,2.749,2.8251,2.9431,1.7357,0.0,0.0,0.0,0.0,0.0,0.0,0.0,0.0,0.0,0.0,0.0,0.0,0.0,0.0,0.0,0.0,0.0,0.0,0.0,0.0,2.2025,2.3531,2.4133,2.361,2.3595,2.3595,0.0,0.0,0.0,0.0,0.0,0.0,0.0,0.0,0.0,0.0,0.0,0.0,2.7433,0.0,2.4765,2.4937,2.6309,2.7111,2.7464,2.7242,2.7033,2.6746,2.6135,0.0,2.445,2.5234,2.4137,0.0,0.0,0.0,0.0,0.0,0.0,0.0,0.0,0.0,2.1721,0.0,0.0,0.0,1.9314,0.0,0.0,0.0,0.0,0.0,0.0,0.0,0.0,0.0,0.0,0.0,0.0,0.0,0.0,0.0,2.2712,2.2934,2.3549,2.4269,2.4439,2.3902,2.3876,2.3836,2.3771,2.3771,2.3876,2.4098,2.4098,2.4098,2.4098,2.4098,2.4098,2.4163,2.6018,2.7085,2.7477,2.7049,2.6837,2.6876,2.732,2.749,2.749,2.749,2.8136,2.9042,2.9042,2.9042,2.9309,1.7916,1.8084,0.0,0.0,0.0,0.0,0.0,0.0,0.0,0.0,0.0,0.0,0.0,0.0,0.0,0.0,0.0,0.0,2.6838,0.0,0.0,2.6823,2.7024,2.603,2.3655,2.3595,2.3595,2.3595,0.0,0.0,0.0,0.0,0.0,0.0,2.3595,0.0,0.0,0.0,2.7315,0.0,2.7318,2.7201,0.0,2.5176,2.5743,2.7359,2.637,2.5336,2.4685,0.0,2.5772,2.4973,0.0,2.3758,2.3183,0.0,0.0,0.0,0.0,0.0,0.0,0.0,2.3902,0.0,0.0,0.0,2.0,1.7911,0.0,0.0,0.0,0.0,0.0,0.0,0.0,0.0,0.0,0.0,0.0,0.0,0.0,0.0,0.0,0.0,2.189,2.1799,2.2361,2.2806,2.3026,2.3039,2.2895,2.2596,2.2596,2.3079,2.4098,2.4098,2.4098,2.4098,2.4098,2.4098,2.4111,2.4372,2.56,2.7385,2.5364,2.4489,2.4646,2.6667,2.749,2.749,2.749,3.0405,3.4589,3.4589,3.4589,3.4633,1.9461,1.9731,0.0,0.0,0.0,0.0,0.0,0.0,0.0,0.0,0.0,0.0,0.0,0.0,0.0,0.0,0.0,3.088,0.0,0.0,0.0,0.0,2.76,0.0,2.5941,2.5923,2.5923,2.5923,2.4358,0.0,0.0,0.0,0.0,0.0,2.5923,0.0,2.76,0.0,2.76,0.0,0.0,0.0,0.0,2.4992,2.5544,2.7612,2.7896,2.6749,2.5186,0.0,2.5821,0.0,0.0,0.0,0.0,0.0,0.0,0.0,0.0,0.0,0.0,0.0,0.0,0.0,2.0922,0.0,2.0411,0.0,0.0,0.0,0.0,0.0,0.0,0.0,0.0,0.0,0.0,0.0,0.0,0.0,0.0,0.0,0.0,0.0,0.0,0.0,0.0,2.2467,2.2609,2.2387,2.2191,2.206,2.2269,2.2635,2.3107,2.3772,2.4098,2.4098,2.4098,2.4098,2.4098,2.4098,2.462,2.5559,2.5966,2.7001,2.8467,2.9431,2.9826,2.9826,2.9826,3.1192,3.317,3.317,3.4157,3.5504,2.1276,0.0,0.0,0.0,0.0,0.0,0.0,0.0,0.0,0.0,0.0,0.0,2.8807,3.0994,0.0,0.0,3.2602,3.2781,0.0,0.0,2.76,0.0,0.0,0.0,0.0,0.0,2.76,2.76,0.0,0.0,0.0,0.0,0.0,0.0,0.0,2.76,2.76,0.0,0.0,2.76,2.76,2.76,2.7408,2.5715,2.6122,2.772,2.8708,2.7855,2.6242,2.5905,2.6022,0.0,2.614,0.0,0.0,0.0,0.0,0.0,2.3068,0.0,0.0,0.0,0.0,0.0,0.0,0.0,0.0,0.0,0.0,0.0,0.0,0.0,0.0,0.0,0.0,0.0,0.0,0.0,0.0,0.0,0.0,0.0,0.0,0.0,0.0,0.0,2.1341,2.193,2.193,2.1655,2.1498,2.1498,2.1917,2.223,2.2402,2.3315,2.3889,2.4098,2.4433,2.4564,2.4564,2.423,2.4449,2.5188,2.7623,2.9759,3.1511,3.1511,3.1511,3.1511,3.1511,3.1511,3.1511,3.1511,3.32,3.5504,2.3263,2.2312,0.0,0.0,0.0,0.0,0.0,0.0,0.0,0.0,0.0,0.0,0.0,0.0,0.0,0.0,0.0,3.1555,3.1391,0.0,2.76,0.0,0.0,2.76,0.0,0.0,0.0,2.76,0.0,0.0,0.0,0.0,0.0,0.0,0.0,2.76,2.76,2.76,2.76,2.76,2.76,2.76,2.76,0.0,2.7522,2.7612,2.7645,0.0,0.0,2.6188,2.6576,0.0,0.0,0.0,0.0,0.0,0.0,0.0,0.0,0.0,0.0,2.6866,0.0,0.0,0.0,0.0,2.0699,0.0,0.0,0.0,0.0,0.0,0.0,0.0,0.0,0.0,0.0,0.0,0.0,0.0,0.0,0.0,0.0,0.0,0.0,1.9423,2.0282,2.0739,2.0739,2.0739,2.0738,2.0738,2.125,2.1799,2.2388,2.2766,2.3326,2.4112,2.5231,2.5756,2.5715,2.4607,2.5342,2.7633,3.0241,3.1421,3.1511,3.1511,3.1511,3.1511,3.1511,3.1511,3.1511,3.1511,3.32,3.5504,0.0,0.0,0.0,0.0,0.0,0.0,0.0,2.76,0.0,0.0,0.0,0.0,0.0,3.3888,3.6207,0.0,0.0,3.5233,3.1735,3.0658,0.0,0.0,0.0,3.0179,0.0,0.0,0.0,0.0,0.0,0.0,0.0,0.0,0.0,0.0,0.0,2.76,0.0,0.0,0.0,0.0,0.0,3.0179,2.9985,0.0,0.0,2.76,2.76,2.76,0.0,2.7124,2.7253,2.7511,2.6982,2.6457,2.6016,2.6008,2.5635,0.0,0.0,0.0,2.4293,2.5064,0.0,0.0,0.0,0.0,0.0,0.0,0.0,0.0,0.0,0.0,0.0,0.0,0.0,0.0,0.0,0.0,0.0,0.0,0.0,0.0,0.0,0.0,0.0,1.7933,1.8935,1.9681,0.0,2.0099,2.0294,2.0699,2.1603,2.2192,2.2402,2.3263,2.4025,2.4706,2.5216,2.5591,2.581,2.6229,2.7784,3.0224,3.1122,3.1511,3.1511,3.1511,3.1511,3.1511,3.1511,3.1511,3.1511,3.1511,3.2064,3.311,2.4129,0.0,0.0,0.0,0.0,0.0,0.0,0.0,0.0,0.0,3.3723,0.0,3.7118,0.0,3.8569,0.0,3.9406,3.7956,3.453,3.3439,0.0,3.154,3.1511,0.0,0.0,0.0,0.0,0.0,0.0,2.76,0.0,0.0,0.0,0.0,0.0,2.76,2.7764,0.0,3.0957,0.0,0.0,3.0943,0.0,0.0,2.841,2.76,0.0,2.76,2.76,2.76,2.76,2.76,2.76,2.7565,2.7484,2.7227,2.651,2.6264,2.8412,2.7186,0.0,2.5312,2.4698,0.0,2.4098,0.0,0.0,0.0,0.0,0.0,0.0,0.0,0.0,0.0,0.0,0.0,0.0,1.8244,0.0,0.0,0.0,0.0,0.0,0.0,1.7434,1.7972,1.8703,1.9304,0.0,0.0,2.0387,2.0975,2.1917,2.248,2.2675,2.3843,2.462,2.5005,2.555,2.5865,2.6055,2.7111,2.8515,3.0164,3.1092,3.1511,3.1511,3.1511,3.1511,3.1511,3.1511,3.1511,3.1511,3.1511,3.2108,3.317,0.0,0.0,0.0,0.0,2.6749,0.0,0.0,0.0,3.5832,0.0,4.0962,4.7249,4.713,4.4835,4.2307,3.981,3.9466,0.0,3.9586,3.6894,0.0,0.0,3.1705,3.1645,3.1511,0.0,0.0,0.0,0.0,0.0,0.0,0.0,0.0,0.0,2.76,0.0,2.7944,3.0314,2.994,2.8019,3.0508,2.9925,2.7869,3.0358,2.976,2.76,2.76,2.76,2.76,2.76,2.76,2.76,2.76,2.8528,2.9593,2.9623,2.7919,2.6802,3.0392,2.9582,2.7673,2.7523,0.0,0.0,0.0,0.0,2.4803,0.0,0.0,0.0,0.0,0.0,0.0,0.0,0.0,0.0,0.0,0.0,0.0,0.0,0.0,0.0,0.0,1.7745,1.792,1.9384,1.9475,1.9565,0.0,0.0,2.0909,2.1485,2.21,2.2663,2.3239,2.4398,2.5033,2.5104,2.6177,2.6616,2.6497,2.7255,2.766,2.7929,3.0418,3.1511,3.1511,3.1511,3.1511,3.1511,3.1511,3.1585,3.1705,3.1705,3.332,3.5504,2.6941,2.7285,2.748,0.0,2.7375,2.8004,0.0,0.0,0.0,0.0,4.4371,4.6546,4.4551,4.3708,4.3021,4.2367,4.0528,0.0,0.0,0.0,0.0,3.4411,3.4471,3.3544,3.1526,3.1511,0.0,3.1511,0.0,0.0,2.76,0.0,0.0,0.0,0.0,0.0,3.0418,2.9131,2.934,3.0568,3.1227,2.9925,0.0,0.0,2.8171,2.76,2.76,2.76,2.76,2.76,2.76,2.76,2.76,2.8528,2.9653,2.9955,2.9584,2.9147,2.9479,3.0016,2.9995,2.7993,2.7059,2.6631,0.0,0.0,0.0,0.0,0.0,0.0,0.0,0.0,0.0,0.0,0.0,0.0,0.0,0.0,0.0,1.9552,0.0,0.0,1.8451,1.8715,1.9071,1.9475,1.9226,1.9265,0.0,0.0,0.0,2.1459,2.21,2.2868,2.385,2.4623,2.5425,2.627,2.655,2.6919,2.7306,2.7511,2.8665,3.0538,3.1212,3.1511,3.1511,3.1511,3.1511,3.1511,3.1511,3.2721,3.4471,3.4471,3.4905,3.5504,2.76,0.0,0.0,2.9114,0.0,0.0,2.877,0.0,0.0,3.746,4.2472,0.0,4.5089,4.5044,4.4581,4.3394,4.0917,0.0,4.1515,0.0,0.0,3.8793,3.6714,3.4785,3.329,3.2093,0.0,3.1511,0.0,0.0,2.76,0.0,0.0,0.0,0.0,2.841,2.9699,2.8229,2.9101,3.1406,3.0254,0.0,0.0,2.8874,2.8605,2.7675,2.8259,2.8094,2.76,2.76,2.76,2.76,2.76,2.8124,2.8994,3.0373,3.0778,3.0664,3.0162,3.0747,3.1146,2.9625,2.9251,2.8935,2.7759,2.6994,2.6537,0.0,0.0,0.0,0.0,0.0,0.0,0.0,0.0,0.0,0.0,0.0,0.0,0.0,2.0191,0.0,1.9469,1.9303,1.9356,1.9618,1.9422,1.9447,0.0,0.0,0.0,2.1864,2.3016,2.3904,2.449,2.5993,2.6679,2.6563,2.6917,2.7267,2.76,2.76,2.9039,3.1481,3.1107,3.1152,3.1511,3.1511,3.1511,3.1511,3.1511,3.2422,3.3888,3.507,3.5504,3.5504,0.0,0.0,0.0,0.0,0.0,0.0,0.0,3.0417,0.0,3.1466,0.0,4.304,4.6411,4.6785,4.5837,4.3499,0.0,3.9406,3.9406,3.9406,4.0573,4.3205,3.8285,3.5504,3.5504,3.2871,0.0,0.0,0.0,0.0,0.0,0.0,0.0,0.0,0.0,0.0,0.0,2.7974,2.922,3.0823,2.8889,2.8111,2.8351,3.0629,3.0089,2.8261,2.9428,2.8888,2.7642,2.7794,2.7974,2.8111,2.8111,2.8111,2.856,3.0823,3.1511,3.1511,3.1511,3.1511,3.1511,3.1511,3.1511,3.0896,2.8565,2.7743,2.749,2.749,2.6435,2.5547,0.0,0.0,0.0,0.0,0.0,0.0,0.0,0.0,0.0,0.0,0.0,0.0,2.0699,1.9746,1.9355,1.9878,1.9917,1.9917,0.0,0.0,0.0,2.2243,2.4013,0.0,2.5255,0.0,2.8093,2.6908,2.7371,2.76,2.76,2.7779,2.919,3.1466,3.0703,3.0808,3.1511,3.1511,3.1511,3.1511,3.1511,3.172,3.2303,3.4636,3.5504,3.5504,0.0,0.0,0.0,0.0,0.0,3.3543,3.9631,3.3574,2.9069,3.1212,3.2706,3.6234,4.325,4.4012,4.3818,4.3334,4.0917,0.0,0.0,0.0,0.0,4.3205,3.8285,3.5504,3.5504,3.2871,3.1511,0.0,0.0,0.0,0.0,0.0,0.0,0.0,0.0,0.0,2.7735,2.9895,0.0,2.8425,3.0134,3.0822,3.0868,3.1331,3.1212,3.0838,3.1077,2.9639,2.7764,2.8888,2.9953,3.0822,3.0822,3.0822,3.0898,3.1376,3.1511,3.1511,3.1511,3.1511,3.1511,3.1511,3.1511,3.138,3.0911,2.9093,2.749,2.749,2.7281,2.6736,2.5521,0.0,0.0,0.0,0.0,0.0,0.0,0.0,0.0,0.0,0.0,2.0699,0.0,2.0503,2.0438,2.0529,2.0542,2.0542,0.0,0.0,0.0,0.0,2.2896,0.0,0.0,0.0,2.7914,2.9525,2.8211,2.76,2.763,2.8753,3.0073,3.1496,3.1346,3.1361,3.1511,3.1511,3.1511,3.1511,3.1511,3.2841,3.486,3.534,3.5504,3.5504,0.0,0.0,0.0,0.0,0.0,0.0,0.0,3.9903,0.0,3.746,3.7609,3.9074,4.2871,4.329,4.329,4.329,4.0917,3.9406,3.9406,3.9406,4.0573,4.3205,3.9586,0.0,3.5518,3.2871,3.1511,3.1511,0.0,0.0,0.0,0.0,0.0,0.0,0.0,2.76,0.0,0.0,0.0,2.9744,3.0987,3.1511,3.1511,3.1511,3.1511,3.1511,3.1511,3.0687,2.9729,3.0358,3.0987,3.1511,3.1511,3.1511,3.1511,3.1511,3.1511,3.1511,3.1511,3.1511,3.1511,3.1511,3.1511,3.1511,3.1511,2.9423,2.749,2.749,2.7193,2.6631,2.5691,2.4988,0.0,0.0,0.0,0.0,0.0,0.0,0.0,0.0,0.0,0.0,0.0,0.0,0.0,0.0,0.0,0.0,0.0,0.0,0.0,0.0,0.0,0.0,0.0,0.0,0.0,2.8846,2.8004,2.76,2.766,2.9669,3.0927,3.1466,3.1032,3.1092,3.1511,3.1511,3.1914,3.2467,3.1765,3.314,3.5504,3.5504,3.5504,3.5504,0.0,3.3798,0.0,0.0,3.3364,0.0,4.6037,4.5014,4.329,4.329,4.329,4.329,4.329,4.329,4.329,4.329,4.0917,3.9406,3.9406,3.9406,4.0573,4.3205,4.0259,3.7597,3.5533,3.3439,3.2064,0.0,0.0,0.0,0.0,0.0,0.0,0.0,0.0,0.0,0.0,0.0,3.1511,3.1511,3.1511,3.1511,3.1511,3.1511,3.1511,3.1511,3.1511,3.1511,3.1511,3.1511,3.1511,3.1511,3.1511,3.1511,3.1511,3.1511,3.1511,3.1511,3.1511,3.1511,3.1511,3.1511,3.1511,3.1511,3.1511,2.9641,2.7842,2.7556,2.6906,2.6347,2.62,2.5615,0.0,0.0,0.0,0.0,0.0,0.0,0.0,0.0,0.0,0.0,2.1498,0.0,0.0,0.0,0.0,2.0699,2.0699,2.0699,0.0,0.0,0.0,2.5912,2.6437,0.0,3.1554,0.0,2.8244,2.8169,2.85,3.0568,3.1511,3.1466,3.0778,3.0868,3.1511,3.1511,3.2467,3.3814,3.2766,3.3649,3.5504,3.5504,3.5504,3.5504,0.0,0.0,0.0,0.0,0.0,0.0,0.0,4.5014,4.329,4.329,4.329,4.329,4.329,4.329,4.329,4.329,4.0917,3.9406,3.9406,3.9406,4.0573,4.3205,3.8524,3.5759,3.5504,3.5249,3.3933,0.0,0.0,0.0,0.0,0.0,0.0,0.0,0.0,0.0,0.0,3.1406,3.1511,3.1511,3.1511,3.1511,3.1511,3.1511,3.1511,3.1511,3.1511,3.1511,3.1511,3.1511,3.1511,3.1511,3.1511,3.1511,3.1511,3.1511,3.1511,3.1511,3.1511,3.1511,3.1511,3.1511,3.1511,3.1511,3.1511,3.0374,2.8969,2.7743,2.6906,2.6595,2.7232,2.6462,2.5861,0.0,0.0,0.0,0.0,0.0,0.0,0.0,0.0,0.0,0.0,2.1014,0.0,0.0,2.0699,2.0699,2.0699,2.0699,2.1226,2.236,0.0,2.5654,2.849,2.8922,0.0,3.2288,3.0342,3.0013,3.1137,3.1391,3.1511,3.1511,3.1406,3.1421,3.1511,3.1511,3.302,3.531,3.5159,3.5279,3.5504,3.5504,3.5504,3.5504,0.0,0.0,0.0,0.0,0.0,0.0,0.0,4.5014,4.3488,4.4015,4.3625,4.329,4.329,4.1904,4.0962,4.0962,4.0004,3.9406,3.9406,3.9406,3.987,4.0917,3.8958,3.7836,3.7836,3.6296,3.4187,0.0,0.0,0.0,0.0,0.0,0.0,0.0,0.0,3.1511,3.1511,3.1511,3.1511,3.1511,3.1511,3.1511,3.1511,3.1511,3.1511,3.1511,3.1511,3.1625,3.1811,3.1994,3.1796,3.1511,3.1511,3.1511,3.1511,3.1511,3.1511,3.1511,3.1511,3.1511,3.1511,3.1511,3.1511,3.1511,3.1511,3.0673,2.9627,2.8549,2.7669,2.7154,2.7438,2.6853,2.6491,0.0,0.0,0.0,0.0,0.0,0.0,0.0,0.0,0.0,0.0,0.0,0.0,0.0,0.0,2.0699,2.0699,2.1354,2.2085,2.2871,0.0,2.5878,2.8111,2.9085,3.0134,3.1241,3.0912,3.1017,3.1511,3.1511,3.1511,3.1526,3.2347,3.2243,3.157,3.2362,3.3814,3.5504,3.5504,3.5504,3.5504,3.5504,3.5504,3.5504,3.8811,0.0,4.4253,0.0,4.0649,3.8773,4.5479,4.4906,4.3899,4.4515,4.4073,4.3684,4.3684,4.1316,3.9714,3.9714,3.9714,3.9714,3.9714,3.9714,3.9625,3.9406,3.9406,0.0,3.9406,3.6834,3.4187,3.1511,3.1511,0.0,0.0,0.0,0.0,0.0,3.1753,3.1753,3.1753,3.1753,3.1753,3.1753,3.1753,3.1753,3.1754,3.1568,3.1611,3.1753,3.1753,3.1925,3.215,3.2259,3.2064,3.1754,3.1668,3.1654,3.1668,3.1611,3.1597,3.1583,3.1525,3.1511,3.1511,3.1511,3.1511,3.1511,3.1511,3.1029,3.0344,2.9532,2.8693,2.8026,2.7825,2.7478,2.7298,2.7474,0.0,0.0,0.0,0.0,0.0,0.0,2.3575,2.3196,2.3196,2.2335,0.0,0.0,0.0,0.0,2.1438,2.2206,0.0,0.0,0.0,0.0,0.0,2.9613,3.0389,3.0599,3.1212,3.1511,3.1511,3.1511,3.1511,3.1615,3.3728,3.4327,3.3769,3.3577,3.4728,3.6631,3.6631,3.6631,3.6631,3.6631,3.6631,3.6631,4.6651,4.095,3.837,4.7052,4.846,4.7537,4.5018,4.4603,4.4591,4.4591,4.4591,4.4572,4.4572,4.2137,4.0489,4.0489,4.0489,4.0489,4.0489,4.0489,4.0159,0.0,0.0,3.9406,3.9406,3.6834,3.4187,3.1511,0.0,0.0,3.1511,0.0,3.181,3.2398,3.2398,3.2398,3.2398,3.2398,3.2398,3.2398,3.2398,3.2398,3.2328,3.1726,3.1867,3.2398,3.2398,3.2398,3.237,3.2162,3.2231,3.2342,3.208,3.2038,3.2049,3.1853,3.1798,3.1741,3.1554,3.1511,3.1511,3.1511,3.1511,3.1511,3.1511,3.1496,3.1278,3.0614,2.9935,2.9268,2.8613,2.8468,2.8257,2.7606,0.0,0.0,0.0,0.0,0.0,0.0,2.3575,2.3196,2.3196,2.2701,0.0,0.0,0.0,0.0,0.0,0.0,0.0,2.5799,2.6462,0.0,2.9564,3.0193,3.0837,3.1466,3.1481,3.1511,3.1511,3.1511,3.1511,3.1718,3.566,3.8066,3.8915,3.5085,3.5759,3.9258,3.9258,3.9258,3.9258,3.9258,3.9258,3.9258,4.8014,4.6162,4.5319,4.8117,4.7096,4.5592,4.4729,4.4591,4.4591,4.4591,4.4591,4.4591,4.4591,4.2155,4.0489,0.0,4.0489,4.0489,0.0,4.0489,4.0403,4.0159,4.0156,4.0156,4.0156,3.7535,3.5547,3.4232,0.0,0.0,0.0,3.1924,3.2217,3.2398,3.2398,3.2398,3.2398,3.2398,3.2398,3.2398,3.2398,3.2398,3.2384,3.2189,3.2231,3.2398,3.2398,3.2398,3.2398,3.2328,3.2356,3.2398,3.2287,3.2287,3.2231,3.1895,3.1797,3.1769,3.1539,3.1511,3.1511,3.1511,3.1511,3.1511,3.1511,3.1161,3.0762,3.0539,2.9965,2.9426,2.9221,2.9174,2.8953,2.8287,2.8418,0.0,0.0,0.0,0.0,0.0,2.5268,2.5325,0.0,2.4273,0.0,0.0,0.0,0.0,0.0,0.0,0.0,0.0,2.7633,0.0,3.0193,3.0852,3.1286,3.1511,3.1511,3.1511,3.1511,3.1511,3.2497,3.4387,3.7382,3.8928,3.9074,3.6091,3.662,3.9299,3.9299,3.9299,3.9299,3.9299,3.9299,3.9299,5.0445,5.0445,5.0445,5.0445,4.9061,4.756,4.6431,4.6255,4.6255,4.6255,4.5292,4.4206,4.3171,4.2448,0.0,4.0582,4.0489,4.0489,4.0489,4.0489,4.0489,4.0489,4.0489,4.0489,4.0489,0.0,0.0,3.7375,3.636,3.5014,3.338,3.3762,3.3951,3.3951,3.3951,3.3366,3.2398,3.2398,3.2398,3.2398,3.2398,3.2398,3.2398,3.2398,3.2398,3.2398,3.2398,3.2398,3.2398,3.2398,3.2398,3.2398,3.2398,3.2398,3.2342,3.2037,3.1952,3.191,3.1741,3.1698,3.1683,3.1626,3.1611,3.1583,3.1525,3.119,3.0881,3.0881,3.0539,3.0178,2.9919,2.9889,2.9658,2.8982,2.9237,2.9014,2.7651,0.0,0.0,0.0,0.0,0.0,0.0,2.605,2.617,0.0,0.0,0.0,0.0,0.0,0.0,2.7465,2.879,0.0,3.0492,3.1406,3.175,3.1511,3.2157,3.2399,3.2302,3.376,3.5341,3.7027,3.8609,3.9,3.8388,3.734,3.7854,3.9183,3.8089,3.7645,3.7645,3.7645,3.7645,3.7833,5.3501,5.3501,0.0,0.0,5.3501,0.0,4.9458,4.9001,4.9001,4.9001,4.6605,4.3845,4.1078,4.2894,4.3279,4.0705,0.0,0.0,0.0,4.0489,4.0489,4.0489,4.0489,4.0489,4.0489,4.0489,4.0489,4.0489,3.8,3.6676,3.6507,3.6507,3.6507,3.6507,3.6507,3.4968,3.2398,3.2398,3.2398,3.2398,3.2398,3.2398,3.2398,3.2398,3.2398,3.2398,3.2398,3.2398,3.2398,3.2398,3.2398,3.2398,3.2398,3.2428,3.2432,3.2262,3.2191,3.2163,3.2039,3.2027,3.2044,3.1903,3.189,3.1862,3.1614,3.157,3.1585,3.163,3.157,3.1322,3.0747,3.0598,3.0344,2.9675,2.9613,2.9429,2.8834,0.0,0.0,0.0,0.0,0.0,0.0,2.7895,2.7897,0.0,0.0,0.0,0.0,0.0,2.815,2.8713,2.9879,3.0522,3.0567,3.1809,3.2138,3.1583,3.3245,3.3938,3.3864,3.7512,3.9102,3.9,3.9,3.8288,3.7214,3.8486,3.905,3.8854,3.6005,3.4923,3.4958,3.4958,3.4958,3.5412,0.0,0.0,5.3501,5.3501,5.3501,5.2486,4.9458,4.9001,4.9001,4.9001,4.8402,4.6842,4.3941,4.234,4.1214,4.0568,4.0489,4.0489,4.0489,4.0489,4.0489,4.0489,4.0489,4.0489,4.0489,4.0489,4.0489,4.0489,3.9861,3.8523,3.6507,3.6507,3.6507,3.6507,3.6507,3.4968,3.2398,3.2398,3.2398,3.2398,3.2398,3.2398,3.2398,3.2398,3.2398,3.2398,3.2398,3.2398,3.2398,3.2398,3.2398,3.2398,3.2398,3.2752,3.3047,3.24,3.2191,3.2163,3.2039,3.2361,3.2726,3.2537,3.2781,3.2946,3.2392,3.2258,3.2407,3.2916,3.2213,3.1616,3.1961,3.1619,3.1043,3.0374,3.0688,3.063,2.9475,3.0187,0.0,0.0,2.9291,2.9501,2.8582,2.8889,2.9177,0.0,0.0,0.0,0.0,2.9651,2.9905,3.0044,3.0342,3.0747,3.1256,3.157,3.189,3.2205,3.3121,3.448,3.6202,3.7343,3.7156,3.5938,3.5938,3.6501,3.7332,3.6344,3.6618,3.7433,3.5611,3.5118,3.5441,3.5441,3.5441,3.5554,5.3501,5.3501,5.3501,5.3501,5.3501,5.2959,5.1319,4.9898,4.9001,4.9001,4.9001,4.8402,4.6795,4.5269,4.3338,4.0735,4.0489,4.0489,4.0489,4.0489,4.0489,4.0489,4.0489,4.0489,4.0489,4.0489,4.0489,4.0489,4.0489,3.9122,3.6507,3.6507,3.6507,3.6507,3.6507,3.4968,3.2398,3.2398,3.2398,3.2398,3.2398,3.2398,3.2398,3.2398,3.2398,3.2398,3.2398,3.2398,3.2398,3.2398,3.2398,3.2398,3.2398,3.2859,3.3307,3.2869,3.2992,3.3162,3.2755,3.3154,3.363,3.3438,3.3502,3.3532,3.3171,3.3006,3.3066,3.3425,3.2677,3.2078,3.2437,3.1944,3.138,3.1029,3.1263,3.1248,3.0524,3.1043,0.0,3.0104,3.0556,3.0709,3.004,3.028,3.0342,3.0028,0.0,0.0,3.0042,3.0598,3.0822,3.0507,3.0792,3.1122,3.1511,3.1768,3.2509,3.3685,3.4089,3.4944,3.6265,3.7316,3.6861,3.5211,3.4977,3.5566,3.656,3.5604,3.5566,3.605,3.5447,3.5384,3.56,3.56,3.56,3.5802,5.3501,5.3501,5.3501,5.3501,5.3501,5.3348,5.2892,5.0659,4.9001,4.9001,4.9001,4.9001,4.9001,4.9001,4.6868,4.1578,4.1125,4.0938,4.0524,4.0489,4.0489,4.0489,4.0489,4.0489,4.0489,4.0489,4.0489,4.0489,4.0489,3.9122,3.6507,3.6507,3.6507,3.6507,3.6507,3.5199,3.3027,3.3027,3.2782,3.2398,3.2398,3.2398,3.2398,3.2398,3.2398,3.2398,3.2398,3.2398,3.2398,3.2398,3.2398,3.2413,3.2581,3.2998,3.3475,3.3552,3.4151,3.4613,3.3783,3.4075,3.4555,3.4376,3.4243,3.4106,3.4,3.3818,3.371,3.3815,3.32,3.2647,3.2647,3.2093,3.1615,3.1525,3.1511,3.1511,3.1511,0.0,3.154,3.1645,3.1645,3.1645,3.1645,3.1735,3.1481,3.0702,3.1271,3.1361,0.0,3.1182,3.1269,3.0812,3.1254,3.1539,3.1668,3.2272,3.3423,3.508,3.5137,3.529,3.5548,3.7137,3.7158,3.5915,3.5277,3.5234,3.56,3.56,3.5373,3.5053,3.5441,3.56,3.56,3.56,3.56,3.5966,5.3501,5.3501,5.3501,5.3501,5.3501,5.2638,5.0101,4.9306,4.9001,4.9001,4.9001,4.9001,4.9001,4.9001,4.7632,4.4257,4.3962,4.2971,4.0646,4.0489,4.0489,4.0489,4.0489,4.0489,4.0489,4.0489,4.0489,4.0489,4.0489,3.9122,3.6507,3.6507,3.6507,3.6507,3.6507,3.6261,3.586,3.586,3.4522,3.2398,3.2398,3.2398,3.2398,3.2398,3.2398,3.2398,3.2398,3.2398,3.2398,3.2398,3.2398,3.2536,3.3321,3.3644,3.3814,3.4213,3.5214,3.5922,3.4674,3.4694,3.508,3.5049,3.5338,3.5502,3.4941,3.4665,3.4677,3.5234,3.4282,3.3335,3.3335,3.2796,3.2168,3.1585,3.1511,3.1511,3.1511,0.0,3.1705,3.2288,3.2347,3.2347,3.2347,3.2856,3.2677,3.1436,3.1974,3.2049,3.1376,3.1451,3.1695,3.2077,3.1708,3.1796,3.2424,3.3079,3.3787,3.4523,3.4533,3.5184,3.6396,3.6015,3.6474,3.7471,3.6089,3.5532,3.56,3.56,3.5566,3.5498,3.5577,3.56,3.56,3.56,3.56,3.5667,5.3501,5.3501,5.2993,5.1369,5.2418,5.2486,4.9458,4.9001,4.9001,4.9001,4.9001,4.9001,4.9001,4.9001,4.846,4.7105,4.5514,4.4064,4.2786,4.1325,4.0489,4.0489,4.0489,4.0489,4.0489,4.0489,4.0489,4.0489,4.0489,3.9122,3.6507,3.6507,3.6507,3.6507,3.6507,3.6507,3.6507,3.6507,3.5783,3.449,3.2998,3.3289,3.4459,3.2952,3.2398,3.2398,3.2398,3.2398,3.2398,3.2398,3.2904,3.3643,3.4305,3.4351,3.429,3.486,3.5476,3.5907,3.5645,3.5738,3.5984,3.6352,3.6272,3.6116,3.6162,3.5777,3.5499,3.5802,3.495,3.4148,3.4148,3.3246,3.2512,3.2572,3.1974,0.0,0.0,3.2034,3.2153,3.2467,3.2811,3.3036,3.3036,3.2991,3.2691,3.2093,3.1989,3.1974,3.2034,3.1705,3.1961,3.2959,3.2688,3.2853,3.3563,3.3881,3.4321,3.489,3.4961,3.5349,3.5991,3.5655,3.5931,3.6625,3.5915,3.56,3.56,3.56,3.56,3.56,3.56,3.6591,3.7838,3.6203,3.56,3.56,5.3501,5.2942,5.1725,4.9407,5.093,5.1674,4.9357,4.9001,4.9001,4.9001,4.9001,4.9001,4.9001,4.9001,4.8731,4.8037,4.5904,4.4615,4.4615,4.2631,4.1175,4.0524,4.0489,4.0489,4.0489,4.0489,4.0489,4.0489,3.9876,3.8523,3.6507,3.6507,3.6507,3.6507,3.6507,3.6507,3.6507,3.6507,3.6507,3.6322,3.4198,3.4629,3.6276,3.4167,3.3351,3.326,3.2628,3.2398,3.249,3.3136,3.4074,3.5014,3.5322,3.5214,3.5075,3.5583,3.5845,3.6045,3.6399,3.6599,3.6861,3.7369,3.712,3.6871,3.7375,3.6987,3.654,3.654,3.5923,3.5311,3.501,3.3982,3.326,3.3469,0.0,0.0,0.0,3.2721,3.2781,3.2961,3.3425,3.3724,3.3724,3.326,3.2901,3.2736,3.2287,3.2167,3.2527,3.2222,3.2571,3.3724,3.3711,3.3928,3.4439,3.4601,3.4909,3.5372,3.5475,3.552,3.552,3.5583,3.56,3.56,3.56,3.56,3.56,3.56,3.56,3.56,3.56,3.7014,3.8763,3.6456,3.56,3.56,5.3501,5.1251,4.9272,4.9035,4.9187,4.9272,4.9035,4.9001,4.9001,4.9001,4.9001,4.9001,4.9001,4.9001,4.7902,4.5159,4.4733,4.4615,4.4615,4.4412,4.317,4.061,4.0489,4.0489,4.0489,4.0489,4.0489,4.0489,3.8015,3.6676,3.6507,3.6507,3.6507,3.6507,3.6507,3.6507,3.6507,3.6507,3.6507,3.6476,3.6276,3.6322,3.6492,3.6276,3.6199,3.586,3.332,3.2398,3.2796,3.5352,3.6276,3.6369,3.6399,3.6384,3.6369,3.6415,3.6861,3.723,3.6661,3.6953,3.7446,3.7492,3.7922,3.8337,3.8383,3.8252,3.8138,3.8138,3.7778,3.7119,3.5947,3.5485,3.4891,3.3694,0.0,0.0,3.3425,3.3425,3.3649,3.4278,3.4398,3.4444,3.4444,3.4383,3.4099,3.3469,3.3547,3.3352,3.272,3.3294,3.3889,3.4505,3.4508,3.4528,3.4576,3.5196,3.5526,3.5577,3.5588,3.5588,3.5588,3.56,3.56,3.56,3.56,3.56,3.56,3.56,3.56,3.56,3.56,3.5735,3.5904,3.5684,3.56,3.56,5.1082,4.9796,4.9001,4.9001,4.9001,4.9001,4.9001,4.9001,4.9001,4.9001,4.9001,4.9001,4.9001,4.9001,4.8545,4.7428,4.565,4.4615,4.4615,4.4615,4.4121,4.3094,4.1409,4.0489,4.0489,4.0489,4.0489,4.0489,3.9476,3.8968,3.8968,3.8968,3.8092,3.6507,3.6507,3.6507,3.6507,3.6507,3.6507,3.6507,3.6507,3.6507,3.6507,3.6507,3.6507,3.6369,3.5306,3.4952,3.5091,3.6138,3.6507,3.6507,3.6507,3.6507,3.6599,3.7153,3.7691,3.8061,3.7815,3.7938,3.8107,3.8107,3.8307,3.8599,3.903,3.8766,3.8409,3.8409,3.8242,3.7924,3.7438,3.6502,3.5736,3.5518,0.0,3.3787,3.4084,3.4113,3.4203,3.4458,3.4877,3.5115,3.5115,3.4806,3.4525,3.4253,3.4392,3.4533,3.4674,3.526,3.5496,3.5284,3.5238,3.5219,3.5219,3.547,3.56,3.56,3.56,3.56,3.56,3.56,3.56,3.56,3.56,3.56,3.56,3.56,3.56,3.5797,3.7652,3.7251,3.56,3.56,3.56,3.56,5.0828,4.9661,4.9001,4.9001,4.9001,4.9001,4.9001,4.9001,4.9001,4.9001,4.9001,4.9001,4.9001,4.9001,4.9001,4.9001,4.7141,4.5988,4.5988,4.5108,4.4615,4.4615,4.2786,4.1803,4.1803,4.0938,4.0489,4.0489,4.0489,4.0489,4.0489,4.0489,3.9522,3.7754,3.7754,3.7292,3.6507,3.6507,3.6507,3.6507,3.6507,3.6507,3.6507,3.6507,3.6507,3.6507,3.6507,3.6507,3.6507,3.6507,3.7061,3.7692,3.7261,3.7123,3.7338,3.8353,3.8738,3.8814,3.8814,3.8968,3.9076,3.8861,3.8968,3.9245,3.9722,3.9461,3.9122,3.9122,3.902,3.8858,3.8659,3.7701,3.699,3.7086,3.5948,3.516,3.5549,3.5332,3.5164,3.5261,3.5454,3.5587,3.5651,3.5131,3.4955,3.5369,3.5313,3.5663,3.6536,3.6518,3.6447,3.638,3.6118,3.5983,3.5983,3.5729,3.56,3.56,3.5864,3.5847,3.56,3.5864,3.5847,3.56,3.56,3.56,3.56,3.56,3.56,3.5814,3.7872,3.7415,3.56,3.56,3.56,3.56,5.3467,5.1065,4.9001,4.9001,4.9001,4.9001,4.9001,4.9001,4.9001,4.9001,4.9001,4.9001,4.9001,4.9001,4.9001,4.9001,4.9001,4.9001,4.9001,4.6242,4.4615,4.4615,4.4615,4.4615,4.4615,4.1933,4.0524,4.0524,4.0507,4.0489,4.0489,4.0489,4.0489,4.0489,4.0489,3.9014,3.6522,3.6522,3.6522,3.6538,3.6507,3.6507,3.6507,3.6507,3.6507,3.6507,3.6507,3.6522,3.6522,3.6522,3.8308,4.0276,3.8922,3.8507,3.8768,4.0107,4.0013,3.9507,3.9507,3.9999,4.0353,3.9676,3.9999,4.0489,4.0489,4.0489,4.0489,4.0489,4.0383,4.0113,3.944,3.915,3.8802,3.8117,3.7842,3.7775,3.7962,3.7133,3.6627,3.6959,3.6239,3.5799,3.5989,3.5413,3.5539,3.6813,3.6414,3.6695,3.8044,3.6792,3.6605,3.7865,3.719,3.6812,3.6812,3.6017,3.5616,3.56,3.6428,3.6395,3.565,3.6417,3.6349,3.5616,3.56,3.56,3.56,3.56,3.56,3.56,3.56,3.5616,3.5633,3.56,3.56,3.56,5.0355,4.9627,4.9001,4.9001,4.9001,4.9001,4.9001,4.9001,4.9001,4.9001,4.9001,4.9001,4.9001,4.9001,4.9001,4.9001,4.9001,4.9001,4.9001,4.6242,4.4615,4.4615,4.4615,4.4615,4.4615,4.38,4.3366,4.3366,4.1442,4.0489,4.0489,4.0489,4.0489,4.0489,4.0489,4.0061,3.9307,3.9307,3.9307,3.9138,3.7261,3.6507,3.6507,3.6507,3.6507,3.6738,3.863,3.9307,3.9307,3.9307,3.9845,4.0276,3.8922,3.9153,3.9891,3.983,3.9999,4.0214,4.0214,4.0336,4.0353,3.9676,3.9999,4.0489,4.0489,4.0489,4.0489,4.0489,4.047,4.0391,4.0192,3.9695,3.9244,3.8959,3.8464,3.8093,3.8012,3.7745,3.7423,3.7037,3.6777,3.6635,3.6631,3.6537,3.6806,3.7598,3.8054,3.8628,3.9463,3.8609,3.8279,3.8667,3.7956,3.7567,3.7567,3.7319,3.6676,3.5616,3.6552,3.7246,3.7674,3.649,3.6203,3.6603,3.5915,3.56,3.56,3.56,3.56,3.56,3.56,3.6896,3.851,3.6372,3.56,3.5904,4.9001,4.9001,4.9001,4.9001,4.9001,4.9001,4.9001,4.9001,4.9001,4.9001,4.9001,4.9001,4.9001,4.9001,4.9001,4.9001,4.9001,4.9001,4.9001,4.7327,4.5819,4.4649,4.4615,4.4615,4.4615,4.4615,4.4615,4.4615,4.2941,4.1574,4.0489,4.0489,4.0489,4.0489,4.0489,4.0489,4.0489,4.0489,4.0489,4.0351,3.8722,3.8076,3.8076,3.8076,3.8076,3.8291,3.9922,4.0489,4.0489,4.0489,4.0489,4.0351,3.9553,3.9861,4.0413,4.0014,4.0166,4.0489,4.0489,4.0489,4.0397,3.9999,4.0214,4.0489,4.0489,4.0489,4.0489,4.0489,4.0489,4.0489,4.0489,4.0166,3.9873,3.9803,3.9382,3.9071,3.9005,3.8642,3.8289,3.8026,3.7443,3.7304,3.7871,3.7491,3.756,3.84,3.9146,3.9722,4.007,3.9406,3.9136,3.9423,3.8717,3.8345,3.8345,3.8616,3.7905,3.6203,3.7026,3.7736,3.8299,3.7669,3.706,3.6456,3.5864,3.6947,3.9073,3.7872,3.7381,3.7381,3.7381,3.8481,3.9893,3.8041,3.7381,3.7635,4.9001,4.9001,4.9001,4.9001,4.9001,4.9001,4.9001,4.9001,4.9001,4.9001,4.9001,4.9001,4.9001,4.9001,4.9001,4.9001,4.9001,4.9001,4.9001,4.9001,4.78,4.5108,4.499,4.499,4.499,4.4719,4.4615,4.4615,4.4615,4.32,4.0489,4.0489,4.0489,4.0489,4.0489,4.0489,4.0489,4.0489,4.0489,4.0489,4.0489,4.0489,4.0489,4.0489,4.0489,4.0489,4.0489,4.0489,4.0489,4.0489,4.0489,4.0489,4.0489,4.0489,4.0489,4.0489,4.0489,4.0489,4.0489,4.0553,4.0614,4.0614,4.0628,4.0643,4.052,4.0551,4.0614,4.0614,4.0661,4.0659,4.0614,4.0614,4.0566,4.0505,4.0401,4.0349,4.0472,3.9711,3.923,3.9473,3.8302,3.8039,3.9439,3.8529,3.8275,3.9388,3.9988,4.0282,4.0197,3.9626,3.9576,4.018,3.9559,3.9237,3.9276,3.9914,3.9203,3.719,3.7804,3.8108,3.8142,3.9491,3.8611,3.6017,3.6287,3.9529,4.4395,4.1636,4.035,4.0096,4.0096,4.0096,4.0096,4.0096,4.0096,4.0096,4.9001,4.9001,4.9001,4.9001,4.9001,4.9001,4.9001,4.9001,4.9001,4.9001,4.9001,4.9001,4.9001,4.9001,4.9001,4.9001,4.9001,4.9001,4.9001,4.9001,4.8714,4.8071,4.8054,4.8054,4.8054,4.5785,4.4615,4.4615,4.4615,4.32,4.0489,4.0489,4.0489,4.0489,4.0489,4.0489,4.0489,4.0489,4.0489,4.0489,4.0489,4.0489,4.0489,4.0489,4.0489,4.0489,4.0489,4.0489,4.0489,4.0489,4.0489,4.0489,4.0489,4.0489,4.0489,4.0489,4.0489,4.0489,4.0489,4.0922,4.137,4.137,4.1771,4.1861,4.0753,4.0953,4.137,4.137,4.1786,4.1968,4.1463,4.137,4.1168,4.0582,4.0487,4.047,4.0505,4.0315,4.0006,3.9551,3.9679,3.9898,4.0179,4.0835,4.1352,4.161,4.176,4.1572,4.0984,4.1369,4.1403,4.0967,4.0815,4.1001,4.1589,4.1386,4.007,3.7736,3.9017,3.9609,3.9626,3.996,3.974,3.9254,4.1623,4.3382,4.4564,4.3904,4.2228,4.0096,4.0096,4.0096,4.0096,4.0096,4.0096,4.0096,4.9001,4.9001,4.9001,4.9001,4.9001,4.9001,4.9001,4.9001,4.9001,4.9001,4.9001,4.9001,4.9001,4.9001,4.9001,4.9001,4.9001,4.9001,4.9001,4.9001,4.9001,4.9001,4.9001,4.9001,4.9001,4.7479,4.6005,4.4615,4.4615,4.3858,4.2459,4.2459,4.1754,4.0489,4.0489,4.0489,4.0489,4.0489,4.0489,4.0489,4.0489,4.0489,4.0489,4.0489,4.0489,4.0489,4.0489,4.0489,4.0489,4.0489,4.0489,4.0489,4.0489,4.0489,4.0489,4.0489,4.0489,4.0489,4.0489,4.103,4.1601,4.1601,4.2109,4.2417,4.1676,4.1799,4.2078,4.2078,4.2355,4.2494,4.214,4.1817,4.1478,4.1091,4.0737,4.0489,4.0489,4.0489,4.0488,4.0457,4.0477,4.0592,4.0851,4.2055,4.2675,4.2333,4.23,4.2117,4.1745,4.2083,4.213,4.1728,4.1728,4.1914,4.23,4.2304,4.1829,4.0854,4.0326,4.0096,4.0096,4.0096,4.0096,4.0282,4.3295,4.43,4.3792,4.3792,4.2326,4.0196,4.1094,4.0902,4.0159,4.0599,4.0478,4.0096,4.9001,4.9001,4.9001,4.9001,4.9001,4.9001,4.9001,4.9001,4.9001,4.9001,4.9001,4.9001,4.9001,4.9001,4.9001,4.9001,4.9001,4.9001,4.9001,4.9001,4.9001,4.9001,4.9001,4.9001,4.9001,4.9001,4.78,4.5345,4.5345,4.5091,4.4615,4.4615,4.3381,4.1175,4.0715,4.0489,4.0489,4.0489,4.0489,4.0489,4.0489,4.0489,4.0489,4.0489,4.0489,4.0489,4.0489,4.0489,4.0489,4.0489,4.0489,4.0489,4.0489,4.0489,4.0489,4.0489,4.0599,4.0691,4.0691,4.1291,4.194,4.194,4.2448,4.294,4.294,4.2848,4.2771,4.2771,4.2771,4.274,4.2633,4.2155,4.1694,4.1447,4.0999,4.0645,4.0522,4.061,4.0887,4.1426,4.1214,4.1266,4.1891,4.2959,4.3352,4.274,4.2689,4.2638,4.2503,4.2621,4.2661,4.2632,4.2632,4.2736,4.2947,4.3269,4.3796,4.4502,4.221,4.1215,4.1396,4.1396,4.1396,4.1516,4.3447,4.3763,4.2946,4.3489,4.2473,4.0725,4.23,4.1952,4.0666,4.1448,4.1047,4.0096,4.9001,4.9001,4.9001,4.9001,4.9001,4.9001,4.9001,4.9001,4.9001,4.9001,4.9001,4.9001,4.9001,4.9001,4.9001,4.9001,4.9001,4.9001,4.9001,4.9001,4.9001,4.9001,4.9001,4.9001,4.9001,4.9001,4.8798,4.8409,4.8409,4.709,4.4615,4.4615,4.4398,4.3931,4.1557,4.0489,4.0489,4.0489,4.0489,4.0489,4.0489,4.0489,4.0489,4.0489,4.0489,4.0489,4.0489,4.0489,4.0489,4.0489,4.0489,4.0489,4.0489,4.0489,4.0489,4.0489,4.0953,4.1447,4.1447,4.2374,4.3328,4.3328,4.3821,4.4329,4.4329,4.3882,4.3451,4.3451,4.3451,4.3282,4.2709,4.254,4.2061,4.0861,4.1091,4.1232,4.0582,4.099,4.1393,4.1492,4.2439,4.3376,4.4111,4.4339,4.4398,4.4296,4.4293,4.3992,4.3288,4.391,4.4191,4.3963,4.3941,4.4465,4.5573,4.5029,4.5252,4.6253,4.5595,4.5758,4.6672,4.6672,4.6672,4.6547,4.4161,4.305,4.3127,4.5906,4.5268,4.2547,4.2806,4.274,4.2537,4.2673,4.1602,4.0096,4.9001,4.9001,4.9001,4.9001,4.9001,4.9001,4.9001,4.9001,4.9001,4.9001,4.9001,4.9001,4.9001,4.9001,4.9001,4.9001,4.9001,4.9001,4.9001,4.9001,4.9001,4.9001,4.9001,4.9001,4.9001,4.9001,4.9001,4.9001,4.9001,4.7479,4.4615,4.4615,4.5481,4.6927,4.4077,4.2786,4.2693,4.1141,4.0489,4.0489,4.0489,4.0489,4.0489,4.0489,4.0489,4.0489,4.0489,4.0489,4.0489,4.0489,4.0489,4.0489,4.0489,4.0489,4.0489,4.0489,4.1091,4.1863,4.2371,4.3051,4.3608,4.3608,4.4098,4.4591,4.4591,4.436,4.416,4.416,4.416,4.4067,4.3756,4.311,4.2402,4.1768,4.161,4.1433,4.1104,4.164,4.2205,4.2583,4.3499,4.4236,4.457,4.4615,4.4615,4.4615,4.4615,4.4432,4.4079,4.4651,4.4948,4.4824,4.5098,4.5531,4.6086,4.6071,4.6299,4.6758,4.6999,4.7302,4.7707,4.7707,4.7707,4.7616,4.6196,4.558,4.5544,4.5164,4.5236,4.5399,4.3598,4.2892,4.2892,4.2892,4.237,4.1914]}]]